[[{"header":{"parameterUnit":"m.s-1","parameterCategory":1,"la1":31.0,"la2":29.5877,"lo1":-88.7671,"lo2":-86.6584,"dy":0.0162,"dx":0.0185,"nx":115,"ny":88,"refTime":"2023-08-02T18:00:00:Z","depth":0,"parameterNumber":2,"parameterNumberName":"U-component_of_WINDS"},"data":[0.0,0.0,0.0,0.0,0.0,0.0,0.0,0.0,0.0,0.0,0.0,0.0,0.0,0.0,0.0,0.0,0.0,0.0,0.0,0.0,0.0,0.0,0.0,0.0,0.0,0.0,0.0,0.0,0.0,0.0,0.0,0.0,0.0,0.0,0.0,0.0,0.0,0.0,0.0,0.0,0.0,0.0,0.0,0.0,0.0,0.0,0.0,0.0,0.0,0.0,0.0,0.0,0.0,0.0,0.0,0.0,0.0,0.0,0.0,0.0,0.0,0.0,0.0,0.0,0.0,0.0,0.0,0.0,0.0,0.0,0.0,0.0,0.0,0.0,0.0,0.0,0.0,0.0,0.0,0.0,0.0,0.0,0.0,0.0,0.0,0.0,0.0,0.0,0.0,0.0,0.0,0.0,0.0,0.0,0.0,0.0,0.0,0.0,0.0,0.0,0.0,0.0,0.0,0.0,0.0,0.0,0.0,0.0,0.0,0.0,0.0,0.0,0.0,0.0,0.0,0.0,0.0,0.0,0.0,0.0,0.0,0.0,0.0,0.0,0.0,0.0,0.0,0.0,0.0,0.0,0.0,0.0,0.0,0.0,0.0,0.0,0.0,0.0,0.0,0.0,0.0,0.0,0.0,0.0,0.0,0.0,0.0,0.0,0.0,0.0,0.0,0.0,0.0,0.0,0.0,0.0,0.0,0.0,0.0,0.0,0.0,0.0,0.0,0.0,0.0,0.0,0.0,0.0,0.0,0.0,0.0,0.0,0.0,0.0,0.0,0.0,0.0,0.0,0.0,0.0,0.0,0.0,0.0,0.0,0.0,0.0,0.0,0.0,0.0,0.0,0.0,0.0,0.0,0.0,0.0,0.0,0.0,0.0,0.0,0.0,0.0,0.0,0.0,0.0,0.0,0.0,0.0,0.0,0.0,0.0,0.0,0.0,0.0,0.0,0.0,0.0,0.0,0.0,0.0,0.0,0.0,0.0,0.0,0.0,0.0,0.0,0.0,0.0,0.0,0.0,0.0,0.0,0.0,0.0,0.0,0.0,0.0,0.0,0.0,0.0,0.0,0.0,0.0,0.0,0.0,0.0,0.0,0.0,0.0,0.0,0.0,0.0,0.0,0.0,0.0,0.0,0.0,0.0,0.0,0.0,0.0,0.0,0.0,0.0,0.0,0.0,0.0,0.0,0.0,0.0,0.0,0.0,0.0,0.0,0.0,0.0,0.0,0.0,0.0,0.0,0.0,0.0,0.0,0.0,0.0,0.0,0.0,0.0,0.0,0.0,0.0,0.0,0.0,0.0,0.0,0.0,0.0,0.0,0.0,0.0,0.0,0.0,0.0,0.0,0.0,0.0,0.0,0.0,0.0,0.0,0.0,0.0,0.0,0.0,0.0,0.0,0.0,0.0,0.0,0.0,0.0,0.0,0.0,0.0,0.0,0.0,0.0,0.0,0.0,0.0,0.0,0.0,0.0,0.0,0.0,0.0,0.0,0.0,0.0,0.0,0.0,0.0,0.0,0.0,0.0,0.0,0.0,0.0,0.0,0.0,0.0,0.0,0.0,0.0,0.0,0.0,0.0,0.0,0.0,0.0,0.0,0.0,0.0,0.0,0.0,0.0,0.0,0.0,0.0,0.0,0.0,0.0,0.0,0.0,0.0,0.0,0.0,0.0,0.0,0.0,0.0,0.0,0.0,0.0,0.0,0.0,0.0,0.0,0.0,0.0,0.0,0.0,0.0,0.0,0.0,0.0,0.0,0.0,0.0,0.0,0.0,0.0,0.0,0.0,0.0,0.0,0.0,0.0,0.0,0.0,0.0,0.0,0.0,0.0,0.0,0.0,0.0,0.0,0.0,0.0,0.0,0.0,0.0,0.0,0.0,0.0,0.0,0.0,0.0,0.0,0.0,0.0,0.0,0.0,0.0,0.0,0.0,0.0,0.0,0.0,0.0,0.0,0.0,0.0,0.0,0.0,0.0,0.0,0.0,0.0,0.0,0.0,0.0,0.0,0.0,0.0,0.0,0.0,0.0,0.0,0.0,0.0,0.0,0.0,0.0,0.0,0.0,0.0,0.0,0.0,0.0,0.0,0.0,0.0,0.0,0.0,0.0,0.0,0.0,0.0,0.0,0.0,0.0,0.0,0.0,0.0,0.0,0.0,0.0,0.0,0.0,0.0,0.0,0.0,0.0,0.0,0.0,0.0,0.0,0.0,0.0,0.0,0.0,0.0,0.0,0.0,0.0,0.0,0.0,0.0,0.0,0.0,0.0,0.0,0.0,0.0,0.0,0.0,0.0,0.0,0.0,0.0,0.0,0.0,0.0,0.0,0.0,0.0,0.0,0.0,0.0,0.0,0.0,0.0,0.0,0.0,0.0,0.0,0.0,0.0,0.0,0.0,0.0,0.0,0.0,0.0,0.0,0.0,0.0,0.0,0.0,0.0,0.0,0.0,0.0,0.0,0.0,0.0,0.0,0.0,0.0,0.0,0.0,0.0,0.0,0.0,0.0,0.0,0.0,0.0,0.0,0.0,0.0,0.0,0.0,0.0,0.0,0.0,0.0,0.0,0.0,0.0,0.0,0.0,0.0,0.0,0.0,0.0,0.0,0.0,0.0,0.0,0.0,0.0,0.0,0.0,0.0,0.0,0.0,0.0,0.0,0.0,0.0,0.0,0.0,0.0,0.0,0.0,0.0,0.0,0.0,0.0,0.0,0.0,0.0,0.0,0.0,0.0,0.0,0.0,0.0,0.0,0.0,0.0,0.0,0.0,0.0,0.0,0.0,0.0,0.0,0.0,0.0,0.0,0.0,0.0,0.0,0.0,0.0,0.0,0.0,0.0,0.0,0.0,0.0,0.0,0.0,0.0,0.0,0.0,0.0,0.0,0.0,0.0,0.0,0.0,0.0,0.0,0.0,0.0,0.0,0.0,0.0,0.0,0.0,0.0,0.0,0.0,0.0,0.0,0.0,0.0,0.0,0.0,0.0,0.0,0.0,0.0,0.0,0.0,0.0,0.0,0.0,0.0,0.0,0.0,0.0,0.0,0.0,0.0,0.0,0.0,0.0,0.0,0.0,0.0,0.0,0.0,0.0,0.0,0.0,0.0,0.0,0.0,0.0,0.0,0.0,0.0,0.0,0.0,0.0,0.0,0.0,0.0,0.0,0.0,0.0,0.0,0.0,0.0,0.0,0.0,0.0,0.0,0.0,0.0,0.0,0.0,0.0,0.0,0.0,0.0,0.0,0.0,0.0,0.0,0.0,0.0,0.0,0.0,0.0,0.0,0.0,0.0,0.0,0.0,0.0,0.0,0.0,0.0,0.0,0.0,0.0,0.0,0.0,0.0,0.0,0.0,0.0,0.0,0.0,0.0,0.0,0.0,0.0,0.0,0.0,0.0,0.0,0.0,0.0,0.0,0.0,0.0,0.0,0.0,0.0,0.0,0.0,0.0,0.0,0.0,0.0,0.0,0.0,0.0,0.0,0.0,0.0,0.0,0.0,0.0,0.0,0.0,0.0,0.0,0.0,0.0,0.0,0.0,0.0,0.0,0.0,0.0,0.0,0.0,0.0,0.0,0.0,0.0,0.0,0.0,0.0,0.0,0.0,0.0,0.0,0.0,0.0,0.0,0.0,0.0,0.0,0.0,0.0,0.0,0.0,0.0,0.0,0.0,0.0,0.0,0.0,0.0,0.0,0.0,0.0,0.0,0.0,0.0,0.0,0.0,0.0,0.0,0.0,0.0,0.0,0.0,0.0,0.0,0.0,0.0,0.0,0.0,0.0,0.0,0.0,0.0,0.0,0.0,0.0,0.0,0.0,0.0,0.0,0.0,0.0,0.0,0.0,0.0,0.0,0.0,0.0,0.0,0.0,0.0,0.0,0.0,0.0,0.0,0.0,0.0,0.0,0.0,0.0,0.0,0.0,0.0,0.0,0.0,0.0,0.0,0.0,0.0,0.0,0.0,0.0,0.0,0.0,0.0,0.0,0.0,0.0,0.0,0.0,0.0,0.0,0.0,0.0,0.0,0.0,0.0,0.0,0.0,0.0,0.0,0.0,0.0,0.0,0.0,0.0,0.0,0.0,0.0,0.0,0.0,0.0,0.0,0.0,0.0,0.0,0.0,0.0,0.0,0.0,0.0,0.0,0.0,0.0,0.0,0.0,0.0,0.0,0.0,0.0,0.0,0.0,0.0,0.0,0.0,0.0,0.0,0.0,0.0,0.0,0.0,0.0,0.0,0.0,0.0,0.0,0.0,0.0,0.0,0.0,0.0,-2.8021,0.0,0.0,0.0,0.0,0.0,0.0,0.0,0.0,0.0,0.0,0.0,0.0,0.0,0.0,0.0,0.0,0.0,0.0,0.0,0.0,0.0,0.0,0.0,0.0,0.0,0.0,0.0,0.0,0.0,0.0,0.0,0.0,0.0,0.0,0.0,0.0,0.0,0.0,0.0,0.0,0.0,0.0,0.0,0.0,0.0,0.0,0.0,0.0,0.0,0.0,0.0,0.0,0.0,0.0,0.0,0.0,0.0,0.0,0.0,0.0,0.0,0.0,0.0,0.0,0.0,0.0,0.0,0.0,0.0,0.0,0.0,0.0,0.0,0.0,0.0,0.0,0.0,0.0,0.0,0.0,0.0,0.0,0.0,0.0,0.0,0.0,0.0,0.0,0.0,0.0,0.0,0.0,0.0,0.0,0.0,0.0,0.0,0.0,0.0,0.0,0.0,0.0,0.0,0.0,0.0,0.0,0.0,0.0,0.0,0.0,-3.0323,-3.0304,-3.0304,-2.9824,-2.8755,0.0,0.0,0.0,0.0,0.0,0.0,0.0,0.0,0.0,0.0,0.0,0.0,0.0,0.0,0.0,0.0,0.0,0.0,0.0,0.0,0.0,0.0,0.0,0.0,0.0,0.0,0.0,0.0,0.0,0.0,0.0,0.0,0.0,0.0,0.0,0.0,0.0,0.0,0.0,0.0,0.0,0.0,0.0,0.0,0.0,0.0,0.0,0.0,0.0,0.0,0.0,0.0,0.0,0.0,0.0,0.0,0.0,0.0,0.0,0.0,0.0,0.0,0.0,0.0,0.0,0.0,0.0,0.0,0.0,0.0,0.0,0.0,0.0,0.0,0.0,0.0,0.0,0.0,0.0,0.0,0.0,0.0,0.0,0.0,0.0,0.0,0.0,0.0,0.0,0.0,0.0,0.0,0.0,0.0,0.0,0.0,0.0,0.0,0.0,0.0,0.0,0.0,0.0,0.0,0.0,0.0,0.0,0.0,0.0,0.0,0.0,0.0,-3.1445,-3.0753,-2.9299,0.0,0.0,0.0,0.0,0.0,0.0,0.0,0.0,0.0,0.0,0.0,0.0,0.0,0.0,0.0,0.0,0.0,0.0,0.0,0.0,0.0,0.0,0.0,0.0,0.0,0.0,0.0,0.0,0.0,0.0,0.0,0.0,0.0,0.0,0.0,0.0,0.0,0.0,0.0,0.0,0.0,0.0,0.0,0.0,0.0,0.0,0.0,0.0,0.0,0.0,0.0,0.0,0.0,0.0,0.0,0.0,0.0,0.0,0.0,0.0,0.0,0.0,0.0,0.0,0.0,0.0,0.0,0.0,0.0,0.0,0.0,0.0,0.0,0.0,0.0,0.0,0.0,0.0,0.0,0.0,0.0,0.0,0.0,0.0,0.0,0.0,0.0,0.0,0.0,0.0,0.0,0.0,0.0,0.0,0.0,0.0,0.0,0.0,0.0,0.0,0.0,0.0,0.0,0.0,0.0,0.0,0.0,0.0,0.0,0.0,-3.2333,-3.4504,-3.4541,0.0,-2.9769,0.0,0.0,0.0,0.0,0.0,0.0,0.0,0.0,0.0,0.0,0.0,0.0,0.0,0.0,0.0,0.0,0.0,0.0,0.0,0.0,0.0,0.0,0.0,0.0,0.0,0.0,0.0,0.0,0.0,0.0,0.0,0.0,0.0,0.0,0.0,0.0,0.0,0.0,0.0,0.0,0.0,0.0,0.0,0.0,0.0,0.0,0.0,0.0,0.0,0.0,0.0,0.0,0.0,0.0,0.0,0.0,0.0,0.0,0.0,0.0,0.0,0.0,0.0,0.0,0.0,0.0,0.0,0.0,0.0,0.0,0.0,0.0,0.0,0.0,0.0,0.0,0.0,0.0,0.0,0.0,0.0,0.0,0.0,0.0,0.0,0.0,0.0,0.0,0.0,0.0,0.0,0.0,0.0,0.0,0.0,0.0,0.0,0.0,0.0,0.0,0.0,0.0,0.0,0.0,0.0,0.0,0.0,0.0,0.0,0.0,-3.3513,-3.4968,-3.3959,-3.2169,0.0,0.0,0.0,0.0,0.0,0.0,0.0,0.0,0.0,0.0,0.0,0.0,0.0,0.0,0.0,0.0,0.0,0.0,0.0,0.0,0.0,0.0,0.0,0.0,0.0,0.0,0.0,0.0,0.0,0.0,0.0,0.0,0.0,0.0,0.0,0.0,0.0,0.0,0.0,0.0,0.0,0.0,0.0,0.0,0.0,0.0,0.0,0.0,0.0,0.0,0.0,0.0,0.0,0.0,0.0,0.0,0.0,0.0,0.0,0.0,0.0,0.0,0.0,0.0,0.0,0.0,0.0,0.0,0.0,0.0,0.0,0.0,0.0,0.0,0.0,0.0,0.0,0.0,0.0,0.0,0.0,0.0,0.0,0.0,0.0,0.0,0.0,0.0,0.0,0.0,0.0,0.0,0.0,0.0,0.0,0.0,0.0,0.0,0.0,0.0,0.0,0.0,0.0,0.0,0.0,0.0,0.0,0.0,0.0,0.0,-3.3146,-3.4412,-3.5555,-3.4625,-3.2736,-2.9907,0.0,0.0,0.0,0.0,0.0,0.0,0.0,0.0,0.0,0.0,0.0,0.0,0.0,0.0,0.0,0.0,0.0,0.0,0.0,0.0,0.0,0.0,0.0,0.0,0.0,0.0,0.0,0.0,0.0,0.0,0.0,0.0,0.0,0.0,0.0,0.0,0.0,0.0,0.0,0.0,0.0,0.0,0.0,0.0,0.0,0.0,0.0,0.0,0.0,0.0,0.0,0.0,0.0,0.0,0.0,0.0,0.0,0.0,0.0,0.0,0.0,0.0,0.0,0.0,0.0,0.0,0.0,0.0,0.0,0.0,0.0,0.0,0.0,0.0,0.0,0.0,0.0,0.0,0.0,0.0,0.0,0.0,0.0,0.0,0.0,0.0,0.0,0.0,0.0,0.0,0.0,0.0,0.0,0.0,0.0,0.0,0.0,0.0,0.0,0.0,0.0,0.0,0.0,0.0,0.0,0.0,0.0,0.0,-3.5661,-3.4559,-3.4963,-3.7327,-3.8028,-3.5918,0.0,0.0,0.0,0.0,0.0,0.0,0.0,0.0,0.0,0.0,0.0,0.0,0.0,0.0,0.0,0.0,0.0,0.0,0.0,0.0,0.0,0.0,0.0,0.0,0.0,0.0,0.0,0.0,0.0,0.0,0.0,0.0,0.0,0.0,0.0,0.0,0.0,0.0,0.0,0.0,0.0,0.0,0.0,0.0,0.0,0.0,0.0,0.0,0.0,0.0,0.0,0.0,0.0,0.0,0.0,0.0,0.0,0.0,0.0,0.0,0.0,0.0,0.0,0.0,0.0,0.0,0.0,0.0,0.0,0.0,0.0,0.0,0.0,0.0,0.0,0.0,0.0,0.0,0.0,0.0,0.0,0.0,0.0,0.0,0.0,0.0,0.0,0.0,0.0,0.0,0.0,0.0,0.0,0.0,0.0,0.0,0.0,0.0,0.0,0.0,0.0,0.0,0.0,0.0,0.0,0.0,0.0,0.0,0.0,-3.3104,-3.4596,-3.6798,-3.9536,-3.58,-3.3132,0.0,0.0,0.0,0.0,0.0,0.0,0.0,0.0,0.0,0.0,0.0,0.0,0.0,0.0,0.0,0.0,0.0,0.0,0.0,0.0,0.0,0.0,0.0,0.0,0.0,0.0,0.0,0.0,0.0,0.0,0.0,0.0,0.0,0.0,0.0,0.0,0.0,0.0,0.0,0.0,0.0,0.0,0.0,0.0,0.0,0.0,0.0,0.0,0.0,0.0,0.0,0.0,0.0,0.0,0.0,0.0,0.0,0.0,0.0,0.0,0.0,0.0,0.0,0.0,0.0,0.0,0.0,0.0,0.0,0.0,0.0,0.0,0.0,0.0,0.0,0.0,0.0,0.0,0.0,0.0,0.0,0.0,0.0,0.0,0.0,0.0,0.0,0.0,0.0,0.0,0.0,0.0,0.0,0.0,0.0,0.0,0.0,0.0,0.0,0.0,0.0,0.0,0.0,0.0,0.0,0.0,0.0,0.0,0.0,-3.3361,0.0,-3.8542,-3.9664,-3.5021,-3.2082,0.0,0.0,0.0,0.0,0.0,0.0,0.0,0.0,0.0,0.0,0.0,0.0,0.0,0.0,0.0,0.0,0.0,0.0,0.0,0.0,0.0,0.0,0.0,0.0,0.0,0.0,0.0,0.0,0.0,0.0,0.0,0.0,0.0,0.0,0.0,0.0,0.0,0.0,0.0,0.0,0.0,0.0,0.0,0.0,0.0,0.0,0.0,0.0,0.0,0.0,0.0,0.0,0.0,0.0,0.0,0.0,0.0,0.0,0.0,0.0,0.0,0.0,0.0,0.0,0.0,0.0,0.0,0.0,0.0,0.0,0.0,0.0,0.0,0.0,0.0,0.0,0.0,0.0,0.0,0.0,0.0,0.0,0.0,0.0,0.0,0.0,0.0,0.0,0.0,0.0,0.0,0.0,0.0,0.0,0.0,0.0,0.0,0.0,0.0,0.0,0.0,0.0,0.0,0.0,0.0,0.0,0.0,0.0,-3.2632,-3.7254,-3.968,-3.9848,-3.7676,-3.631,-3.3322,0.0,0.0,0.0,0.0,0.0,0.0,0.0,0.0,0.0,0.0,0.0,0.0,0.0,0.0,0.0,0.0,0.0,0.0,0.0,0.0,0.0,0.0,0.0,0.0,0.0,0.0,0.0,0.0,0.0,0.0,0.0,0.0,0.0,0.0,0.0,0.0,0.0,0.0,0.0,0.0,0.0,0.0,0.0,0.0,0.0,0.0,0.0,0.0,0.0,0.0,0.0,0.0,0.0,0.0,0.0,0.0,0.0,0.0,0.0,0.0,0.0,0.0,0.0,0.0,0.0,0.0,0.0,0.0,0.0,0.0,0.0,0.0,0.0,0.0,0.0,0.0,0.0,0.0,0.0,0.0,0.0,0.0,0.0,0.0,0.0,0.0,0.0,0.0,0.0,0.0,0.0,0.0,0.0,0.0,0.0,0.0,0.0,0.0,0.0,0.0,0.0,0.0,0.0,0.0,0.0,0.0,0.0,0.0,0.0,-3.6652,-3.8345,-3.9703,-4.0484,-3.6152,-3.3243,0.0,0.0,0.0,0.0,0.0,0.0,0.0,0.0,0.0,0.0,0.0,0.0,0.0,0.0,0.0,0.0,0.0,0.0,0.0,0.0,0.0,0.0,0.0,0.0,0.0,0.0,0.0,0.0,0.0,0.0,0.0,0.0,0.0,0.0,0.0,0.0,0.0,0.0,0.0,0.0,0.0,0.0,0.0,0.0,0.0,0.0,0.0,0.0,0.0,0.0,0.0,0.0,0.0,0.0,0.0,0.0,0.0,0.0,0.0,0.0,0.0,0.0,0.0,0.0,0.0,0.0,0.0,0.0,0.0,0.0,0.0,0.0,0.0,0.0,0.0,0.0,0.0,0.0,0.0,0.0,0.0,0.0,0.0,0.0,0.0,0.0,0.0,0.0,0.0,0.0,0.0,0.0,0.0,0.0,0.0,0.0,0.0,0.0,0.0,0.0,0.0,0.0,0.0,0.0,0.0,0.0,0.0,0.0,0.0,-3.8031,-3.971,-4.1011,-4.1796,-3.6769,-3.3519,-3.2306,0.0,0.0,0.0,0.0,0.0,0.0,0.0,0.0,0.0,0.0,0.0,0.0,0.0,0.0,0.0,0.0,0.0,0.0,0.0,0.0,0.0,0.0,0.0,0.0,0.0,0.0,0.0,0.0,0.0,0.0,0.0,0.0,0.0,0.0,0.0,0.0,0.0,0.0,0.0,0.0,0.0,0.0,0.0,0.0,0.0,0.0,0.0,0.0,0.0,0.0,0.0,0.0,0.0,0.0,0.0,0.0,0.0,0.0,0.0,0.0,0.0,0.0,0.0,0.0,0.0,0.0,0.0,0.0,0.0,0.0,0.0,0.0,0.0,0.0,0.0,0.0,0.0,0.0,0.0,0.0,0.0,0.0,0.0,0.0,0.0,0.0,0.0,0.0,0.0,0.0,0.0,0.0,0.0,0.0,0.0,0.0,0.0,0.0,0.0,0.0,0.0,0.0,0.0,0.0,0.0,0.0,0.0,0.0,-4.0901,-4.3251,-4.3537,-4.1637,-3.8237,-3.4376,0.0,0.0,0.0,0.0,0.0,0.0,0.0,0.0,0.0,0.0,0.0,0.0,0.0,0.0,0.0,0.0,0.0,0.0,0.0,0.0,0.0,0.0,0.0,0.0,0.0,0.0,0.0,0.0,0.0,0.0,0.0,0.0,0.0,0.0,0.0,0.0,0.0,0.0,0.0,0.0,0.0,0.0,0.0,0.0,0.0,0.0,0.0,0.0,0.0,0.0,0.0,0.0,0.0,0.0,0.0,0.0,0.0,0.0,0.0,0.0,0.0,0.0,0.0,0.0,0.0,0.0,0.0,0.0,0.0,0.0,0.0,0.0,0.0,0.0,0.0,0.0,0.0,0.0,0.0,0.0,0.0,0.0,0.0,0.0,0.0,0.0,0.0,0.0,0.0,0.0,0.0,0.0,0.0,0.0,0.0,0.0,0.0,0.0,0.0,0.0,0.0,0.0,0.0,0.0,0.0,0.0,0.0,0.0,0.0,-4.2304,-4.4306,-4.5125,-4.4638,-4.0775,-3.7384,0.0,0.0,0.0,0.0,0.0,0.0,0.0,0.0,0.0,0.0,0.0,0.0,0.0,0.0,0.0,0.0,0.0,0.0,0.0,0.0,0.0,0.0,0.0,0.0,0.0,0.0,0.0,0.0,0.0,0.0,0.0,0.0,0.0,0.0,0.0,0.0,0.0,0.0,0.0,0.0,0.0,0.0,0.0,0.0,0.0,0.0,0.0,0.0,0.0,0.0,0.0,0.0,0.0,0.0,0.0,0.0,0.0,0.0,0.0,0.0,0.0,0.0,0.0,0.0,0.0,0.0,0.0,0.0,0.0,0.0,0.0,0.0,0.0,0.0,0.0,0.0,0.0,0.0,0.0,0.0,0.0,0.0,0.0,0.0,0.0,0.0,0.0,0.0,0.0,0.0,0.0,0.0,0.0,0.0,0.0,0.0,0.0,0.0,0.0,0.0,0.0,0.0,0.0,0.0,0.0,0.0,0.0,0.0,-4.0478,-4.2726,-4.4805,-4.5805,-4.5646,-4.2324,-3.8964,0.0,0.0,0.0,0.0,0.0,0.0,0.0,0.0,0.0,0.0,0.0,0.0,0.0,0.0,0.0,0.0,0.0,0.0,0.0,0.0,0.0,0.0,0.0,0.0,0.0,0.0,0.0,0.0,0.0,0.0,0.0,0.0,0.0,0.0,0.0,0.0,0.0,0.0,0.0,0.0,0.0,0.0,0.0,0.0,0.0,0.0,0.0,0.0,0.0,0.0,0.0,0.0,0.0,0.0,0.0,0.0,0.0,0.0,0.0,0.0,0.0,0.0,0.0,0.0,0.0,0.0,0.0,0.0,0.0,0.0,0.0,0.0,0.0,0.0,0.0,0.0,0.0,0.0,0.0,0.0,0.0,0.0,0.0,0.0,0.0,0.0,0.0,0.0,0.0,0.0,0.0,0.0,0.0,0.0,0.0,0.0,0.0,0.0,0.0,0.0,0.0,0.0,0.0,0.0,0.0,0.0,0.0,0.0,-4.0354,-4.2577,-4.4833,-4.5792,-4.526,-4.3138,-3.9811,0.0,0.0,0.0,0.0,0.0,0.0,0.0,0.0,0.0,0.0,0.0,0.0,0.0,0.0,0.0,0.0,0.0,0.0,0.0,0.0,0.0,0.0,0.0,0.0,0.0,0.0,0.0,0.0,0.0,0.0,0.0,0.0,0.0,0.0,0.0,0.0,0.0,0.0,0.0,0.0,0.0,0.0,0.0,0.0,0.0,0.0,0.0,0.0,0.0,0.0,0.0,0.0,0.0,0.0,0.0,0.0,0.0,0.0,0.0,0.0,0.0,0.0,0.0,0.0,0.0,0.0,0.0,0.0,0.0,0.0,0.0,0.0,0.0,0.0,0.0,0.0,0.0,0.0,0.0,0.0,0.0,0.0,0.0,0.0,0.0,0.0,0.0,0.0,0.0,0.0,0.0,0.0,0.0,0.0,0.0,0.0,0.0,0.0,0.0,0.0,0.0,0.0,0.0,0.0,0.0,0.0,0.0,0.0,-4.0894,-4.2577,-4.4483,-4.5407,-4.5285,-4.3155,-4.0748,0.0,0.0,0.0,0.0,0.0,0.0,0.0,0.0,0.0,0.0,0.0,0.0,0.0,0.0,0.0,0.0,0.0,0.0,0.0,0.0,0.0,0.0,0.0,0.0,0.0,0.0,0.0,0.0,0.0,0.0,0.0,0.0,0.0,0.0,0.0,0.0,0.0,0.0,0.0,0.0,0.0,0.0,0.0,0.0,0.0,0.0,0.0,0.0,-3.3102,0.0,0.0,0.0,0.0,0.0,0.0,0.0,0.0,0.0,0.0,0.0,0.0,0.0,0.0,0.0,0.0,0.0,0.0,0.0,0.0,0.0,0.0,0.0,0.0,0.0,0.0,0.0,0.0,0.0,0.0,0.0,0.0,0.0,0.0,0.0,0.0,0.0,0.0,0.0,0.0,0.0,0.0,0.0,0.0,0.0,0.0,0.0,0.0,0.0,0.0,0.0,0.0,0.0,0.0,0.0,0.0,0.0,0.0,0.0,-4.094,-4.2423,-4.4094,-4.4954,-4.4903,-4.345,-4.1495,0.0,0.0,0.0,0.0,0.0,0.0,0.0,0.0,0.0,0.0,0.0,0.0,0.0,0.0,0.0,0.0,0.0,0.0,0.0,0.0,0.0,0.0,0.0,0.0,0.0,0.0,0.0,0.0,0.0,0.0,0.0,0.0,0.0,0.0,0.0,0.0,0.0,0.0,0.0,0.0,0.0,0.0,0.0,0.0,0.0,0.0,0.0,0.0,0.0,0.0,0.0,0.0,0.0,0.0,0.0,0.0,0.0,0.0,0.0,0.0,0.0,0.0,0.0,0.0,0.0,0.0,0.0,0.0,0.0,0.0,0.0,0.0,0.0,0.0,0.0,0.0,0.0,0.0,0.0,0.0,0.0,0.0,0.0,0.0,0.0,0.0,0.0,0.0,0.0,0.0,0.0,0.0,0.0,0.0,0.0,0.0,0.0,0.0,0.0,0.0,0.0,0.0,0.0,0.0,0.0,0.0,0.0,-3.802,-4.0705,-4.2269,-4.3802,-4.4598,-4.4598,-4.3944,-4.2202,-3.9276,0.0,0.0,0.0,0.0,0.0,0.0,0.0,0.0,0.0,0.0,0.0,0.0,0.0,0.0,0.0,0.0,0.0,0.0,0.0,0.0,0.0,0.0,0.0,0.0,0.0,0.0,0.0,0.0,0.0,0.0,0.0,0.0,0.0,0.0,0.0,0.0,0.0,0.0,-3.061,-3.3554,0.0,0.0,0.0,0.0,0.0,0.0,0.0,0.0,-3.4827,0.0,0.0,0.0,0.0,0.0,0.0,0.0,0.0,0.0,0.0,0.0,0.0,0.0,0.0,0.0,0.0,0.0,0.0,0.0,0.0,0.0,0.0,0.0,0.0,0.0,0.0,0.0,0.0,0.0,0.0,0.0,0.0,0.0,0.0,0.0,0.0,0.0,0.0,0.0,0.0,0.0,0.0,0.0,0.0,0.0,0.0,0.0,0.0,0.0,0.0,0.0,0.0,0.0,0.0,0.0,0.0,-3.6277,-3.8224,-4.0214,-4.2279,-4.3792,-4.4598,-4.4598,-4.4479,-4.299,-4.0062,0.0,0.0,0.0,0.0,0.0,0.0,0.0,0.0,0.0,0.0,0.0,0.0,0.0,0.0,0.0,0.0,0.0,0.0,0.0,0.0,0.0,0.0,0.0,0.0,0.0,0.0,0.0,0.0,0.0,0.0,0.0,0.0,0.0,0.0,0.0,0.0,0.0,0.0,0.0,-3.4761,-3.5797,0.0,0.0,0.0,0.0,0.0,0.0,0.0,0.0,-3.6586,0.0,0.0,0.0,0.0,0.0,0.0,0.0,0.0,0.0,0.0,0.0,0.0,0.0,0.0,0.0,0.0,0.0,0.0,0.0,0.0,0.0,0.0,0.0,0.0,0.0,0.0,0.0,0.0,0.0,0.0,0.0,0.0,0.0,0.0,0.0,0.0,0.0,0.0,0.0,0.0,0.0,0.0,0.0,0.0,0.0,0.0,0.0,0.0,0.0,0.0,0.0,0.0,0.0,0.0,0.0,-3.5577,-3.8971,-4.1221,-4.2303,-4.3792,-4.4598,-4.4564,-4.3481,-4.1842,0.0,0.0,0.0,0.0,0.0,0.0,0.0,0.0,0.0,0.0,0.0,0.0,0.0,0.0,0.0,0.0,0.0,0.0,0.0,0.0,0.0,0.0,0.0,0.0,0.0,0.0,0.0,0.0,0.0,0.0,0.0,0.0,0.0,0.0,0.0,0.0,0.0,0.0,0.0,0.0,-3.5588,-3.6386,-3.708,0.0,0.0,0.0,0.0,0.0,0.0,-3.5908,-3.6609,0.0,0.0,0.0,0.0,0.0,0.0,0.0,0.0,0.0,0.0,0.0,0.0,0.0,0.0,0.0,0.0,0.0,0.0,0.0,0.0,0.0,0.0,0.0,0.0,0.0,0.0,0.0,0.0,0.0,0.0,0.0,0.0,0.0,0.0,0.0,0.0,0.0,0.0,0.0,0.0,0.0,0.0,0.0,0.0,0.0,0.0,0.0,0.0,0.0,0.0,0.0,0.0,0.0,0.0,0.0,-3.4573,-3.9208,-4.1847,-4.232,-4.3819,-4.4598,-4.4564,-4.2658,-4.0834,0.0,0.0,0.0,0.0,0.0,0.0,0.0,0.0,0.0,0.0,0.0,0.0,0.0,0.0,0.0,0.0,0.0,0.0,0.0,0.0,0.0,0.0,0.0,0.0,0.0,0.0,0.0,0.0,0.0,0.0,0.0,0.0,0.0,0.0,0.0,0.0,0.0,0.0,0.0,0.0,0.0,-3.7117,-3.7379,-3.7295,0.0,0.0,0.0,0.0,-3.591,-3.6566,0.0,0.0,0.0,0.0,0.0,0.0,0.0,0.0,0.0,0.0,0.0,0.0,0.0,0.0,0.0,0.0,0.0,0.0,0.0,0.0,0.0,0.0,0.0,0.0,0.0,0.0,0.0,0.0,0.0,0.0,0.0,0.0,0.0,0.0,0.0,0.0,0.0,0.0,0.0,0.0,0.0,0.0,0.0,0.0,0.0,0.0,0.0,0.0,0.0,0.0,0.0,0.0,0.0,0.0,0.0,0.0,-3.4489,-3.7702,-4.0324,-4.2252,-4.3802,-4.4598,-4.4581,-4.3656,-4.1651,0.0,0.0,0.0,0.0,0.0,0.0,0.0,0.0,0.0,0.0,0.0,0.0,0.0,0.0,0.0,0.0,0.0,0.0,0.0,0.0,0.0,0.0,0.0,0.0,0.0,0.0,0.0,0.0,0.0,0.0,0.0,0.0,0.0,0.0,0.0,0.0,0.0,0.0,0.0,0.0,0.0,-3.7861,-3.6567,-3.8087,-3.884,0.0,0.0,-3.8714,-3.7467,-3.8414,0.0,0.0,0.0,0.0,0.0,0.0,0.0,0.0,0.0,0.0,0.0,0.0,0.0,0.0,0.0,0.0,0.0,0.0,0.0,0.0,0.0,0.0,0.0,0.0,0.0,0.0,0.0,0.0,0.0,0.0,0.0,0.0,0.0,0.0,0.0,0.0,0.0,0.0,0.0,0.0,0.0,0.0,0.0,0.0,0.0,0.0,0.0,0.0,0.0,0.0,0.0,0.0,0.0,0.0,0.0,-3.2391,-3.4523,-3.7895,-4.0476,-4.2236,-4.3352,-4.413,-4.4598,-4.2618,-4.0385,0.0,0.0,0.0,0.0,0.0,0.0,0.0,0.0,0.0,0.0,0.0,0.0,0.0,0.0,0.0,0.0,0.0,0.0,0.0,0.0,0.0,0.0,0.0,0.0,0.0,0.0,0.0,0.0,0.0,0.0,0.0,0.0,0.0,0.0,0.0,0.0,0.0,0.0,0.0,0.0,0.0,0.0,-3.8559,-3.8838,0.0,0.0,0.0,-3.8208,-3.8031,0.0,0.0,0.0,0.0,0.0,0.0,0.0,0.0,0.0,0.0,0.0,0.0,0.0,0.0,0.0,0.0,0.0,0.0,0.0,0.0,0.0,0.0,0.0,0.0,0.0,0.0,0.0,0.0,0.0,0.0,0.0,0.0,0.0,0.0,0.0,0.0,0.0,0.0,0.0,0.0,0.0,0.0,0.0,0.0,0.0,0.0,0.0,0.0,0.0,0.0,0.0,0.0,0.0,0.0,0.0,0.0,0.0,-3.4506,-3.8031,-4.0637,-4.2236,-4.3031,-4.368,-4.4231,-4.1774,0.0,0.0,0.0,0.0,0.0,0.0,0.0,0.0,0.0,0.0,0.0,0.0,0.0,0.0,0.0,0.0,0.0,0.0,0.0,0.0,0.0,0.0,0.0,0.0,0.0,0.0,0.0,-2.1674,0.0,0.0,0.0,0.0,0.0,0.0,0.0,0.0,0.0,0.0,0.0,0.0,0.0,0.0,-3.7042,-3.9199,-3.8881,-3.861,0.0,0.0,-3.7665,-3.8072,-3.687,-3.5644,0.0,0.0,0.0,0.0,0.0,0.0,0.0,0.0,0.0,0.0,0.0,0.0,0.0,0.0,0.0,0.0,0.0,0.0,0.0,0.0,0.0,0.0,0.0,0.0,0.0,0.0,0.0,0.0,0.0,0.0,0.0,0.0,0.0,0.0,0.0,0.0,0.0,0.0,0.0,0.0,0.0,0.0,0.0,0.0,0.0,0.0,0.0,0.0,0.0,0.0,0.0,0.0,0.0,0.0,0.0,-3.4472,-3.7499,-4.0104,-4.2202,-4.3031,-4.3426,-4.3443,-4.2055,-3.9478,0.0,0.0,0.0,0.0,0.0,0.0,0.0,0.0,0.0,0.0,0.0,0.0,0.0,0.0,0.0,0.0,0.0,0.0,0.0,0.0,0.0,0.0,0.0,0.0,0.0,0.0,0.0,0.0,0.0,0.0,0.0,0.0,0.0,0.0,0.0,0.0,0.0,0.0,0.0,0.0,0.0,-3.6397,-3.6498,-3.7632,-3.8501,0.0,0.0,-3.8201,-3.7567,-3.7404,-3.6428,-3.3824,0.0,0.0,0.0,0.0,0.0,0.0,0.0,0.0,0.0,0.0,0.0,0.0,0.0,0.0,0.0,0.0,0.0,0.0,0.0,0.0,0.0,0.0,0.0,0.0,0.0,0.0,0.0,0.0,0.0,0.0,0.0,0.0,0.0,0.0,0.0,0.0,0.0,0.0,0.0,0.0,0.0,0.0,0.0,0.0,0.0,0.0,0.0,0.0,0.0,0.0,0.0,0.0,0.0,-3.2002,-3.4472,-3.7009,-3.9394,-4.1542,-4.2354,-4.2739,-4.2767,-4.1898,-3.9691,0.0,0.0,0.0,0.0,0.0,0.0,0.0,0.0,0.0,0.0,0.0,0.0,0.0,0.0,0.0,0.0,0.0,0.0,0.0,0.0,0.0,0.0,0.0,0.0,0.0,0.0,0.0,0.0,-2.5914,-2.5929,-2.6183,0.0,0.0,0.0,0.0,0.0,0.0,0.0,0.0,0.0,0.0,-3.6876,-3.8543,-3.8607,0.0,0.0,-3.7981,-3.7266,-3.739,-3.6044,-3.4653,-3.3568,-3.2006,0.0,0.0,0.0,0.0,0.0,0.0,0.0,0.0,0.0,0.0,0.0,0.0,0.0,0.0,0.0,0.0,0.0,0.0,0.0,0.0,0.0,0.0,0.0,0.0,0.0,0.0,0.0,0.0,0.0,0.0,0.0,0.0,0.0,0.0,0.0,0.0,0.0,0.0,0.0,0.0,0.0,0.0,0.0,0.0,0.0,0.0,0.0,0.0,0.0,0.0,0.0,0.0,-3.207,-3.4472,-3.6755,-3.8946,-4.117,-4.1519,-4.1709,-4.1756,-4.098,-3.9161,0.0,0.0,0.0,0.0,0.0,0.0,0.0,0.0,0.0,0.0,0.0,0.0,0.0,0.0,0.0,0.0,0.0,0.0,0.0,0.0,0.0,0.0,0.0,0.0,0.0,0.0,0.0,0.0,-2.6991,-2.6512,-2.6333,0.0,0.0,0.0,0.0,0.0,0.0,0.0,0.0,0.0,0.0,-3.6914,-3.9422,-3.8829,-3.8266,-3.8741,-3.7598,-3.6726,-3.6835,-3.5299,-3.3963,-3.3559,0.0,0.0,0.0,0.0,0.0,0.0,0.0,0.0,0.0,0.0,0.0,0.0,0.0,0.0,0.0,0.0,0.0,0.0,0.0,0.0,0.0,0.0,0.0,0.0,0.0,0.0,0.0,0.0,0.0,0.0,-3.1356,0.0,0.0,0.0,0.0,0.0,0.0,0.0,0.0,0.0,0.0,0.0,0.0,0.0,0.0,0.0,0.0,0.0,0.0,0.0,0.0,0.0,0.0,-3.1596,-3.4489,-3.6772,-3.8946,-4.1076,-4.0625,-4.037,-4.0304,-3.9205,-3.7599,-3.5454,0.0,0.0,0.0,0.0,0.0,0.0,0.0,0.0,0.0,0.0,0.0,0.0,0.0,0.0,0.0,0.0,0.0,0.0,0.0,0.0,0.0,0.0,0.0,0.0,0.0,0.0,-2.7525,-2.7031,-2.6393,0.0,0.0,0.0,0.0,0.0,0.0,0.0,0.0,0.0,0.0,-3.4668,-3.6241,-3.8177,-3.7858,-3.7443,-3.7443,-3.7379,-3.6944,-3.5746,-3.5459,-3.5026,0.0,0.0,0.0,0.0,0.0,0.0,0.0,0.0,0.0,0.0,0.0,0.0,0.0,0.0,0.0,0.0,0.0,0.0,0.0,0.0,0.0,0.0,0.0,0.0,0.0,0.0,0.0,-3.4344,-3.4527,0.0,0.0,0.0,0.0,0.0,0.0,0.0,0.0,0.0,0.0,0.0,-3.4745,-3.4843,0.0,0.0,0.0,0.0,0.0,0.0,0.0,0.0,0.0,0.0,0.0,0.0,-3.2544,-3.5898,-3.7246,-3.8546,-3.983,-4.0153,-3.9888,-3.9071,-3.8685,-3.7079,-3.4014,0.0,0.0,0.0,0.0,0.0,0.0,0.0,0.0,0.0,0.0,0.0,0.0,0.0,0.0,0.0,0.0,0.0,0.0,0.0,0.0,0.0,0.0,0.0,0.0,0.0,-2.7345,0.0,0.0,0.0,0.0,0.0,0.0,0.0,0.0,0.0,0.0,0.0,-3.2826,-3.4592,-3.5953,-3.7165,-3.8242,-3.7479,-3.6791,0.0,0.0,0.0,0.0,0.0,0.0,0.0,0.0,0.0,0.0,0.0,0.0,0.0,0.0,-3.2958,-3.0883,-2.9954,-2.9576,-2.9729,0.0,0.0,0.0,0.0,0.0,0.0,0.0,0.0,0.0,0.0,0.0,0.0,0.0,0.0,-3.6619,0.0,-3.5958,0.0,0.0,0.0,0.0,0.0,0.0,0.0,0.0,-3.7622,-3.8257,-3.7477,-3.7668,-3.7295,0.0,-3.569,-3.3829,0.0,0.0,0.0,0.0,0.0,0.0,0.0,0.0,-3.358,-3.6677,-3.7562,-3.8371,-3.9156,-3.927,-3.8904,-3.8081,-3.7899,-3.6626,-3.4097,-3.2747,-3.1573,0.0,0.0,0.0,0.0,0.0,0.0,0.0,0.0,0.0,0.0,0.0,0.0,0.0,0.0,0.0,0.0,0.0,0.0,0.0,0.0,0.0,0.0,0.0,-2.7495,0.0,0.0,0.0,0.0,0.0,0.0,0.0,0.0,0.0,-3.0298,-3.2362,-3.4502,-3.6267,-3.703,-3.7659,-3.8302,0.0,0.0,0.0,0.0,0.0,0.0,0.0,-3.5415,-3.522,-3.4622,-3.4082,-3.3811,-3.4273,-3.4614,-3.4216,0.0,0.0,-3.2377,-3.1679,-3.1412,-3.156,-3.178,-3.1923,-3.1923,-3.2082,-3.2108,0.0,0.0,0.0,0.0,0.0,0.0,0.0,0.0,-4.146,-4.1077,0.0,-3.9389,0.0,0.0,0.0,0.0,0.0,-3.7077,0.0,0.0,-4.0224,-4.0842,-3.8663,-3.8579,-3.8328,-3.8007,-3.8599,-3.8142,-3.6643,-3.3169,0.0,0.0,0.0,0.0,0.0,0.0,-3.4573,-3.684,-3.7678,-3.846,-3.9092,-3.8026,-3.7387,-3.7358,-3.6816,-3.6168,-3.5507,-3.5232,-3.3949,-3.1338,-2.9061,0.0,0.0,0.0,0.0,0.0,0.0,0.0,0.0,0.0,0.0,0.0,0.0,0.0,0.0,0.0,0.0,0.0,0.0,0.0,0.0,-2.6811,0.0,0.0,0.0,0.0,0.0,0.0,0.0,0.0,0.0,0.0,-3.3574,-3.4219,-3.5537,-3.8033,0.0,0.0,0.0,0.0,-3.8123,-3.7479,-3.8497,-3.882,-3.7584,-3.7325,-3.7135,-3.6552,0.0,0.0,-3.4369,-3.4735,-3.494,-3.4156,-3.442,-3.4716,-3.4795,-3.4224,-3.3918,-3.3918,-3.3759,-3.3703,-3.3747,-3.3893,-3.4084,-4.4196,0.0,0.0,0.0,0.0,-4.1334,-4.2196,-4.3975,-4.3149,-4.2818,-4.2708,-4.1113,0.0,0.0,0.0,0.0,0.0,0.0,-3.8763,-3.8345,-3.943,-3.999,-4.014,-3.9802,-3.9576,-3.9469,-3.914,-3.8768,-3.8294,-3.6755,-3.4624,-3.2039,0.0,0.0,0.0,0.0,-3.5577,-3.8169,-3.8195,-3.8259,-3.8557,-3.7796,-3.7194,-3.6785,-3.6585,-3.6091,-3.5202,-3.5171,-3.4273,-3.2207,-3.0277,0.0,0.0,0.0,0.0,0.0,0.0,0.0,0.0,0.0,0.0,0.0,0.0,0.0,0.0,0.0,0.0,0.0,0.0,0.0,-2.7031,-2.7375,-2.7735,0.0,0.0,0.0,0.0,0.0,0.0,0.0,0.0,0.0,-3.6085,-3.6447,-3.7015,0.0,0.0,-3.8182,-3.8362,-3.7988,-3.7629,-3.7434,-3.7734,0.0,0.0,-3.6841,-3.6503,-3.6291,-3.5725,-3.5154,-3.4783,-3.485,-3.489,-3.4534,-3.4599,-3.4664,-3.4534,-3.4403,-3.4339,-3.4453,-3.4339,-3.4205,-3.422,-3.4331,-3.437,-4.625,-4.4176,-4.3534,-4.3442,-4.3681,-4.3222,-4.403,-4.5608,-4.5149,-4.5112,-4.5296,-4.3683,-4.215,-4.0698,-3.9331,0.0,0.0,0.0,-4.0583,-3.9772,-4.0353,-4.0588,-4.0507,-4.0246,-4.0113,-4.0079,-3.9673,-3.9453,-3.9453,-3.8988,-3.733,-3.4607,0.0,0.0,-3.4776,-3.525,-3.6535,-3.8506,-3.8103,-3.7873,-3.7908,-3.7342,-3.6861,-3.6523,-3.6492,-3.6214,-3.5614,-3.5553,-3.4774,-3.3156,-3.117,-2.9552,0.0,0.0,0.0,0.0,0.0,0.0,0.0,0.0,0.0,0.0,0.0,-2.7151,0.0,0.0,0.0,0.0,-2.6841,-2.7794,-2.8678,-2.8981,0.0,0.0,0.0,0.0,0.0,0.0,0.0,-3.5117,-3.5615,-3.6309,-3.7506,-3.7893,-3.8277,-3.8751,-3.8501,-3.8301,-3.8286,0.0,-3.755,-3.755,-3.7758,-3.7901,-3.7795,-3.702,-3.6314,-3.5781,-3.5348,-3.503,-3.485,-3.4802,-3.4783,-3.4616,-3.4597,-3.4563,-3.4414,-3.438,-3.4414,-3.4563,-3.4481,-3.4486,-3.4733,-3.4588,-3.4472,-4.7865,-4.7058,-4.5608,-4.5388,-4.5993,-4.6049,-4.6507,-4.7186,-4.7186,-4.7627,-4.8158,-4.6616,-4.5369,-4.4344,-4.2304,0.0,-4.1215,-4.3014,-4.2724,-4.0893,-4.2349,-4.2029,-4.0214,-4.0197,-4.0163,-4.0113,-4.0113,-4.0113,-4.0096,-4.0096,-3.9419,-3.8091,-3.7422,-3.6998,-3.6884,-3.7019,-3.7441,-3.8179,-3.766,-3.7387,-3.7328,-3.6785,-3.6492,-3.6492,-3.6445,-3.6384,-3.6291,-3.595,-3.5123,-3.3743,-3.1667,-3.0178,-2.9412,0.0,0.0,0.0,0.0,0.0,0.0,0.0,0.0,0.0,0.0,0.0,0.0,0.0,0.0,0.0,-2.8053,0.0,-3.0477,-3.1122,0.0,0.0,0.0,-3.2273,-3.3587,-3.4321,-3.5205,-3.641,0.0,0.0,-3.8198,-3.8661,-3.9053,-3.9265,-3.8635,-3.8163,-3.8127,-3.802,-3.7898,-3.7898,-3.8384,-3.8767,-3.862,-3.7611,-3.6389,-3.5163,-3.4868,-3.4865,-3.4785,-3.4665,-3.4583,-3.468,-3.454,-3.4452,-3.4472,-3.4461,-3.4423,-3.4344,-3.4457,-3.4656,-3.5152,-3.4882,-3.4656,-4.8196,-4.7957,-4.7609,-4.7186,-4.6874,-4.7461,-4.7847,-4.8012,-4.8031,-4.8122,-4.8232,-4.7165,-4.6171,-4.5177,-4.4145,-4.3482,-4.3117,-4.3193,-4.2746,-4.1962,-4.2311,-4.1927,-4.0967,-4.0933,-4.0629,-4.013,-4.0113,-4.0113,-4.0113,-4.0113,-3.9926,-3.9588,-3.9419,-3.8759,-3.7679,-3.777,-3.8195,-3.8941,-3.7917,-3.7194,-3.6723,-3.6569,-3.6492,-3.6492,-3.5984,-3.5385,-3.4638,-3.403,-3.2971,-3.1428,-3.079,-2.9759,-2.8154,-2.6851,0.0,0.0,0.0,0.0,0.0,0.0,0.0,0.0,0.0,-2.8199,-2.6019,0.0,-2.922,0.0,-3.0073,-3.0943,-3.1241,-3.1406,0.0,0.0,-3.3784,-3.425,-3.5429,-3.6225,-3.6811,-3.7001,-3.715,-3.7726,-3.893,-3.8436,-3.8023,-3.8144,-3.8451,-3.8634,-3.8634,-3.8583,-3.8561,-3.8561,-3.8627,-3.876,-3.845,-3.7505,-3.6126,-3.4767,-3.4616,-3.4844,-3.5156,-3.4659,-3.459,-3.5509,-3.5275,-3.4923,-3.483,-3.4864,-3.4568,-3.4113,-3.4533,-3.5125,-3.5116,-3.511,-3.4851,-4.8324,-4.8324,-4.8324,-4.8049,-4.7663,-4.8104,-4.8324,-4.8324,-4.8324,-4.8267,-4.821,-4.767,-4.7055,-4.6438,-4.5842,-4.5301,-4.4786,-4.4272,-4.3597,-4.2777,-4.2439,-4.1897,-4.1204,-4.0865,-4.0493,-4.0113,-4.0113,-4.0113,-4.0113,-4.0113,-4.0113,-4.0113,-4.0113,-3.9706,-3.8896,-3.842,-3.8264,-3.8395,-3.749,-3.6831,-3.6523,-3.6492,-3.6338,-3.6076,-3.5676,-3.5063,-3.412,-3.3391,-3.2547,-3.1578,-3.0849,-3.0163,-2.937,-2.8173,-2.7156,0.0,0.0,0.0,0.0,0.0,0.0,0.0,0.0,0.0,0.0,0.0,-3.0567,-3.0866,-3.1824,-3.2647,-3.3215,-3.3529,-3.4135,-3.5163,-3.5263,-3.5473,-3.6012,-3.6807,-3.725,-3.7075,-3.7302,-3.7796,-3.8605,-3.772,-3.7155,-3.7486,-3.7434,-3.7548,-3.8032,-3.8323,-3.8523,-3.8523,-3.8211,-3.7667,-3.6982,-3.6042,-3.5006,-3.4016,-3.3893,-3.4126,-3.4387,-3.4354,-3.4517,-3.5233,-3.5045,-3.4733,-3.4733,-3.4433,-3.4091,-3.4071,-3.4102,-3.4335,-3.4483,-3.4691,-3.4427,-4.8324,-4.8324,-4.8324,-4.8324,-4.8324,-4.8324,-4.8324,-4.8324,-4.8324,-4.8267,-4.8168,-4.8004,-4.7801,-4.7554,-4.7039,-4.6501,-4.5975,-4.5433,-4.4622,-4.3538,-4.2794,-4.2049,-4.1322,-4.0595,-4.0197,-4.0113,-4.0113,-4.0113,-4.0113,-4.0113,-4.0113,-4.0113,-4.0037,-3.9944,-3.9825,-3.8767,-3.7895,-3.7298,-3.6754,-3.6492,-3.6492,-3.6492,-3.6168,-3.5492,-3.5369,-3.4818,-3.3812,-3.3087,-3.2562,-3.2251,-3.1131,-3.0746,-3.1182,-2.9654,-2.8682,0.0,-2.7435,0.0,0.0,0.0,0.0,0.0,0.0,0.0,0.0,-3.1331,-3.2108,-3.2706,-3.3258,-3.4092,-3.5255,-3.58,-3.607,-3.6063,-3.6079,-3.5998,-3.5919,-3.6636,-3.7037,-3.6785,-3.7424,-3.7834,-3.772,-3.6805,-3.636,-3.656,-3.6087,-3.5835,-3.6434,-3.7158,-3.7624,-3.7757,-3.7119,-3.6223,-3.5157,-3.4376,-3.3751,-3.3125,-3.2999,-3.3094,-3.3241,-3.3634,-3.4094,-3.4312,-3.4254,-3.4119,-3.4086,-3.348,-3.3167,-3.3358,-3.2907,-3.2826,-3.3533,-3.3867,-3.3684,-4.8324,-4.8324,-4.8324,-4.8324,-4.8324,-4.8324,-4.8324,-4.8324,-4.8324,-4.8209,-4.8032,-4.801,-4.7645,-4.7039,-4.6495,-4.5968,-4.5433,-4.4944,-4.4608,-4.4361,-4.3555,-4.2794,-4.2066,-4.1339,-4.0679,-4.013,-4.0113,-4.0113,-4.0113,-4.0113,-4.0113,-4.007,-3.9618,-3.9135,-3.8629,0.0,0.0,0.0,-3.6554,-3.6492,-3.6492,-3.6492,-3.6107,-3.5294,-3.4727,0.0,-3.1563,-3.1308,-3.0639,-2.9499,-3.0073,0.0,0.0,0.0,0.0,0.0,0.0,0.0,0.0,0.0,0.0,0.0,-3.175,-3.142,-3.0657,-3.2602,-3.3978,-3.4098,-3.4139,-3.4251,-3.4514,-3.4088,-3.4214,-3.5161,-3.5317,-3.5405,-3.5727,-3.644,-3.6704,-3.6029,-3.6096,-3.6373,-3.6713,-3.5923,-3.5063,-3.4687,-3.4738,-3.4549,-3.37,-3.4741,-3.543,-3.5418,-3.5301,-3.5079,-3.4761,-3.4142,-3.3443,-3.304,-3.2554,-3.2495,-3.2837,-3.254,-3.2769,-3.372,-3.3474,-3.2892,-3.2487,-3.2222,-3.1858,-3.0854,-3.0548,-3.0907,-3.2555,-3.3073,-3.2694,-4.8324,0.0,-4.8324,-4.8324,0.0,-4.8324,-4.8324,-4.8324,-4.8324,-4.819,-4.8012,-4.7968,-4.7539,-4.6886,-4.6334,-4.58,-4.5294,-4.4797,-4.4598,-4.4547,-4.3386,-4.2675,-4.2279,-4.117,-4.0485,-4.0113,-4.0113,-4.0113,-4.0113,-4.0113,-4.0113,-4.0113,-3.9497,-3.9055,-3.8712,-3.7854,-3.7104,-3.6492,-3.6492,-3.6492,-3.6492,-3.6492,-3.6091,-3.5217,0.0,0.0,0.0,0.0,0.0,0.0,0.0,0.0,0.0,0.0,0.0,-3.0567,-3.0507,-3.0834,-3.1493,-3.1824,-3.2258,-3.2794,-3.2812,-3.2547,-3.197,-3.3461,-3.4259,-3.3896,-3.3801,-3.3896,-3.4196,-3.3924,-3.3912,-3.4436,-3.4761,-3.4908,-3.4808,-3.5639,-3.5963,-3.5264,-3.5291,-3.5628,-3.5895,-3.491,-3.4151,-3.3858,-3.3881,-3.3493,-3.2495,-3.3395,-3.426,-3.3844,-3.3766,-3.3569,-3.3105,-3.2607,-3.2215,-3.1797,-3.1627,-3.1649,-3.1899,-3.1929,-3.2185,-3.2878,-3.2683,-3.2233,-3.1713,-3.1307,-3.0703,-2.9764,-2.925,-2.924,-3.0317,-3.1046,-3.111,-4.8324,-4.8324,-4.8324,-4.8324,-4.8324,-4.8324,-4.8324,-4.8324,0.0,0.0,0.0,-4.7945,-4.7493,-4.673,-4.631,-4.5767,-4.5178,-4.4786,-4.4598,-4.453,-4.2997,-4.2303,-4.2219,-4.0807,-4.0113,-4.0113,-4.0113,-4.0113,-4.0113,-4.0113,-4.0113,-4.0045,-3.9391,-3.8963,-3.8673,-3.7738,-3.7013,-3.6523,-3.6492,-3.6492,-3.6492,-3.6492,-3.6091,-3.5233,-3.5171,-3.4395,-3.2779,-3.2328,-3.197,-3.1675,-3.1285,-3.1285,-3.1824,-3.2407,-3.2691,-3.2721,-3.32,-3.3529,-3.3664,-3.4189,-3.4184,-3.3434,-3.3328,-3.3303,-3.3398,-3.3821,-3.3871,-3.3262,-3.3073,-3.3261,-3.3786,-3.3684,-3.3606,-3.3533,-3.397,-3.4032,-3.3723,-3.4593,-3.5022,-3.4447,-3.4682,-3.4901,-3.474,-3.3999,-3.3315,-3.3283,-3.3083,-3.2504,-3.1643,-3.2346,-3.3023,-3.245,-3.2305,-3.2093,-3.1582,-3.1052,-3.0645,-3.0754,-3.0714,-3.0709,-3.0796,-3.1244,-3.1649,-3.1633,-3.17,-3.1359,-3.0806,-3.0135,-2.9548,-2.8924,-2.8311,-2.7808,-2.7918,-2.8705,-2.9113,-4.8324,-4.8324,-4.8324,-4.8324,-4.8324,-4.8324,-4.8324,-4.8324,-4.8324,-4.819,-4.7992,-4.7972,-4.7331,-4.6196,-4.614,-4.558,-4.472,-4.4626,-4.4598,0.0,-4.298,-4.2303,-4.2202,-4.0807,-4.0113,-4.0113,-4.0113,-4.0113,-4.0113,-4.0113,-4.0113,-3.9952,-3.8984,-3.7924,-3.6952,-3.6723,-3.6585,-3.6492,-3.6492,-3.6492,-3.6492,-3.6492,-3.6107,-3.5248,-3.5095,-3.4334,-3.2839,-3.3096,-3.3006,-3.2392,-3.2811,-3.3125,-3.3215,-3.329,-3.335,-3.3365,-3.3455,-3.3739,-3.4324,-3.4444,-3.4394,-3.4153,-3.4036,-3.3747,-3.3262,-3.3296,-3.3318,-3.3192,-3.2613,-3.2282,-3.2341,-3.1897,-3.1755,-3.208,-3.2187,-3.2581,-3.3391,-3.3748,-3.3895,-3.3746,-3.3786,-3.3564,-3.3062,-3.3066,-3.2759,-3.1936,-3.1955,-3.1771,-3.0836,-3.0722,-3.0988,-3.092,-3.088,-3.1029,-3.115,-3.0947,-3.0608,-3.062,-3.0248,-3.0037,-3.0024,-3.019,-3.033,-3.0177,-3.0292,-2.9845,-2.8902,-2.8502,-2.8098,-2.7348,-2.6933,-2.6826,-2.6851,-2.7113,-2.7211,-4.8324,-4.8324,-4.8324,-4.8324,-4.8324,-4.8324,-4.8324,-4.8324,-4.8324,-4.8229,-4.8072,-4.7733,-4.7075,-4.6196,-4.5843,-4.5284,-4.4581,-4.413,-4.3944,-4.3826,-4.2405,-4.1711,-4.1593,-4.0578,-4.0113,-4.0113,-4.0113,-4.0113,-4.0113,-4.0113,-4.0113,-4.002,-3.8887,-3.7838,-3.7043,-3.6662,-3.6492,-3.6492,-3.6492,-3.6492,-3.6492,-3.6138,-3.5845,-3.5613,-3.5293,-3.4668,-3.3772,-3.4013,-3.3801,-3.3066,-3.3335,-3.3499,-3.3514,-3.3829,-3.4054,-3.4053,-3.4382,-3.4711,-3.5026,-3.4574,-3.4257,-3.4219,-3.3358,-3.2627,-3.2032,-3.2376,-3.2448,-3.2042,-3.1676,-3.1505,-3.1505,-3.1185,-3.1091,-3.1352,-3.1602,-3.2019,-3.2555,-3.2934,-3.3091,-3.3104,-3.3036,-3.2771,-3.2312,-3.2412,-3.2203,-3.1249,-3.1095,-3.08,-3.0414,-3.0247,-3.0168,-3.0168,-3.0168,-3.0256,-3.0482,-3.0344,-3.0181,-3.0156,-2.9955,-2.9804,-2.9779,-2.9779,-2.9779,-2.9779,-2.9779,-2.9327,-2.8323,-2.8109,-2.762,-2.6801,-2.6487,-2.6487,-2.6487,-2.6487,-2.6587,-4.8324,-4.8324,-4.8324,-4.8324,-4.8324,-4.8324,-4.8324,-4.8324,-4.8324,-4.8267,-4.811,-4.7488,-4.686,-4.622,-4.5588,-4.4932,-4.4287,-4.369,-4.3335,-4.3031,-4.1813,-4.1204,-4.1119,-4.0451,-4.0113,-4.013,-4.024,-4.0282,-4.0146,-4.0282,-4.0095,-3.9644,-3.8629,-3.7796,-3.7178,-3.6723,-3.6492,-3.6492,-3.6492,-3.6492,-3.6461,-3.586,-3.5677,-3.604,-3.5461,-3.5063,-3.4871,-3.4871,-3.4583,-3.3993,-3.3948,-3.3948,-3.3978,-3.4427,-3.4696,-3.4803,-3.5205,-3.5392,-3.521,-3.4556,-3.3998,-3.3715,-3.2517,-3.1575,-3.1102,-3.1492,-3.164,-3.1123,-3.1061,-3.1024,-3.1061,-3.1011,-3.1024,-3.1013,-3.1365,-3.1654,-3.1823,-3.2241,-3.2502,-3.245,-3.2358,-3.216,-3.1951,-3.191,-3.1715,-3.1174,-3.0534,-3.0291,-3.0399,-3.0082,-2.9817,-2.9779,-2.9779,-2.9817,-2.9779,-2.9804,-2.9817,-2.9779,-2.9792,-2.9779,-2.9779,-2.9779,-2.9779,-2.9779,-2.9779,-2.9315,-2.8411,-2.8109,-2.7645,-2.6776,-2.6487,-2.6487,-2.6487,-2.6487,-2.6487,-4.8324,-4.8324,-4.8324,-4.8324,-4.8324,-4.8324,-4.8324,-4.8324,-4.8324,-4.8267,-4.8128,-4.7488,-4.6774,-4.6098,-4.5537,-4.4649,-4.3589,-4.3426,-4.3031,-4.2354,-4.1576,-4.1204,-4.1119,-4.0443,-4.0113,-4.0214,-4.0781,-4.0781,-4.0282,-4.0789,-4.0217,-3.8583,-3.7796,-3.7224,-3.6662,-3.6554,-3.6492,-3.6492,-3.6492,-3.6492,-3.6445,-3.586,-3.5799,-3.643,-3.5507,-3.5291,-3.5743,-3.5578,-3.5402,-3.534,-3.5265,-3.5295,-3.531,-3.537,-3.5385,-3.54,-3.5459,-3.5213,-3.4505,-3.4199,-3.3587,-3.2409,-3.204,-3.1549,-3.1052,-3.1086,-3.1086,-3.1024,-3.1024,-3.1024,-3.1024,-3.1024,-3.1024,-3.1024,-3.1065,-3.1274,-3.1667,-3.1836,-3.1889,-3.1876,-3.1837,-3.1667,-3.1303,-3.1486,-3.1682,-3.1332,-3.0727,-3.0292,-3.0214,-2.9996,-2.9779,-2.9779,-2.9779,-2.9779,-2.9779,-2.9779,-2.9779,-2.9779,-2.9779,-2.9779,-2.9779,-2.9754,-2.9767,-2.9616,-2.9641,-2.9202,-2.8473,-2.8072,-2.7682,-2.6826,-2.6487,-2.6487,-2.6487,-2.6487,-2.6487,-4.8324,-4.8324,-4.8324,-4.8324,-4.8324,-4.8324,-4.8324,-4.8324,-4.8324,-4.8228,-4.7972,-4.7128,-4.6542,-4.6147,-4.5284,-4.4334,-4.3403,-4.2936,-4.2354,-4.1627,-4.0908,-4.0527,-4.0527,-4.073,-4.0747,-4.0798,-4.1491,-4.1694,-4.1422,-4.1315,-4.0448,-3.8974,-3.83,-3.7677,-3.7044,-3.6662,-3.6492,-3.6492,-3.6492,-3.6492,-3.6415,-3.583,-3.5768,-3.6167,-3.5523,-3.5337,-3.574,-3.5686,-3.5572,-3.5489,-3.5489,-3.5489,-3.5489,-3.5489,-3.5489,-3.5489,-3.5489,-3.5133,-3.4361,-3.3823,-3.3125,-3.216,-3.1607,-3.1222,-3.1013,-3.1024,-3.1024,-3.1024,-3.1024,-3.1024,-3.1024,-3.1024,-3.1024,-3.1024,-3.1024,-3.1091,-3.1287,-3.1339,-3.1326,-3.1339,-3.1326,-3.1236,-3.0927,-3.0993,-3.1098,-3.1021,-3.0636,-3.0343,-3.0113,-2.9946,-2.983,-2.9779,-2.9779,-2.9779,-2.9779,-2.9779,-2.9779,-2.9779,-2.9779,-2.9779,-2.9704,-2.944,-2.9277,-2.9277,-2.9063,-2.8624,-2.777,-2.7607,-2.7356,-2.67,-2.6487,-2.6487,-2.6487,-2.6487,-2.6487,-4.8324,-4.8324,-4.8324,-4.8324,-4.8324,-4.8324,-4.8324,-4.8324,-4.8324,-4.8172,-4.7893,-4.6864,-4.6353,-4.6116,-4.5079,-4.4062,-4.3132,-4.254,-4.1779,-4.0916,-4.0333,-4.0113,-4.0163,-4.0832,-4.1204,-4.1356,-4.2168,-4.2493,-4.2242,-4.1437,-4.0381,-3.9151,-3.8428,-3.7839,-3.7166,-3.6693,-3.6492,-3.6492,-3.6492,-3.6492,-3.6399,-3.583,-3.5646,-3.5891,-3.5309,-3.5049,-3.5225,-3.5373,-3.5351,-3.522,-3.54,-3.5489,-3.5489,-3.5489,-3.5489,-3.5489,-3.5489,-3.5052,-3.4075,-3.3492,-3.2791,-3.1882,-3.1259,-3.1024,-3.1024,-3.1024,-3.1024,-3.1024,-3.1024,-3.1024,-3.1024,-3.1024,-3.1024,-3.1024,-3.1024,-3.1024,-3.1037,-3.1024,-3.0999,-3.1024,-3.1039,-3.0949,-3.0811,-3.0824,-3.0812,-3.0724,-3.0546,-3.033,-3.0101,-2.9934,-2.9779,-2.9779,-2.9779,-2.9779,-2.9779,-2.9591,-2.9591,-2.9503,-2.9415,-2.9227,-2.9327,-2.8913,-2.8712,-2.8662,-2.8298,-2.7971,-2.7557,-2.7354,-2.7153,-2.67,-2.6487,-2.6487,-2.6487,-2.6487,-2.6487,-4.8324,-4.8324,-4.8324,-4.8324,-4.8324,-4.8324,-4.8324,-4.8324,-4.8324,-4.819,-4.7872,-4.6864,-4.6281,-4.6049,-4.5069,-4.3785,-4.2523,-4.2337,-4.1585,-4.0367,-4.0146,-4.0113,-4.0163,-4.0832,-4.1221,-4.1407,-4.2642,-4.2931,-4.227,-4.1145,-3.9778,-3.8491,-3.7919,-3.7247,-3.6662,-3.6507,-3.6476,-3.6415,-3.6368,-3.6415,-3.6353,-3.5768,-3.5445,-3.5369,-3.4711,-3.4241,-3.4197,-3.4514,-3.4689,-3.4563,-3.513,-3.5474,-3.5489,-3.5489,-3.5489,-3.5489,-3.5489,-3.4835,-3.3526,-3.3262,-3.2591,-3.1371,-3.1061,-3.1024,-3.1024,-3.1024,-3.1024,-3.1024,-3.1024,-3.1024,-3.1024,-3.1024,-3.1024,-3.1024,-3.1024,-3.1024,-3.1024,-3.1024,-3.1024,-3.1024,-3.1024,-3.0986,-3.0986,-3.0986,-3.0822,-3.0658,-3.0495,-3.0228,-2.9974,-2.9833,-2.9692,-2.9654,-2.9691,-2.9779,-2.9729,-2.9553,-2.9202,-2.9013,-2.8888,-2.8348,-2.821,-2.8147,-2.8147,-2.8109,-2.7934,-2.7695,-2.7442,-2.7203,-2.6989,-2.6713,-2.6524,-2.6487,-2.6487,-2.6487,-2.6487,-4.8324,-4.8324,-4.8324,-4.8324,-4.8324,-4.8324,-4.8324,-4.8324,-4.8324,-4.8172,-4.7834,-4.6864,-4.6281,-4.6024,-4.5052,-4.3995,-4.3014,-4.2523,-4.1745,-4.0798,-4.0333,-4.0113,-4.0231,-4.1305,-4.1897,-4.2049,-4.2929,-4.2607,-4.1321,-4.1494,-4.0384,-3.8247,-3.8067,-3.76,-3.6615,-3.6061,-3.5845,-3.5799,-3.546,-3.5229,-3.526,-3.4998,-3.4629,-3.4198,-3.4205,-3.4149,-3.4015,-3.403,-3.4178,-3.4488,-3.4758,-3.5055,-3.5444,-3.5489,-3.5489,-3.5489,-3.5489,-3.4835,-3.3457,-3.3192,-3.2555,-3.1198,-3.1024,-3.1024,-3.1024,-3.1024,-3.1024,-3.1024,-3.1024,-3.1024,-3.1024,-3.1024,-3.1024,-3.1024,-3.1024,-3.1024,-3.1024,-3.1024,-3.1024,-3.1024,-3.1024,-3.1024,-3.0921,-3.0673,-3.0414,-3.0314,-2.9844,-2.9492,-2.9244,-2.9022,-2.8899,-2.8837,-2.9013,-2.9201,-2.9239,-2.9465,-2.9402,-2.9013,-2.87,-2.8436,-2.8235,-2.772,-2.7607,-2.7532,-2.7431,-2.7241,-2.6901,-2.6876,-2.67,-2.665,-2.6487,-2.6487,-2.6487,-2.6487,-2.6487,-4.8324,-4.8324,-4.8324,-4.8324,-4.8324,-4.8324,-4.8324,-4.8324,-4.8305,-4.819,-4.7813,-4.6864,-4.6281,-4.5898,-4.4768,-4.3961,-4.3341,-4.2642,-4.1897,-4.1187,-4.0451,-4.0113,-4.0299,-4.1356,-4.1948,-4.2033,-4.2692,-4.2122,-4.0696,-4.134,-4.0275,-3.7679,-3.7984,-3.7615,-3.6569,-3.586,-3.5491,-3.5368,-3.4844,-3.4505,-3.4474,-3.4274,-3.3906,-3.3506,-3.3558,-3.3537,-3.3377,-3.3366,-3.3487,-3.3845,-3.4264,-3.4786,-3.5415,-3.5489,-3.5489,-3.5457,-3.5246,-3.4706,-3.3665,-3.3094,-3.2412,-3.1468,-3.1123,-3.1024,-3.1024,-3.1024,-3.1024,-3.1024,-3.1024,-3.1024,-3.1024,-3.1024,-3.1024,-3.1024,-3.1024,-3.1024,-3.1024,-3.1024,-3.1024,-3.1024,-3.1024,-3.1024,-3.0921,-3.0464,-3.0179,-3.01,-2.946,-2.8944,-2.8739,-2.8522,-2.8317,-2.8171,-2.8436,-2.8624,-2.8662,-2.8825,-2.8913,-2.8624,-2.8084,-2.7971,-2.7846,-2.7331,-2.7067,-2.7014,-2.6851,-2.66,-2.6487,-2.6487,-2.6487,-2.6487,-2.6487,-2.6487,-2.6487,-2.6487,-2.6487,-4.8324,-4.8324,-4.8324,-4.8324,-4.8324,-4.8324,-4.8324,-4.8324,-4.8324,-4.817,-4.7772,-4.6842,-4.6257,-4.5735,-4.4297,-4.3409,-4.3301,-4.2574,-4.183,-4.117,-4.0426,-4.0113,-4.0163,-4.0916,-4.127,-4.1261,-4.1955,-4.1583,-4.024,-4.0315,-3.945,-3.7807,-3.7523,-3.7261,-3.6492,-3.5784,-3.5414,-3.526,-3.469,-3.4351,-3.4382,-3.3737,-3.3383,-3.3275,-3.2801,-3.2446,-3.2177,-3.252,-3.2705,-3.2811,-3.3784,-3.4756,-3.537,-3.5489,-3.5489,-3.5392,-3.4824,-3.438,-3.4061,-3.2953,-3.2304,-3.1809,-3.1357,-3.1024,-3.1024,-3.1024,-3.1024,-3.1024,-3.1039,-3.1039,-3.1013,-3.1052,-3.1039,-3.1024,-3.1024,-3.1024,-3.1024,-3.1024,-3.1011,-3.0934,-3.0947,-3.0973,-3.0843,-3.0372,-2.9957,-2.9751,-2.9288,-2.8721,-2.8479,-2.8252,-2.8239,-2.8082,-2.8021,-2.8084,-2.8097,-2.8109,-2.8109,-2.7996,-2.7369,-2.7027,-2.704,-2.6725,-2.6751,-2.67,-2.67,-2.6487,-2.6487,-2.6487,-2.6487,-2.6487,-2.6487,-2.6487,-2.6487,-2.6487,-2.6487,-4.8324,-4.8324,-4.8324,-4.8324,-4.8324,-4.8324,-4.8324,-4.8324,-4.8324,-4.7977,-4.7385,-4.6728,-4.6094,-4.5321,-4.4034,-4.3375,-4.3274,-4.2151,-4.1407,-4.1102,-4.0451,-4.0113,-4.0248,-4.0849,-4.0978,-4.0769,-4.1332,-4.0503,-3.8905,-3.9318,-3.8779,-3.7234,-3.7277,-3.7123,-3.6461,-3.5429,-3.4813,-3.469,-3.3673,-3.3072,-3.3044,-3.2844,-3.2721,-3.269,-3.2422,-3.2361,-3.2663,-3.2394,-3.2537,-3.311,-3.3574,-3.4322,-3.525,-3.5489,-3.5489,-3.5457,-3.5279,-3.4558,-3.363,-3.3108,-3.2304,-3.1579,-3.1123,-3.1024,-3.1024,-3.1024,-3.0999,-3.1052,-3.1313,-3.1457,-3.1143,-3.1365,-3.1352,-3.1026,-3.1024,-3.1024,-3.1024,-3.1024,-3.079,-3.0529,-3.0738,-3.0634,-3.0032,-2.9614,-2.951,-2.9078,-2.8486,-2.8031,-2.7782,-2.7665,-2.7363,-2.7177,-2.7311,-2.7568,-2.7568,-2.7568,-2.7568,-2.7568,-2.7102,-2.6663,-2.6549,-2.6487,-2.6487,-2.6487,-2.6487,-2.6487,-2.6487,-2.6487,-2.6487,-2.6487,-2.6487,-2.6487,-2.6487,-2.6487,-2.6487,-4.8324,-4.8324,-4.8324,-4.8324,-4.8324,-4.8324,-4.8324,-4.8324,-4.8324,-4.7879,-4.7216,-4.6641,-4.5839,-4.4768,-4.3545,-4.2844,-4.2472,-4.1322,-4.0781,-4.0747,-4.0367,-4.0113,-4.0146,-4.057,-4.0462,-4.0059,-4.0359,-3.9487,-3.7541,-3.8207,-3.7949,-3.6832,-3.6923,-3.6923,-3.643,-3.546,-3.4797,-3.4382,-3.3367,-3.2644,-3.2505,-3.2644,-3.2767,-3.2813,-3.2944,-3.3154,-3.3331,-3.2953,-3.2973,-3.3441,-3.3709,-3.4412,-3.5385,-3.5489,-3.5489,-3.5392,-3.4935,-3.424,-3.3596,-3.2791,-3.2209,-3.1482,-3.1161,-3.1024,-3.1024,-3.1024,-3.1039,-3.1339,-3.1392,-3.1457,-3.1378,-3.1378,-3.1352,-3.1039,-3.1024,-3.1024,-3.1024,-3.1024,-3.0725,-3.0451,-3.0647,-3.0424,-2.9889,-2.9575,-2.9353,-2.8778,-2.8216,-2.7626,-2.7426,-2.7219,-2.7011,-2.6914,-2.7065,-2.7199,-2.7107,-2.7072,-2.7037,-2.7037,-2.6914,-2.6675,-2.6537,-2.6499,-2.6487,-2.6487,-2.6487,-2.6487,-2.6487,-2.6487,-2.6487,-2.6487,-2.6386,-2.6487,-2.6487,-2.6487,-2.6487,-4.8324,-4.8324,-4.8324,-4.8324,-4.8324,-4.8324,-4.8324,-4.8287,-4.8248,-4.7743,-4.702,-4.6365,-4.539,-4.4027,-4.277,-4.1931,-4.1187,-4.0561,-4.0231,-4.0214,-4.0113,-4.0113,-4.013,-4.0214,-3.9908,-3.9402,-3.9257,-3.856,-3.7447,-3.744,-3.7058,-3.6585,-3.6538,-3.6507,-3.6353,-3.5814,-3.5152,-3.4613,-3.3844,-3.3183,-3.269,-3.3152,-3.3475,-3.349,-3.3998,-3.4221,-3.406,-3.4031,-3.3895,-3.3726,-3.4203,-3.4831,-3.537,-3.5489,-3.5489,-3.5472,-3.4153,-3.3988,-3.3734,-3.2613,-3.1653,-3.1919,-3.1357,-3.1024,-3.1024,-3.1037,-3.1143,-3.1484,-3.1365,-3.13,-3.1484,-3.1444,-3.1143,-3.1013,-3.1024,-3.1024,-3.1024,-3.1024,-3.0712,-3.0348,-3.0581,-3.0686,-2.9944,-2.9813,-2.9591,-2.9052,-2.8464,-2.79,-2.7512,-2.7281,-2.7214,-2.713,-2.7105,-2.6994,-2.6993,-2.6876,-2.6876,-2.6854,-2.6747,-2.6625,-2.6512,-2.6487,-2.6487,-2.6487,-2.6399,-2.6424,-2.6373,-2.6285,-2.6172,-2.6021,-2.6097,-2.6361,-2.6424,-2.6361,-2.6461,-4.8324,-4.8324,-4.8324,-4.8324,-4.8324,-4.8324,-4.8324,-4.8267,-4.7917,-4.7045,-4.5939,-4.5268,-4.4246,-4.2788,-4.1935,-4.1373,-4.1035,-4.0451,-4.0113,-4.0113,-4.0113,-4.0113,-4.0113,-4.0096,-3.9773,-3.9216,-3.8821,-3.8124,-3.7417,-3.7043,-3.6723,-3.6523,-3.6523,-3.6492,-3.6399,-3.5845,-3.546,-3.5183,-3.4566,-3.4135,-3.3981,-3.4073,-3.4227,-3.4243,-3.4412,-3.4588,-3.4744,-3.4964,-3.4838,-3.4339,-3.4876,-3.5295,-3.5474,-3.5489,-3.5489,-3.5392,-3.5115,-3.4624,-3.4143,-3.3234,-3.2519,-3.2051,-3.1455,-3.1024,-3.1024,-3.1024,-3.1065,-3.1261,-3.1378,-3.1445,-3.1352,-3.1431,-3.1378,-3.1065,-3.1024,-3.1024,-3.1024,-3.0973,-3.0764,-3.0283,-3.0647,-3.0255,-2.9497,-2.9261,-2.917,-2.8373,-2.7994,-2.7738,-2.7514,-2.7369,-2.7281,-2.7214,-2.7151,-2.7037,-2.6901,-2.6786,-2.6717,-2.6709,-2.664,-2.6524,-2.6461,-2.6449,-2.6474,-2.6487,-2.6197,-2.6135,-2.5925,-2.5774,-2.5636,-2.5511,-2.5636,-2.5812,-2.6034,-2.6072,-2.6323,-4.8324,-4.8324,-4.8324,-4.8324,-4.8324,-4.8324,-4.8324,-4.8155,-4.7452,-4.6475,-4.5308,-4.4445,-4.3294,-4.1865,-4.139,-4.1018,-4.0696,-4.0299,-4.0113,-4.0113,-4.0113,-4.0113,-4.0113,-4.0096,-3.9799,-3.9232,-3.8865,-3.8379,-3.7796,-3.7178,-3.6892,-3.6831,-3.66,-3.6492,-3.6476,-3.6153,-3.5768,-3.546,-3.5106,-3.4813,-3.4536,-3.4797,-3.472,-3.4674,-3.4736,-3.5002,-3.511,-3.5388,-3.5362,-3.5073,-3.528,-3.5489,-3.5489,-3.5489,-3.5489,-3.5472,-3.5213,-3.4725,-3.4327,-3.3616,-3.2897,-3.2218,-3.164,-3.1334,-3.1086,-3.0986,-3.1013,-3.1392,-3.1483,-3.1418,-3.1405,-3.1457,-3.1313,-3.1052,-3.1024,-3.1024,-3.1024,-3.1024,-3.0712,-3.0375,-3.0296,-3.0215,-2.8908,-2.9104,-2.8752,-2.8216,-2.8046,-2.7824,-2.7568,-2.7475,-2.7369,-2.7315,-2.7248,-2.718,-2.7045,-2.6897,-2.6616,-2.6582,-2.6211,-2.616,-2.6235,-2.6235,-2.6135,-2.6059,-2.5921,-2.5711,-2.5448,-2.5259,-2.5197,-2.5146,-2.5209,-2.5347,-2.5561,-2.5711,-2.5988,-4.8324,-4.8324,-4.8324,-4.8251,-4.8159,-4.8177,-4.8012,-4.7789,-4.6817,-4.5831,-4.487,-4.3839,-4.2519,-4.1128,-4.0984,-4.0713,-4.0146,-4.013,-4.0113,-4.0113,-4.0113,-4.0113,-4.0113,-4.0113,-3.985,-3.9391,-3.9276,-3.8892,-3.8294,-3.7709,-3.7371,-3.7178,-3.6754,-3.6523,-3.6476,-3.643,-3.6184,-3.5753,-3.5645,-3.5398,-3.5121,-3.5322,-3.5306,-3.4874,-3.5076,-3.5324,-3.5385,-3.5545,-3.5576,-3.5474,-3.5489,-3.5489,-3.5489,-3.5489,-3.5489,-3.5424,-3.4986,-3.4595,-3.4346,-3.3837,-3.3038,-3.242,-3.2182,-3.1773,-3.1198,-3.0986,-3.1143,-3.1471,-3.1248,-3.1274,-3.1419,-3.1261,-3.1065,-3.1024,-3.1024,-3.1024,-3.1024,-3.1024,-3.0777,-3.0257,-3.0192,-2.9826,-2.9483,-2.917,-2.8922,-2.8033,-2.7902,-2.7771,-2.7568,-2.7482,-2.7469,-2.7436,-2.7403,-2.7369,-2.718,-2.7024,-2.6659,-2.6375,-2.5778,-2.5586,-2.5795,-2.5749,-2.5598,-2.5485,-2.541,-2.5172,-2.4833,-2.4687,-2.4662,-2.4562,-2.4519,-2.487,-2.5234,-2.5335,-2.5536,-4.8324,-4.8324,-4.8324,-4.7939,-4.7424,-4.7333,-4.6984,-4.6415,-4.5758,-4.48,-4.3713,-4.2876,-4.1785,-4.0527,-4.0468,-4.0231,-4.0113,-4.0113,-4.0113,-4.0113,-4.0113,-4.0113,-4.0113,-4.0113,-4.002,-3.9773,-3.9391,-3.9109,-3.8783,-3.7969,-3.7401,-3.7312,-3.6846,-3.6492,-3.6492,-3.6476,-3.6445,-3.6276,-3.6245,-3.6153,-3.6045,-3.6045,-3.5861,-3.5245,-3.5232,-3.5477,-3.5717,-3.574,-3.5653,-3.5522,-3.5489,-3.5489,-3.5489,-3.5489,-3.5489,-3.5457,-3.5359,-3.5198,-3.51,-3.4442,-3.3734,-3.2967,-3.2376,-3.1796,-3.1123,-3.1024,-3.1039,-3.1156,-3.1052,-3.1065,-3.1182,-3.1091,-3.1037,-3.1024,-3.1024,-3.1024,-3.1024,-3.1024,-3.0895,-3.0712,-3.0296,-2.9879,-2.9362,-2.8813,-2.8386,-2.7876,-2.7686,-2.762,-2.7568,-2.7503,-2.7503,-2.7503,-2.7436,-2.7369,-2.718,-2.6939,-2.6549,-2.6114,-2.5519,-2.5008,-2.5197,-2.5109,-2.4895,-2.485,-2.4926,-2.4612,-2.4186,-2.4123,-2.4086,-2.3979,-2.3904,-2.4255,-2.4582,-2.4782,-2.4971,-4.7755,-4.7681,-4.7352,-4.6929,-4.6599,-4.6507,-4.6305,-4.5755,-4.4762,-4.3918,-4.3066,-4.2073,-4.1071,-4.0347,-4.0213,-4.0163,-4.0096,-4.0113,-4.0113,-4.0113,-4.0113,-4.0113,-4.0113,-4.0113,-4.0096,-4.0003,-3.947,-3.9216,-3.8865,-3.8084,-3.7401,-3.7358,-3.6816,-3.6523,-3.6492,-3.6492,-3.6492,-3.6476,-3.6492,-3.6492,-3.6492,-3.6476,-3.5968,-3.5306,-3.511,-3.5278,-3.5095,-3.556,-3.561,-3.5589,-3.5522,-3.5489,-3.5489,-3.5489,-3.5489,-3.5489,-3.5489,-3.5489,-3.5311,-3.4758,-3.3959,-3.3248,-3.2506,-3.1773,-3.1222,-3.1024,-3.1024,-3.1024,-3.1024,-3.1024,-3.1024,-3.1024,-3.1024,-3.1024,-3.0973,-3.1024,-3.1011,-3.1024,-3.0856,-3.0581,-3.0032,-2.9483,-2.8922,-2.8425,-2.8059,-2.762,-2.7607,-2.7555,-2.7555,-2.7503,-2.7503,-2.7469,-2.7423,-2.7289,-2.7134,-2.6807,-2.638,-2.5879,-2.5285,-2.4782,-2.4569,-2.4356,-2.4061,-2.4173,-2.4311,-2.3935,-2.3584,-2.3547,-2.3572,-2.3484,-2.3509,-2.3715,-2.3941,-2.428,-2.4418,-4.6911,-4.6856,-4.6177,-4.5828,-4.5736,-4.5718,-4.5608,-4.5242,-4.3974,-4.3248,-4.28,-4.1406,-4.0731,-4.0362,-4.028,-4.0188,-4.0138,-4.0113,-4.0113,-4.0113,-4.0113,-4.0113,-4.0113,-4.0113,-4.0113,-4.0037,-3.9644,-3.9391,-3.8947,-3.8169,-3.7578,-3.7358,-3.68,-3.6523,-3.6492,-3.6492,-3.6492,-3.6492,-3.6492,-3.6492,-3.6492,-3.6476,-3.5922,-3.5383,-3.5124,-3.5171,-3.5065,-3.5396,-3.572,-3.5688,-3.5572,-3.5489,-3.5489,-3.5489,-3.5489,-3.5489,-3.5489,-3.5489,-3.5424,-3.4872,-3.4177,-3.3332,-3.2684,-3.1896,-3.1272,-3.1024,-3.1024,-3.1024,-3.1024,-3.1024,-3.1024,-3.0817,-3.0817,-3.0817,-3.083,-3.0817,-3.0751,-3.0777,-3.0581,-3.0179,-2.9601,-2.8948,-2.8503,-2.8046,-2.7725,-2.7503,-2.7503,-2.7503,-2.7503,-2.7503,-2.7503,-2.7503,-2.7423,-2.7268,-2.7113,-2.659,-2.6177,-2.5577,-2.5008,-2.4506,-2.4054,-2.376,-2.3597,-2.3609,-2.3584,-2.3333,-2.3233,-2.3271,-2.3246,-2.3108,-2.3183,-2.3396,-2.3627,-2.3828,-2.3879,-4.6085,-4.6085,-4.5957,-4.5516,-4.4966,-4.4892,-4.4544,-4.3867,-4.3284,-4.2753,-4.2291,-4.1418,-4.0795,-4.0493,-4.0221,-4.0138,-4.0113,-4.0113,-4.0113,-4.0113,-4.0113,-4.0113,-4.0113,-4.0113,-4.0079,-4.0113,-3.985,-3.9592,-3.9082,-3.849,-3.7754,-3.7328,-3.68,-3.6523,-3.6492,-3.6492,-3.6445,-3.6384,-3.6445,-3.6476,-3.6399,-3.643,-3.6322,-3.5845,-3.5615,-3.5539,-3.5691,-3.5809,-3.5878,-3.572,-3.5572,-3.5507,-3.54,-3.54,-3.537,-3.5385,-3.531,-3.525,-3.529,-3.5267,-3.4509,-3.361,-3.3038,-3.2318,-3.1445,-3.1061,-3.1086,-3.1024,-3.1024,-3.1024,-3.0973,-3.0699,-3.0322,-3.027,-3.027,-3.0127,-2.9876,-2.9928,-3.015,-2.9813,-2.9144,-2.8525,-2.8137,-2.7816,-2.7633,-2.7503,-2.7503,-2.7503,-2.7503,-2.7503,-2.7503,-2.7503,-2.7503,-2.7268,-2.7079,-2.6429,-2.5861,-2.5257,-2.4676,-2.4086,-2.3659,-2.3333,-2.3208,-2.3321,-2.3321,-2.3208,-2.3133,-2.3095,-2.3095,-2.3095,-2.312,-2.3145,-2.3308,-2.3502,-2.3396,-4.5296,-4.5259,-4.4837,-4.4433,-4.4121,-4.4066,-4.3864,-4.3429,-4.2826,-4.236,-4.1931,-4.1271,-4.07,-4.0419,-4.0288,-4.0163,-4.0113,-4.0113,-4.0113,-4.0113,-4.0113,-4.0113,-4.0079,-4.0079,-3.9842,-3.9657,-3.9555,-3.9315,-3.8756,-3.8112,-3.7578,-3.7013,-3.66,-3.6492,-3.6492,-3.6492,-3.6276,-3.6153,-3.6276,-3.6322,-3.6122,-3.6276,-3.6353,-3.5999,-3.5922,-3.5845,-3.5676,-3.5947,-3.5894,-3.5659,-3.5275,-3.5091,-3.4908,-3.4696,-3.4622,-3.4816,-3.4681,-3.4666,-3.4795,-3.4676,-3.4126,-3.3876,-3.3457,-3.2733,-3.1919,-3.1566,-3.132,-3.1086,-3.1024,-3.1024,-3.0973,-3.0673,-3.044,-3.0166,-3.0061,-2.9774,-2.9431,-2.9287,-2.9287,-2.9278,-2.8791,-2.8255,-2.7902,-2.7659,-2.7542,-2.7503,-2.7503,-2.7503,-2.7503,-2.7503,-2.7503,-2.7503,-2.7469,-2.7268,-2.704,-2.6526,-2.5755,-2.5088,-2.4488,-2.3916,-2.3446,-2.3183,-2.3108,-2.3158,-2.3108,-2.3095,-2.3095,-2.3095,-2.3095,-2.3095,-2.3108,-2.312,-2.3108,-2.3108,-2.3095,-4.447,-4.4397,-4.3773,-4.3479,-4.3479,-4.3479,-4.3515,-4.3321,-4.2578,-4.2139,-4.1892,-4.11,-4.0534,-4.0355,-4.028,-4.0188,-4.0113,-4.0113,-4.0113,-4.0113,-4.0096,-4.0062,-3.9893,-3.9783,-3.9429,-3.8589,-3.8596,-3.8531,-3.8107,-3.7687,-3.7118,-3.6723,-3.6523,-3.6492,-3.6492,-3.6492,-3.6091,-3.5922,-3.6107,-3.6184,-3.5999,-3.6153,-3.6168,-3.5568,-3.5845,-3.5707,-3.5202,-3.5262,-3.5335,-3.5134,-3.4798,-3.4419,-3.4204,-3.3664,-3.3559,-3.3903,-3.371,-3.3934,-3.4198,-3.4135,-3.3959,-3.3799,-3.3492,-3.2804,-3.2015,-3.1566,-3.1529,-3.1123,-3.1024,-3.0882,-3.0751,-3.0647,-3.0281,-2.9862,-2.9617,-2.9536,-2.8961,-2.8647,-2.849,-2.8425,-2.8276,-2.8046,-2.7686,-2.7594,-2.7516,-2.7503,-2.7503,-2.7503,-2.7503,-2.7503,-2.7503,-2.7469,-2.7403,-2.7268,-2.6989,-2.6688,-2.5876,-2.5062,-2.45,-2.3979,-2.3509,-2.3108,-2.3095,-2.3095,-2.3095,-2.3095,-2.3095,-2.3095,-2.3095,-2.3095,-2.3095,-2.3095,-2.3095,-2.3095,-2.3095,-4.3643,-4.3662,-4.3551,-4.3479,-4.3479,-4.3479,-4.3479,-4.3375,-4.2577,-4.2118,-4.1874,-4.0995,-4.0436,-4.0288,-4.0188,-4.0121,-4.0113,-4.0113,-4.0113,-4.0113,-4.0096,-3.9791,-3.9242,-3.9148,-3.8471,-3.7678,-3.7443,-3.737,-3.7192,-3.7208,-3.7041,-3.6554,-3.6445,-3.6492,-3.6492,-3.6492,-3.6138,-3.5722,-3.6122,-3.6368,-3.6307,-3.6368,-3.6045,-3.5707,-3.5553,-3.5338,-3.477,-3.4637,-3.444,-3.4304,-3.3893,-3.3666,-3.3499,-3.2991,-3.2706,-3.2886,-3.3215,-3.3769,-3.4247,-3.4195,-3.4038,-3.3786,-3.338,-3.247,-3.1692,-3.1204,-3.1106,-3.1048,-3.1024,-3.0764,-3.0359,-2.9876,-2.9287,-2.8961,-2.8843,-2.849,-2.802,-2.8242,-2.8059,-2.7928,-2.7876,-2.7785,-2.7529,-2.7516,-2.7503,-2.7503,-2.7503,-2.7503,-2.7503,-2.7503,-2.7503,-2.7503,-2.7261,-2.7102,-2.6814,-2.6519,-2.5823,-2.4956,-2.4482,-2.3979,-2.3484,-2.3095,-2.3095,-2.3095,-2.3108,-2.3108,-2.3095,-2.3095,-2.3095,-2.3095,-2.3095,-2.3095,-2.3095,-2.3095,-2.3095,-4.3479,-4.3479,-4.3479,-4.3479,-4.3479,-4.3479,-4.3357,-4.3069,-4.2498,-4.1973,-4.1525,-4.0849,-4.0387,-4.0213,-4.0096,-4.0096,-4.0113,-4.0113,-4.0113,-4.0113,-4.0045,-3.9706,-3.9157,-3.8879,-3.8202,-3.6813,-3.6441,-3.6054,-3.6046,-3.6331,-3.6538,-3.6091,-3.6276,-3.6492,-3.643,-3.6476,-3.6091,-3.5691,-3.5491,-3.5583,-3.5845,-3.5937,-3.5814,-3.5521,-3.546,-3.5075,-3.4554,-3.4387,-3.4208,-3.4043,-3.3592,-3.3171,-3.2901,-3.2392,-3.1944,-3.1959,-3.2168,-3.2841,-3.3694,-3.3919,-3.4058,-3.4211,-3.3748,-3.2714,-3.1469,-3.0774,-3.0736,-3.0973,-3.0986,-3.0686,-3.0192,-2.9892,-2.9248,-2.8726,-2.8342,-2.8007,-2.7699,-2.7712,-2.7738,-2.7594,-2.7503,-2.7503,-2.7503,-2.7503,-2.7503,-2.7503,-2.7503,-2.7503,-2.7503,-2.7503,-2.7503,-2.7503,-2.7216,-2.6909,-2.6557,-2.6187,-2.5512,-2.4772,-2.4331,-2.3859,-2.3371,-2.3095,-2.3183,-2.3158,-2.312,-2.312,-2.3108,-2.3095,-2.3095,-2.3095,-2.3095,-2.3095,-2.3095,-2.3095,-2.3095,-4.3479,-4.3479,-4.3479,-4.3479,-4.3479,-4.3479,-4.3268,-4.2863,-4.2418,-4.1867,-4.1276,-4.0724,-4.0296,-4.0146,-4.0113,-4.0113,-4.0113,-4.0113,-4.0113,-4.0113,-3.9994,-3.9537,-3.8903,-3.8516,-3.7631,-3.5735,-3.5769,-3.5198,-3.4754,-3.5038,-3.5538,-3.5274,-3.5598,-3.5984,-3.6184,-3.6184,-3.5953,-3.5861,-3.526,-3.5337,-3.5706,-3.5645,-3.5444,-3.5244,-3.5028,-3.4645,-3.4104,-3.3862,-3.373,-3.3462,-3.2998,-3.2537,-3.2285,-3.1913,-3.1615,-3.16,-3.1705,-3.2153,-3.2991,-3.3499,-3.4034,-3.4209,-3.3777,-3.2247,-3.1387,-3.0618,-3.0302,-3.071,-3.0712,-3.0359,-2.9889,-2.9565,-2.9013,-2.8425,-2.8085,-2.785,-2.7633,-2.7633,-2.762,-2.7555,-2.7503,-2.7503,-2.7503,-2.7503,-2.7503,-2.7503,-2.7503,-2.7503,-2.7503,-2.7503,-2.7503,-2.7477,-2.7118,-2.6818,-2.6569,-2.6058,-2.5274,-2.4586,-2.4147,-2.3859,-2.3477,-2.3371,-2.3502,-2.3384,-2.3246,-2.3183,-2.3195,-2.3145,-2.3095,-2.3095,-2.3095,-2.3095,-2.3095,-2.3095,-2.3095,-4.3479,-4.3479,-4.3479,-4.3479,-4.3479,-4.3479,-4.325,-4.2806,-4.2378,-4.1803,-4.1185,-4.0645,-4.0263,-4.0138,-4.0113,-4.0113,-4.0113,-4.0113,-4.0113,-4.0113,-4.0011,-3.9351,-3.865,-3.7935,-3.7069,-3.5369,-3.5119,-3.4452,-3.3704,-3.4115,-3.4507,-3.4593,-3.4842,-3.5121,-3.5414,-3.566,-3.583,-3.5784,-3.5414,-3.5521,-3.5737,-3.5584,-3.509,-3.452,-3.3935,-3.3244,-3.2613,-3.2652,-3.2616,-3.2462,-3.2243,-3.1995,-3.1865,-3.1629,-3.1511,-3.1496,-3.1496,-3.1929,-3.2602,-3.308,-3.3365,-3.3132,-3.2359,-3.131,-3.0686,-3.0894,-3.0735,-3.021,-3.0189,-2.9693,-2.9026,-2.8464,-2.8412,-2.8025,-2.7777,-2.7686,-2.7555,-2.7542,-2.7529,-2.7516,-2.7503,-2.7503,-2.7503,-2.7503,-2.7503,-2.7503,-2.7503,-2.7503,-2.7503,-2.7503,-2.7503,-2.7385,-2.7,-2.6785,-2.6721,-2.6037,-2.5045,-2.4435,-2.399,-2.3859,-2.374,-2.374,-2.374,-2.3665,-2.3496,-2.3396,-2.3258,-2.317,-2.3095,-2.3095,-2.3095,-2.3095,-2.3095,-2.3095,-2.3095,-4.3479,-4.3479,-4.3479,-4.3479,-4.3479,-4.325,-4.2883,-4.2438,-4.1969,-4.1405,-4.0795,-4.0444,-4.0238,-4.0138,-4.0113,-4.0113,-4.0113,-4.0113,-4.0113,-4.0113,-3.996,-3.9445,-3.8717,-3.7935,-3.7086,-3.5716,-3.509,-3.448,-3.3864,-3.381,-3.3587,-3.3791,-3.4211,-3.4565,-3.4905,-3.5183,-3.5429,-3.5229,-3.509,-3.509,-3.5013,-3.4599,-3.4075,-3.3829,-3.366,-3.3059,-3.2536,-3.2373,-3.2247,-3.2107,-3.1968,-3.1841,-3.167,-3.1568,-3.1511,-3.1496,-3.1496,-3.1824,-3.2288,-3.2631,-3.2519,-3.1543,-3.0755,-3.0058,-2.9768,-2.9542,-2.9627,-2.9502,-2.9601,-2.9144,-2.8608,-2.8373,-2.8242,-2.7725,-2.7503,-2.7503,-2.7503,-2.7503,-2.7503,-2.7503,-2.7503,-2.7503,-2.7503,-2.7503,-2.7503,-2.7503,-2.7503,-2.7503,-2.7503,-2.7503,-2.7503,-2.7359,-2.6987,-2.6661,-2.655,-2.5736,-2.4758,-2.4347,-2.3896,-2.3809,-2.3816,-2.3904,-2.3891,-2.3828,-2.3728,-2.3534,-2.3358,-2.3183,-2.3095,-2.3095,-2.3095,-2.3095,-2.3095,-2.3095,-2.3095,-4.3479,-4.3479,-4.3479,-4.3479,-4.3444,-4.3087,-4.2596,-4.2098,-4.167,-4.1059,-4.0436,-4.0313,-4.0213,-4.0121,-4.0113,-4.0113,-4.0113,-4.0113,-4.0113,-4.0113,-4.0028,-3.9631,-3.9039,-3.8364,-3.7586,-3.6384,-3.5721,-3.514,-3.426,-3.3869,-3.3736,-3.3784,-3.3846,-3.4066,-3.432,-3.4768,-3.4951,-3.4613,-3.4489,-3.4489,-3.4443,-3.386,-3.3475,-3.3354,-3.3157,-3.2806,-3.2394,-3.2247,-3.2163,-3.2038,-3.194,-3.1855,-3.1712,-3.1597,-3.1496,-3.1496,-3.1555,-3.175,-3.2034,-3.2094,-3.1775,-3.116,-3.0117,-2.9411,-2.8838,-2.8681,-2.9141,-2.8957,-2.8987,-2.8778,-2.8216,-2.8033,-2.7968,-2.7529,-2.7503,-2.7503,-2.7503,-2.7503,-2.7503,-2.7503,-2.7503,-2.7503,-2.7503,-2.7503,-2.7503,-2.7503,-2.7503,-2.7503,-2.7503,-2.7503,-2.7503,-2.7307,-2.7027,-2.6681,-2.6329,-2.562,-2.5,-2.4671,-2.4261,-2.3847,-2.3828,-2.3916,-2.3966,-2.3879,-2.3778,-2.3634,-2.3421,-2.3158,-2.3095,-2.3095,-2.3095,-2.3095,-2.3095,-2.3095,-2.3095,-4.3479,-4.3479,-4.3479,-4.3479,-4.3463,-4.3069,-4.2557,-4.1976,-4.1437,-4.0879,-4.0362,-4.0288,-4.0213,-4.0138,-4.0113,-4.0113,-4.0113,-4.0113,-4.0045,-3.996,-4.0045,-3.9614,-3.9208,-3.8676,-3.8179,-3.711,-3.647,-3.5803,-3.4892,-3.4569,-3.435,-3.3894,-3.3699,-3.3435,-3.3501,-3.4166,-3.4489,-3.4489,-3.4412,-3.4366,-3.4197,-3.3614,-3.329,-3.3093,-3.2744,-3.2382,-3.232,-3.2163,-3.2066,-3.194,-3.187,-3.1756,-3.1568,-3.1539,-3.1496,-3.1496,-3.1496,-3.1511,-3.1542,-3.1513,-3.1277,-3.0924,-2.9845,-2.9196,-2.9219,-2.9167,-2.8845,-2.8468,-2.8433,-2.815,-2.7764,-2.7555,-2.7555,-2.7542,-2.7516,-2.7503,-2.7503,-2.7503,-2.7503,-2.7503,-2.7503,-2.7503,-2.7503,-2.7503,-2.7503,-2.7503,-2.7503,-2.7503,-2.7503,-2.7503,-2.7503,-2.7365,-2.7124,-2.6824,-2.644,-2.5794,-2.5256,-2.4938,-2.4463,-2.4003,-2.3803,-2.3891,-2.3916,-2.3879,-2.3841,-2.3753,-2.3421,-2.3108,-2.3095,-2.3095,-2.3095,-2.3095,-2.3095,-2.3095,-2.3095,-4.3479,-4.3479,-4.3479,-4.3463,-4.3375,-4.2957,-4.2462,-4.1892,-4.1071,-4.0517,-4.0313,-4.0213,-4.0146,-4.0096,-4.0062,-4.0045,-4.0062,-4.0079,-3.9994,-3.9411,-3.9757,-3.9605,-3.9174,-3.8836,-3.865,-3.8091,-3.7449,-3.6692,-3.6152,-3.5388,-3.4835,-3.4366,-3.3563,-3.3058,-3.3011,-3.3383,-3.3767,-3.3752,-3.3737,-3.3721,-3.3675,-3.3136,-3.2767,-3.2767,-3.2465,-3.2302,-3.2259,-3.215,-3.1981,-3.1883,-3.1798,-3.1698,-3.1539,-3.1496,-3.1496,-3.1496,-3.1496,-3.1248,-3.0851,-3.0499,-3.0159,-2.9913,-2.9446,-2.8673,-2.8266,-2.8166,-2.7966,-2.7904,-2.7889,-2.7686,-2.7542,-2.7516,-2.7516,-2.7516,-2.7503,-2.7503,-2.7503,-2.7503,-2.7503,-2.7503,-2.7503,-2.7503,-2.7503,-2.7503,-2.7503,-2.7503,-2.7503,-2.7503,-2.7503,-2.7503,-2.7503,-2.7456,-2.7267,-2.6959,-2.6563,-2.6032,-2.5339,-2.4785,-2.4355,-2.3859,-2.3791,-2.3791,-2.3678,-2.354,-2.3715,-2.3828,-2.3409,-2.3095,-2.3095,-2.3095,-2.3095,-2.3095,-2.3095,-2.3095,-2.3095,-4.3479,-4.3479,-4.3479,-4.3357,-4.3123,-4.2826,-4.234,-4.1569,-4.0652,-4.0238,-4.0213,-4.0138,-4.0096,-4.0045,-3.9842,-3.9706,-3.9665,-3.9402,-3.9249,-3.8684,-3.908,-3.8886,-3.8684,-3.8633,-3.8447,-3.8311,-3.778,-3.703,-3.6343,-3.5607,-3.4832,-3.4109,-3.3547,-3.298,-3.2748,-3.2875,-3.3059,-3.3059,-3.3044,-3.3044,-3.2936,-3.2675,-3.2444,-3.2416,-3.233,-3.2231,-3.2176,-3.2064,-3.191,-3.1811,-3.1741,-3.1641,-3.1539,-3.1496,-3.1496,-3.1496,-3.1438,-3.1248,-3.0911,-3.0343,-3.0066,-2.9623,-2.8725,-2.8006,-2.759,-2.7655,-2.7609,-2.7542,-2.7503,-2.7503,-2.7503,-2.7503,-2.7503,-2.7503,-2.7503,-2.7503,-2.7503,-2.7503,-2.7503,-2.7503,-2.7503,-2.7503,-2.7503,-2.7503,-2.7503,-2.7503,-2.7503,-2.7503,-2.7503,-2.7503,-2.7503,-2.7456,-2.741,-2.7194,-2.6861,-2.6432,-2.564,-2.474,-2.4203,-2.3734,-2.3459,-2.3409,-2.3296,-2.3263,-2.3414,-2.3434,-2.3258,-2.3095,-2.3095,-2.3095,-2.3095,-2.3095,-2.3095,-2.3095,-2.3095,-4.3478,-4.3479,-4.346,-4.3123,-4.2697,-4.238,-4.1813,-4.0955,-4.036,-4.0062,-4.0028,-3.9977,-3.9859,-3.9791,-3.9242,-3.8971,-3.8903,-3.8345,-3.8075,-3.799,-3.8193,-3.8007,-3.799,-3.7973,-3.821,-3.8091,-3.7722,-3.7167,-3.6197,-3.5456,-3.4601,-3.3768,-3.3355,-3.2949,-3.2715,-3.2545,-3.2595,-3.2598,-3.2598,-3.2613,-3.2536,-3.2475,-3.237,-3.2315,-3.2219,-3.2107,-3.201,-3.1811,-3.1683,-3.1568,-3.1539,-3.1511,-3.1496,-3.1496,-3.1496,-3.1496,-3.1496,-3.1278,-3.097,-3.0343,-2.9735,-2.9048,-2.8208,-2.7689,-2.7536,-2.7503,-2.7503,-2.7503,-2.7503,-2.7503,-2.7503,-2.7503,-2.7503,-2.7503,-2.7503,-2.7503,-2.7503,-2.7503,-2.7503,-2.7503,-2.7503,-2.7503,-2.7503,-2.7503,-2.7503,-2.7503,-2.7503,-2.7503,-2.7503,-2.7503,-2.7503,-2.7503,-2.7443,-2.7417,-2.7011,-2.6361,-2.5576,-2.457,-2.4102,-2.3664,-2.3364,-2.3158,-2.3158,-2.3158,-2.312,-2.3095,-2.3095,-2.3095,-2.3095,-2.3095,-2.3095,-2.3095,-2.3095,-2.3095,-2.3095,-4.2965,-4.3441,-4.2892,-4.2357,-4.1753,-4.0486,-4.0219,-4.0716,-4.0311,-3.9842,-3.9334,-3.9334,-3.9089,-3.8514,-3.8294,-3.8227,-3.8142,-3.7956,-3.755,-3.7449,-3.7466,-3.7415,-3.7432,-3.7533,-3.8075,-3.8294,-3.8053,-3.7381,-3.6489,-3.5596,-3.4511,-3.385,-3.3277,-3.3013,-3.2815,-3.2602,-3.248,-3.2398,-3.2398,-3.2398,-3.2398,-3.2398,-3.237,-3.2274,-3.2191,-3.2079,-3.1968,-3.1813,-3.1698,-3.1698,-3.1568,-3.1511,-3.1496,-3.1496,-3.1496,-3.1438,-3.1087,-3.0584,-3.0086,-2.947,-2.8903,-2.8454,-2.7776,-2.7623,-2.7503,-2.7503,-2.7503,-2.7503,-2.7503,-2.7503,-2.7503,-2.7503,-2.7503,-2.7503,-2.7503,-2.7503,-2.7503,-2.7503,-2.7503,-2.7503,-2.7503,-2.7503,-2.7503,-2.7503,-2.7503,-2.7503,-2.7503,-2.7503,-2.7503,-2.7503,-2.7503,-2.7503,-2.73,-2.7189,-2.655,-2.5858,-2.5173,-2.4438,-2.3965,-2.3581,-2.3288,-2.312,-2.3108,-2.3095,-2.3095,-2.3095,-2.3095,-2.3095,-2.3095,-2.3095,-2.3095,-2.3095,-2.3095,-2.3095,-2.3095,-4.2103,-4.2451,-4.2047,-4.1413,-4.0563,-3.9108,-3.8974,-3.9518,-3.9355,-3.8937,-3.8582,-3.8565,-3.8311,-3.7973,-3.7669,-3.7466,-3.7432,-3.7009,-3.6637,-3.6586,-3.6857,-3.6603,-3.6637,-3.6874,-3.7516,-3.7922,-3.7877,-3.7107,-3.6322,-3.4639,-3.3319,-3.3266,-3.2975,-3.2949,-3.2749,-3.2547,-3.2425,-3.2398,-3.2398,-3.2398,-3.2398,-3.2398,-3.2358,-3.2302,-3.2231,-3.215,-3.2081,-3.1912,-3.1841,-3.1841,-3.1712,-3.167,-3.1655,-3.1655,-3.1524,-3.1438,-3.0896,-3.0494,-3.0025,-2.9093,-2.8449,-2.7941,-2.7623,-2.7503,-2.7503,-2.7503,-2.7503,-2.7503,-2.7503,-2.7503,-2.7503,-2.7503,-2.7503,-2.7503,-2.7503,-2.7503,-2.7503,-2.7503,-2.7503,-2.7503,-2.7503,-2.7503,-2.7503,-2.7503,-2.7503,-2.7503,-2.7503,-2.7503,-2.7503,-2.7503,-2.7503,-2.7503,-2.7196,-2.6882,-2.6162,-2.5525,-2.4861,-2.4296,-2.3811,-2.3435,-2.3193,-2.3095,-2.3095,-2.3095,-2.3095,-2.3095,-2.3095,-2.3095,-2.3095,-2.3095,-2.3095,-2.3095,-2.3095,-2.3095,-2.3095,-4.1058,-4.1134,-4.0956,-4.0239,-3.9237,-3.815,-3.7716,-3.7696,-3.7719,-3.777,-3.7787,-3.7821,-3.7736,-3.733,-3.6924,-3.6705,-3.6569,-3.6197,-3.5988,-3.5633,-3.5887,-3.5853,-3.5819,-3.5752,-3.6755,-3.7212,-3.7212,-3.6716,-3.5656,-3.4144,-3.2857,-3.2425,-3.248,-3.252,-3.252,-3.2465,-3.2398,-3.2398,-3.2398,-3.2398,-3.2398,-3.2398,-3.2398,-3.2358,-3.2274,-3.2163,-3.2107,-3.1981,-3.187,-3.1912,-3.1912,-3.187,-3.1841,-3.1769,-3.1626,-3.1248,-3.0718,-3.0329,-2.9766,-2.8949,-2.8449,-2.8059,-2.7829,-2.759,-2.7503,-2.7503,-2.7503,-2.7503,-2.7503,-2.7503,-2.7503,-2.7503,-2.7503,-2.7503,-2.7503,-2.7503,-2.7503,-2.7503,-2.7503,-2.7503,-2.7503,-2.7503,-2.7503,-2.7503,-2.7503,-2.7503,-2.7503,-2.7503,-2.7503,-2.7503,-2.7464,-2.7451,-2.7065,-2.6668,-2.6058,-2.5395,-2.4697,-2.4144,-2.3661,-2.3432,-2.3253,-2.3168,-2.3095,-2.3095,-2.3095,-2.3095,-2.3095,-2.3095,-2.3095,-2.3095,-2.3095,-2.3095,-2.3095,-2.3095,-2.3095,-4.0561,-4.0954,-3.968,-3.8593,-3.766,-3.6728,-3.6282,-3.614,-3.6157,-3.6535,-3.6981,-3.7009,-3.6738,-3.6315,-3.6163,-3.6011,-3.5876,-3.5825,-3.565,-3.5616,-3.5616,-3.5616,-3.5616,-3.565,-3.6248,-3.6688,-3.6734,-3.6204,-3.5159,-3.3816,-3.2734,-3.2453,-3.2398,-3.2398,-3.2398,-3.2398,-3.2398,-3.2398,-3.2398,-3.2398,-3.2398,-3.237,-3.237,-3.2302,-3.2219,-3.2178,-3.2094,-3.201,-3.1968,-3.2012,-3.1968,-3.1927,-3.1826,-3.167,-3.1583,-3.1322,-3.0419,-2.9936,-2.9425,-2.8661,-2.8006,-2.7822,-2.759,-2.7556,-2.7503,-2.7503,-2.7503,-2.7503,-2.7503,-2.7503,-2.7503,-2.7503,-2.7503,-2.7503,-2.7503,-2.7503,-2.7503,-2.7503,-2.7503,-2.7503,-2.7503,-2.7503,-2.7503,-2.7503,-2.7503,-2.7503,-2.7503,-2.7503,-2.7503,-2.749,-2.7398,-2.734,-2.6948,-2.6492,-2.5844,-2.5161,-2.4389,-2.3935,-2.3504,-2.3368,-2.3313,-2.3198,-2.3095,-2.3095,-2.3095,-2.3095,-2.3095,-2.3095,-2.3095,-2.3095,-2.3095,-2.3095,-2.3095,-2.3095,-2.3095,-3.9625,-3.9843,-3.851,-3.7542,-3.6856,-3.6049,-3.5667,-3.5622,-3.5616,-3.5859,-3.6214,-3.6231,-3.6011,-3.5616,-3.5616,-3.5616,-3.5616,-3.5616,-3.5616,-3.5616,-3.5616,-3.5616,-3.5616,-3.5633,-3.618,-3.6563,-3.6078,-3.5456,-3.4558,-3.3514,-3.2602,-3.2425,-3.2398,-3.2398,-3.2398,-3.2398,-3.2398,-3.2398,-3.2398,-3.2398,-3.2398,-3.2398,-3.237,-3.2302,-3.2274,-3.2206,-3.2122,-3.2038,-3.1996,-3.2012,-3.2012,-3.1912,-3.1813,-3.1727,-3.1438,-3.0896,-3.0133,-2.9334,-2.8889,-2.8241,-2.7523,-2.7503,-2.7503,-2.7503,-2.7503,-2.7503,-2.7503,-2.7503,-2.7503,-2.7503,-2.7503,-2.7503,-2.7503,-2.7503,-2.7503,-2.7503,-2.7503,-2.7503,-2.7503,-2.7503,-2.7503,-2.7503,-2.7503,-2.7503,-2.7503,-2.7503,-2.7503,-2.7503,-2.7503,-2.7425,-2.7346,-2.7118,-2.6687,-2.6017,-2.5174,-2.4561,-2.397,-2.3607,-2.339,-2.3271,-2.3198,-2.3138,-2.3095,-2.3095,-2.3095,-2.3095,-2.3095,-2.3095,-2.3095,-2.3095,-2.3095,-2.3095,-2.3095,-2.3095,-2.3095,-3.8679,-3.8483,-3.7614,-3.696,-3.6498,-3.5876,-3.56,-3.5616,-3.5616,-3.5616,-3.5667,-3.5667,-3.5616,-3.5616,-3.5616,-3.5616,-3.5616,-3.5616,-3.5616,-3.5616,-3.5616,-3.5616,-3.5616,-3.565,-3.5977,-3.5847,-3.5399,-3.4707,-3.3921,-3.3108,-3.2683,-3.248,-3.2398,-3.2398,-3.2398,-3.2398,-3.2398,-3.2398,-3.2398,-3.2398,-3.2398,-3.2398,-3.2398,-3.2398,-3.2398,-3.2315,-3.2219,-3.2122,-3.2053,-3.1983,-3.1983,-3.1898,-3.1813,-3.1698,-3.138,-3.0822,-3.0042,-2.9362,-2.8789,-2.8059,-2.7656,-2.7503,-2.7503,-2.7503,-2.7503,-2.7503,-2.7503,-2.7503,-2.7503,-2.7503,-2.7503,-2.7503,-2.7503,-2.7503,-2.7503,-2.7503,-2.7503,-2.7503,-2.7503,-2.7503,-2.7503,-2.7503,-2.7503,-2.7503,-2.7503,-2.7503,-2.7503,-2.7503,-2.7464,-2.7333,-2.7229,-2.6785,-2.6282,-2.5512,-2.4713,-2.4214,-2.3756,-2.3556,-2.336,-2.3228,-2.3095,-2.3095,-2.3095,-2.3095,-2.3095,-2.3095,-2.3095,-2.3095,-2.3095,-2.3095,-2.3095,-2.3095,-2.3095,-2.3095,-2.3095,-3.8449,-3.7997,-3.7451,-3.6902,-3.6374,-3.5849,-3.5616,-3.5616,-3.5616,-3.5616,-3.5616,-3.5616,-3.5616,-3.5616,-3.5616,-3.5616,-3.5616,-3.5616,-3.5616,-3.5616,-3.5616,-3.5616,-3.5616,-3.5616,-3.5417,-3.516,-3.4718,-3.3998,-3.3614,-3.3224,-3.2803,-3.2437,-3.2398,-3.2398,-3.2398,-3.2398,-3.2398,-3.2398,-3.2398,-3.2398,-3.2398,-3.2398,-3.2398,-3.2398,-3.2398,-3.2315,-3.2219,-3.2163,-3.2094,-3.2012,-3.1898,-3.1813,-3.1756,-3.1641,-3.1307,-3.0777,-2.9981,-2.9362,-2.8712,-2.796,-2.759,-2.7503,-2.7503,-2.7503,-2.7503,-2.7503,-2.7503,-2.7503,-2.7503,-2.7503,-2.7503,-2.7503,-2.7503,-2.7503,-2.7503,-2.7503,-2.7503,-2.7503,-2.7503,-2.7503,-2.7503,-2.7503,-2.7503,-2.7503,-2.7503,-2.7503,-2.7503,-2.7503,-2.7503,-2.732,-2.715,-2.6589,-2.6059,-2.5418,-2.4796,-2.4219,-2.3811,-2.3565,-2.336,-2.3228,-2.3138,-2.3095,-2.3095,-2.3095,-2.3095,-2.3095,-2.3095,-2.3095,-2.3095,-2.3095,-2.3095,-2.3095,-2.3095,-2.3095,-2.3095]},{"header":{"parameterUnit":"m.s-1","parameterCategory":1,"la1":31.0,"la2":29.5877,"lo1":-88.7671,"lo2":-86.6584,"dy":0.0162,"dx":0.0185,"nx":115,"ny":88,"refTime":"2023-08-02T18:00:00:Z","depth":0,"parameterNumber":3,"parameterNumberName":"V-component_of_WINDS"},"data":[0.0,0.0,0.0,0.0,0.0,0.0,0.0,0.0,0.0,0.0,0.0,0.0,0.0,0.0,0.0,0.0,0.0,0.0,0.0,0.0,0.0,0.0,0.0,0.0,0.0,0.0,0.0,0.0,0.0,0.0,0.0,0.0,0.0,0.0,0.0,0.0,0.0,0.0,0.0,0.0,0.0,0.0,0.0,0.0,0.0,0.0,0.0,0.0,0.0,0.0,0.0,0.0,0.0,0.0,0.0,0.0,0.0,0.0,0.0,0.0,0.0,0.0,0.0,0.0,0.0,0.0,0.0,0.0,0.0,0.0,0.0,0.0,0.0,0.0,0.0,0.0,0.0,0.0,0.0,0.0,0.0,0.0,0.0,0.0,0.0,0.0,0.0,0.0,0.0,0.0,0.0,0.0,0.0,0.0,0.0,0.0,0.0,0.0,0.0,0.0,0.0,0.0,0.0,0.0,0.0,0.0,0.0,0.0,0.0,0.0,0.0,0.0,0.0,0.0,0.0,0.0,0.0,0.0,0.0,0.0,0.0,0.0,0.0,0.0,0.0,0.0,0.0,0.0,0.0,0.0,0.0,0.0,0.0,0.0,0.0,0.0,0.0,0.0,0.0,0.0,0.0,0.0,0.0,0.0,0.0,0.0,0.0,0.0,0.0,0.0,0.0,0.0,0.0,0.0,0.0,0.0,0.0,0.0,0.0,0.0,0.0,0.0,0.0,0.0,0.0,0.0,0.0,0.0,0.0,0.0,0.0,0.0,0.0,0.0,0.0,0.0,0.0,0.0,0.0,0.0,0.0,0.0,0.0,0.0,0.0,0.0,0.0,0.0,0.0,0.0,0.0,0.0,0.0,0.0,0.0,0.0,0.0,0.0,0.0,0.0,0.0,0.0,0.0,0.0,0.0,0.0,0.0,0.0,0.0,0.0,0.0,0.0,0.0,0.0,0.0,0.0,0.0,0.0,0.0,0.0,0.0,0.0,0.0,0.0,0.0,0.0,0.0,0.0,0.0,0.0,0.0,0.0,0.0,0.0,0.0,0.0,0.0,0.0,0.0,0.0,0.0,0.0,0.0,0.0,0.0,0.0,0.0,0.0,0.0,0.0,0.0,0.0,0.0,0.0,0.0,0.0,0.0,0.0,0.0,0.0,0.0,0.0,0.0,0.0,0.0,0.0,0.0,0.0,0.0,0.0,0.0,0.0,0.0,0.0,0.0,0.0,0.0,0.0,0.0,0.0,0.0,0.0,0.0,0.0,0.0,0.0,0.0,0.0,0.0,0.0,0.0,0.0,0.0,0.0,0.0,0.0,0.0,0.0,0.0,0.0,0.0,0.0,0.0,0.0,0.0,0.0,0.0,0.0,0.0,0.0,0.0,0.0,0.0,0.0,0.0,0.0,0.0,0.0,0.0,0.0,0.0,0.0,0.0,0.0,0.0,0.0,0.0,0.0,0.0,0.0,0.0,0.0,0.0,0.0,0.0,0.0,0.0,0.0,0.0,0.0,0.0,0.0,0.0,0.0,0.0,0.0,0.0,0.0,0.0,0.0,0.0,0.0,0.0,0.0,0.0,0.0,0.0,0.0,0.0,0.0,0.0,0.0,0.0,0.0,0.0,0.0,0.0,0.0,0.0,0.0,0.0,0.0,0.0,0.0,0.0,0.0,0.0,0.0,0.0,0.0,0.0,0.0,0.0,0.0,0.0,0.0,0.0,0.0,0.0,0.0,0.0,0.0,0.0,0.0,0.0,0.0,0.0,0.0,0.0,0.0,0.0,0.0,0.0,0.0,0.0,0.0,0.0,0.0,0.0,0.0,0.0,0.0,0.0,0.0,0.0,0.0,0.0,0.0,0.0,0.0,0.0,0.0,0.0,0.0,0.0,0.0,0.0,0.0,0.0,0.0,0.0,0.0,0.0,0.0,0.0,0.0,0.0,0.0,0.0,0.0,0.0,0.0,0.0,0.0,0.0,0.0,0.0,0.0,0.0,0.0,0.0,0.0,0.0,0.0,0.0,0.0,0.0,0.0,0.0,0.0,0.0,0.0,0.0,0.0,0.0,0.0,0.0,0.0,0.0,0.0,0.0,0.0,0.0,0.0,0.0,0.0,0.0,0.0,0.0,0.0,0.0,0.0,0.0,0.0,0.0,0.0,0.0,0.0,0.0,0.0,0.0,0.0,0.0,0.0,0.0,0.0,0.0,0.0,0.0,0.0,0.0,0.0,0.0,0.0,0.0,0.0,0.0,0.0,0.0,0.0,0.0,0.0,0.0,0.0,0.0,0.0,0.0,0.0,0.0,0.0,0.0,0.0,0.0,0.0,0.0,0.0,0.0,0.0,0.0,0.0,0.0,0.0,0.0,0.0,0.0,0.0,0.0,0.0,0.0,0.0,0.0,0.0,0.0,0.0,0.0,0.0,0.0,0.0,0.0,0.0,0.0,0.0,0.0,0.0,0.0,0.0,0.0,0.0,0.0,0.0,0.0,0.0,0.0,0.0,0.0,0.0,0.0,0.0,0.0,0.0,0.0,0.0,0.0,0.0,0.0,0.0,0.0,0.0,0.0,0.0,0.0,0.0,0.0,0.0,0.0,0.0,0.0,0.0,0.0,0.0,0.0,0.0,0.0,0.0,0.0,0.0,0.0,0.0,0.0,0.0,0.0,0.0,0.0,0.0,0.0,0.0,0.0,0.0,0.0,0.0,0.0,0.0,0.0,0.0,0.0,0.0,0.0,0.0,0.0,0.0,0.0,0.0,0.0,0.0,0.0,0.0,0.0,0.0,0.0,0.0,0.0,0.0,0.0,0.0,0.0,0.0,0.0,0.0,0.0,0.0,0.0,0.0,0.0,0.0,0.0,0.0,0.0,0.0,0.0,0.0,0.0,0.0,0.0,0.0,0.0,0.0,0.0,0.0,0.0,0.0,0.0,0.0,0.0,0.0,0.0,0.0,0.0,0.0,0.0,0.0,0.0,0.0,0.0,0.0,0.0,0.0,0.0,0.0,0.0,0.0,0.0,0.0,0.0,0.0,0.0,0.0,0.0,0.0,0.0,0.0,0.0,0.0,0.0,0.0,0.0,0.0,0.0,0.0,0.0,0.0,0.0,0.0,0.0,0.0,0.0,0.0,0.0,0.0,0.0,0.0,0.0,0.0,0.0,0.0,0.0,0.0,0.0,0.0,0.0,0.0,0.0,0.0,0.0,0.0,0.0,0.0,0.0,0.0,0.0,0.0,0.0,0.0,0.0,0.0,0.0,0.0,0.0,0.0,0.0,0.0,0.0,0.0,0.0,0.0,0.0,0.0,0.0,0.0,0.0,0.0,0.0,0.0,0.0,0.0,0.0,0.0,0.0,0.0,0.0,0.0,0.0,0.0,0.0,0.0,0.0,0.0,0.0,0.0,0.0,0.0,0.0,0.0,0.0,0.0,0.0,0.0,0.0,0.0,0.0,0.0,0.0,0.0,0.0,0.0,0.0,0.0,0.0,0.0,0.0,0.0,0.0,0.0,0.0,0.0,0.0,0.0,0.0,0.0,0.0,0.0,0.0,0.0,0.0,0.0,0.0,0.0,0.0,0.0,0.0,0.0,0.0,0.0,0.0,0.0,0.0,0.0,0.0,0.0,0.0,0.0,0.0,0.0,0.0,0.0,0.0,0.0,0.0,0.0,0.0,0.0,0.0,0.0,0.0,0.0,0.0,0.0,0.0,0.0,0.0,0.0,0.0,0.0,0.0,0.0,0.0,0.0,0.0,0.0,0.0,0.0,0.0,0.0,0.0,0.0,0.0,0.0,0.0,0.0,0.0,0.0,0.0,0.0,0.0,0.0,0.0,0.0,0.0,0.0,0.0,0.0,0.0,0.0,0.0,0.0,0.0,0.0,0.0,0.0,0.0,0.0,0.0,0.0,0.0,0.0,0.0,0.0,0.0,0.0,0.0,0.0,0.0,0.0,0.0,0.0,0.0,0.0,0.0,0.0,0.0,0.0,0.0,0.0,0.0,0.0,0.0,0.0,0.0,0.0,0.0,0.0,0.0,0.0,0.0,0.0,0.0,0.0,0.0,0.0,0.0,0.0,0.0,0.0,0.0,0.0,0.0,0.0,0.0,0.0,0.0,0.0,0.0,0.0,0.0,0.0,0.0,0.0,0.0,0.0,0.0,0.0,0.0,0.0,0.0,0.0,0.0,0.0,0.0,0.0,0.0,0.0,0.0,0.0,0.0,0.0,0.0,0.0,0.0,0.0,0.0,0.0,0.0,0.0,0.0,0.0,0.0,0.0,-1.1966,0.0,0.0,0.0,0.0,0.0,0.0,0.0,0.0,0.0,0.0,0.0,0.0,0.0,0.0,0.0,0.0,0.0,0.0,0.0,0.0,0.0,0.0,0.0,0.0,0.0,0.0,0.0,0.0,0.0,0.0,0.0,0.0,0.0,0.0,0.0,0.0,0.0,0.0,0.0,0.0,0.0,0.0,0.0,0.0,0.0,0.0,0.0,0.0,0.0,0.0,0.0,0.0,0.0,0.0,0.0,0.0,0.0,0.0,0.0,0.0,0.0,0.0,0.0,0.0,0.0,0.0,0.0,0.0,0.0,0.0,0.0,0.0,0.0,0.0,0.0,0.0,0.0,0.0,0.0,0.0,0.0,0.0,0.0,0.0,0.0,0.0,0.0,0.0,0.0,0.0,0.0,0.0,0.0,0.0,0.0,0.0,0.0,0.0,0.0,0.0,0.0,0.0,0.0,0.0,0.0,0.0,0.0,0.0,0.0,0.0,-1.0738,-1.0731,-1.0731,-1.0855,-1.1146,0.0,0.0,0.0,0.0,0.0,0.0,0.0,0.0,0.0,0.0,0.0,0.0,0.0,0.0,0.0,0.0,0.0,0.0,0.0,0.0,0.0,0.0,0.0,0.0,0.0,0.0,0.0,0.0,0.0,0.0,0.0,0.0,0.0,0.0,0.0,0.0,0.0,0.0,0.0,0.0,0.0,0.0,0.0,0.0,0.0,0.0,0.0,0.0,0.0,0.0,0.0,0.0,0.0,0.0,0.0,0.0,0.0,0.0,0.0,0.0,0.0,0.0,0.0,0.0,0.0,0.0,0.0,0.0,0.0,0.0,0.0,0.0,0.0,0.0,0.0,0.0,0.0,0.0,0.0,0.0,0.0,0.0,0.0,0.0,0.0,0.0,0.0,0.0,0.0,0.0,0.0,0.0,0.0,0.0,0.0,0.0,0.0,0.0,0.0,0.0,0.0,0.0,0.0,0.0,0.0,0.0,0.0,0.0,0.0,0.0,0.0,0.0,-1.102,-1.0928,-1.07,0.0,0.0,0.0,0.0,0.0,0.0,0.0,0.0,0.0,0.0,0.0,0.0,0.0,0.0,0.0,0.0,0.0,0.0,0.0,0.0,0.0,0.0,0.0,0.0,0.0,0.0,0.0,0.0,0.0,0.0,0.0,0.0,0.0,0.0,0.0,0.0,0.0,0.0,0.0,0.0,0.0,0.0,0.0,0.0,0.0,0.0,0.0,0.0,0.0,0.0,0.0,0.0,0.0,0.0,0.0,0.0,0.0,0.0,0.0,0.0,0.0,0.0,0.0,0.0,0.0,0.0,0.0,0.0,0.0,0.0,0.0,0.0,0.0,0.0,0.0,0.0,0.0,0.0,0.0,0.0,0.0,0.0,0.0,0.0,0.0,0.0,0.0,0.0,0.0,0.0,0.0,0.0,0.0,0.0,0.0,0.0,0.0,0.0,0.0,0.0,0.0,0.0,0.0,0.0,0.0,0.0,0.0,0.0,0.0,0.0,-1.1728,-1.2559,-1.2572,0.0,-1.2445,0.0,0.0,0.0,0.0,0.0,0.0,0.0,0.0,0.0,0.0,0.0,0.0,0.0,0.0,0.0,0.0,0.0,0.0,0.0,0.0,0.0,0.0,0.0,0.0,0.0,0.0,0.0,0.0,0.0,0.0,0.0,0.0,0.0,0.0,0.0,0.0,0.0,0.0,0.0,0.0,0.0,0.0,0.0,0.0,0.0,0.0,0.0,0.0,0.0,0.0,0.0,0.0,0.0,0.0,0.0,0.0,0.0,0.0,0.0,0.0,0.0,0.0,0.0,0.0,0.0,0.0,0.0,0.0,0.0,0.0,0.0,0.0,0.0,0.0,0.0,0.0,0.0,0.0,0.0,0.0,0.0,0.0,0.0,0.0,0.0,0.0,0.0,0.0,0.0,0.0,0.0,0.0,0.0,0.0,0.0,0.0,0.0,0.0,0.0,0.0,0.0,0.0,0.0,0.0,0.0,0.0,0.0,0.0,0.0,0.0,-1.2198,-1.277,-1.2739,-1.2712,0.0,0.0,0.0,0.0,0.0,0.0,0.0,0.0,0.0,0.0,0.0,0.0,0.0,0.0,0.0,0.0,0.0,0.0,0.0,0.0,0.0,0.0,0.0,0.0,0.0,0.0,0.0,0.0,0.0,0.0,0.0,0.0,0.0,0.0,0.0,0.0,0.0,0.0,0.0,0.0,0.0,0.0,0.0,0.0,0.0,0.0,0.0,0.0,0.0,0.0,0.0,0.0,0.0,0.0,0.0,0.0,0.0,0.0,0.0,0.0,0.0,0.0,0.0,0.0,0.0,0.0,0.0,0.0,0.0,0.0,0.0,0.0,0.0,0.0,0.0,0.0,0.0,0.0,0.0,0.0,0.0,0.0,0.0,0.0,0.0,0.0,0.0,0.0,0.0,0.0,0.0,0.0,0.0,0.0,0.0,0.0,0.0,0.0,0.0,0.0,0.0,0.0,0.0,0.0,0.0,0.0,0.0,0.0,0.0,0.0,-1.2064,-1.2525,-1.2985,-1.3075,-1.2978,-1.2772,0.0,0.0,0.0,0.0,0.0,0.0,0.0,0.0,0.0,0.0,0.0,0.0,0.0,0.0,0.0,0.0,0.0,0.0,0.0,0.0,0.0,0.0,0.0,0.0,0.0,0.0,0.0,0.0,0.0,0.0,0.0,0.0,0.0,0.0,0.0,0.0,0.0,0.0,0.0,0.0,0.0,0.0,0.0,0.0,0.0,0.0,0.0,0.0,0.0,0.0,0.0,0.0,0.0,0.0,0.0,0.0,0.0,0.0,0.0,0.0,0.0,0.0,0.0,0.0,0.0,0.0,0.0,0.0,0.0,0.0,0.0,0.0,0.0,0.0,0.0,0.0,0.0,0.0,0.0,0.0,0.0,0.0,0.0,0.0,0.0,0.0,0.0,0.0,0.0,0.0,0.0,0.0,0.0,0.0,0.0,0.0,0.0,0.0,0.0,0.0,0.0,0.0,0.0,0.0,0.0,0.0,0.0,0.0,-1.2979,-1.2579,-1.2726,-1.354,-1.3841,-1.3743,0.0,0.0,0.0,0.0,0.0,0.0,0.0,0.0,0.0,0.0,0.0,0.0,0.0,0.0,0.0,0.0,0.0,0.0,0.0,0.0,0.0,0.0,0.0,0.0,0.0,0.0,0.0,0.0,0.0,0.0,0.0,0.0,0.0,0.0,0.0,0.0,0.0,0.0,0.0,0.0,0.0,0.0,0.0,0.0,0.0,0.0,0.0,0.0,0.0,0.0,0.0,0.0,0.0,0.0,0.0,0.0,0.0,0.0,0.0,0.0,0.0,0.0,0.0,0.0,0.0,0.0,0.0,0.0,0.0,0.0,0.0,0.0,0.0,0.0,0.0,0.0,0.0,0.0,0.0,0.0,0.0,0.0,0.0,0.0,0.0,0.0,0.0,0.0,0.0,0.0,0.0,0.0,0.0,0.0,0.0,0.0,0.0,0.0,0.0,0.0,0.0,0.0,0.0,0.0,0.0,0.0,0.0,0.0,0.0,-1.2008,-1.2592,-1.3394,-1.4439,-1.3832,-1.3512,0.0,0.0,0.0,0.0,0.0,0.0,0.0,0.0,0.0,0.0,0.0,0.0,0.0,0.0,0.0,0.0,0.0,0.0,0.0,0.0,0.0,0.0,0.0,0.0,0.0,0.0,0.0,0.0,0.0,0.0,0.0,0.0,0.0,0.0,0.0,0.0,0.0,0.0,0.0,0.0,0.0,0.0,0.0,0.0,0.0,0.0,0.0,0.0,0.0,0.0,0.0,0.0,0.0,0.0,0.0,0.0,0.0,0.0,0.0,0.0,0.0,0.0,0.0,0.0,0.0,0.0,0.0,0.0,0.0,0.0,0.0,0.0,0.0,0.0,0.0,0.0,0.0,0.0,0.0,0.0,0.0,0.0,0.0,0.0,0.0,0.0,0.0,0.0,0.0,0.0,0.0,0.0,0.0,0.0,0.0,0.0,0.0,0.0,0.0,0.0,0.0,0.0,0.0,0.0,0.0,0.0,0.0,0.0,0.0,-1.2101,0.0,-1.4028,-1.4486,-1.3839,-1.3494,0.0,0.0,0.0,0.0,0.0,0.0,0.0,0.0,0.0,0.0,0.0,0.0,0.0,0.0,0.0,0.0,0.0,0.0,0.0,0.0,0.0,0.0,0.0,0.0,0.0,0.0,0.0,0.0,0.0,0.0,0.0,0.0,0.0,0.0,0.0,0.0,0.0,0.0,0.0,0.0,0.0,0.0,0.0,0.0,0.0,0.0,0.0,0.0,0.0,0.0,0.0,0.0,0.0,0.0,0.0,0.0,0.0,0.0,0.0,0.0,0.0,0.0,0.0,0.0,0.0,0.0,0.0,0.0,0.0,0.0,0.0,0.0,0.0,0.0,0.0,0.0,0.0,0.0,0.0,0.0,0.0,0.0,0.0,0.0,0.0,0.0,0.0,0.0,0.0,0.0,0.0,0.0,0.0,0.0,0.0,0.0,0.0,0.0,0.0,0.0,0.0,0.0,0.0,0.0,0.0,0.0,0.0,0.0,-1.1877,-1.3513,-1.4442,-1.4553,-1.3666,-1.4029,-1.3717,0.0,0.0,0.0,0.0,0.0,0.0,0.0,0.0,0.0,0.0,0.0,0.0,0.0,0.0,0.0,0.0,0.0,0.0,0.0,0.0,0.0,0.0,0.0,0.0,0.0,0.0,0.0,0.0,0.0,0.0,0.0,0.0,0.0,0.0,0.0,0.0,0.0,0.0,0.0,0.0,0.0,0.0,0.0,0.0,0.0,0.0,0.0,0.0,0.0,0.0,0.0,0.0,0.0,0.0,0.0,0.0,0.0,0.0,0.0,0.0,0.0,0.0,0.0,0.0,0.0,0.0,0.0,0.0,0.0,0.0,0.0,0.0,0.0,0.0,0.0,0.0,0.0,0.0,0.0,0.0,0.0,0.0,0.0,0.0,0.0,0.0,0.0,0.0,0.0,0.0,0.0,0.0,0.0,0.0,0.0,0.0,0.0,0.0,0.0,0.0,0.0,0.0,0.0,0.0,0.0,0.0,0.0,0.0,0.0,-1.334,-1.4337,-1.4943,-1.5086,-1.4744,-1.4455,0.0,0.0,0.0,0.0,0.0,0.0,0.0,0.0,0.0,0.0,0.0,0.0,0.0,0.0,0.0,0.0,0.0,0.0,0.0,0.0,0.0,0.0,0.0,0.0,0.0,0.0,0.0,0.0,0.0,0.0,0.0,0.0,0.0,0.0,0.0,0.0,0.0,0.0,0.0,0.0,0.0,0.0,0.0,0.0,0.0,0.0,0.0,0.0,0.0,0.0,0.0,0.0,0.0,0.0,0.0,0.0,0.0,0.0,0.0,0.0,0.0,0.0,0.0,0.0,0.0,0.0,0.0,0.0,0.0,0.0,0.0,0.0,0.0,0.0,0.0,0.0,0.0,0.0,0.0,0.0,0.0,0.0,0.0,0.0,0.0,0.0,0.0,0.0,0.0,0.0,0.0,0.0,0.0,0.0,0.0,0.0,0.0,0.0,0.0,0.0,0.0,0.0,0.0,0.0,0.0,0.0,0.0,0.0,0.0,-1.4172,-1.5144,-1.5897,-1.6464,-1.575,-1.5276,-1.5107,0.0,0.0,0.0,0.0,0.0,0.0,0.0,0.0,0.0,0.0,0.0,0.0,0.0,0.0,0.0,0.0,0.0,0.0,0.0,0.0,0.0,0.0,0.0,0.0,0.0,0.0,0.0,0.0,0.0,0.0,0.0,0.0,0.0,0.0,0.0,0.0,0.0,0.0,0.0,0.0,0.0,0.0,0.0,0.0,0.0,0.0,0.0,0.0,0.0,0.0,0.0,0.0,0.0,0.0,0.0,0.0,0.0,0.0,0.0,0.0,0.0,0.0,0.0,0.0,0.0,0.0,0.0,0.0,0.0,0.0,0.0,0.0,0.0,0.0,0.0,0.0,0.0,0.0,0.0,0.0,0.0,0.0,0.0,0.0,0.0,0.0,0.0,0.0,0.0,0.0,0.0,0.0,0.0,0.0,0.0,0.0,0.0,0.0,0.0,0.0,0.0,0.0,0.0,0.0,0.0,0.0,0.0,0.0,-1.5803,-1.6765,-1.7425,-1.7727,-1.7024,-1.6259,0.0,0.0,0.0,0.0,0.0,0.0,0.0,0.0,0.0,0.0,0.0,0.0,0.0,0.0,0.0,0.0,0.0,0.0,0.0,0.0,0.0,0.0,0.0,0.0,0.0,0.0,0.0,0.0,0.0,0.0,0.0,0.0,0.0,0.0,0.0,0.0,0.0,0.0,0.0,0.0,0.0,0.0,0.0,0.0,0.0,0.0,0.0,0.0,0.0,0.0,0.0,0.0,0.0,0.0,0.0,0.0,0.0,0.0,0.0,0.0,0.0,0.0,0.0,0.0,0.0,0.0,0.0,0.0,0.0,0.0,0.0,0.0,0.0,0.0,0.0,0.0,0.0,0.0,0.0,0.0,0.0,0.0,0.0,0.0,0.0,0.0,0.0,0.0,0.0,0.0,0.0,0.0,0.0,0.0,0.0,0.0,0.0,0.0,0.0,0.0,0.0,0.0,0.0,0.0,0.0,0.0,0.0,0.0,0.0,-1.6878,-1.8636,-1.9504,-1.9351,-1.8475,-1.7982,0.0,0.0,0.0,0.0,0.0,0.0,0.0,0.0,0.0,0.0,0.0,0.0,0.0,0.0,0.0,0.0,0.0,0.0,0.0,0.0,0.0,0.0,0.0,0.0,0.0,0.0,0.0,0.0,0.0,0.0,0.0,0.0,0.0,0.0,0.0,0.0,0.0,0.0,0.0,0.0,0.0,0.0,0.0,0.0,0.0,0.0,0.0,0.0,0.0,0.0,0.0,0.0,0.0,0.0,0.0,0.0,0.0,0.0,0.0,0.0,0.0,0.0,0.0,0.0,0.0,0.0,0.0,0.0,0.0,0.0,0.0,0.0,0.0,0.0,0.0,0.0,0.0,0.0,0.0,0.0,0.0,0.0,0.0,0.0,0.0,0.0,0.0,0.0,0.0,0.0,0.0,0.0,0.0,0.0,0.0,0.0,0.0,0.0,0.0,0.0,0.0,0.0,0.0,0.0,0.0,0.0,0.0,0.0,-1.7653,-1.88,-2.0419,-2.142,-2.1711,-2.0643,-1.9853,0.0,0.0,0.0,0.0,0.0,0.0,0.0,0.0,0.0,0.0,0.0,0.0,0.0,0.0,0.0,0.0,0.0,0.0,0.0,0.0,0.0,0.0,0.0,0.0,0.0,0.0,0.0,0.0,0.0,0.0,0.0,0.0,0.0,0.0,0.0,0.0,0.0,0.0,0.0,0.0,0.0,0.0,0.0,0.0,0.0,0.0,0.0,0.0,0.0,0.0,0.0,0.0,0.0,0.0,0.0,0.0,0.0,0.0,0.0,0.0,0.0,0.0,0.0,0.0,0.0,0.0,0.0,0.0,0.0,0.0,0.0,0.0,0.0,0.0,0.0,0.0,0.0,0.0,0.0,0.0,0.0,0.0,0.0,0.0,0.0,0.0,0.0,0.0,0.0,0.0,0.0,0.0,0.0,0.0,0.0,0.0,0.0,0.0,0.0,0.0,0.0,0.0,0.0,0.0,0.0,0.0,0.0,0.0,-1.9736,-2.0881,-2.2048,-2.3144,-2.4002,-2.2876,-2.1559,0.0,0.0,0.0,0.0,0.0,0.0,0.0,0.0,0.0,0.0,0.0,0.0,0.0,0.0,0.0,0.0,0.0,0.0,0.0,0.0,0.0,0.0,0.0,0.0,0.0,0.0,0.0,0.0,0.0,0.0,0.0,0.0,0.0,0.0,0.0,0.0,0.0,0.0,0.0,0.0,0.0,0.0,0.0,0.0,0.0,0.0,0.0,0.0,0.0,0.0,0.0,0.0,0.0,0.0,0.0,0.0,0.0,0.0,0.0,0.0,0.0,0.0,0.0,0.0,0.0,0.0,0.0,0.0,0.0,0.0,0.0,0.0,0.0,0.0,0.0,0.0,0.0,0.0,0.0,0.0,0.0,0.0,0.0,0.0,0.0,0.0,0.0,0.0,0.0,0.0,0.0,0.0,0.0,0.0,0.0,0.0,0.0,0.0,0.0,0.0,0.0,0.0,0.0,0.0,0.0,0.0,0.0,0.0,-2.0056,-2.0881,-2.2788,-2.389,-2.4079,-2.2885,-2.2124,0.0,0.0,0.0,0.0,0.0,0.0,0.0,0.0,0.0,0.0,0.0,0.0,0.0,0.0,0.0,0.0,0.0,0.0,0.0,0.0,0.0,0.0,0.0,0.0,0.0,0.0,0.0,0.0,0.0,0.0,0.0,0.0,0.0,0.0,0.0,0.0,0.0,0.0,0.0,0.0,0.0,0.0,0.0,0.0,0.0,0.0,0.0,0.0,-1.9111,0.0,0.0,0.0,0.0,0.0,0.0,0.0,0.0,0.0,0.0,0.0,0.0,0.0,0.0,0.0,0.0,0.0,0.0,0.0,0.0,0.0,0.0,0.0,0.0,0.0,0.0,0.0,0.0,0.0,0.0,0.0,0.0,0.0,0.0,0.0,0.0,0.0,0.0,0.0,0.0,0.0,0.0,0.0,0.0,0.0,0.0,0.0,0.0,0.0,0.0,0.0,0.0,0.0,0.0,0.0,0.0,0.0,0.0,0.0,-2.1768,-2.2557,-2.4066,-2.4854,-2.4826,-2.4023,-2.3238,0.0,0.0,0.0,0.0,0.0,0.0,0.0,0.0,0.0,0.0,0.0,0.0,0.0,0.0,0.0,0.0,0.0,0.0,0.0,0.0,0.0,0.0,0.0,0.0,0.0,0.0,0.0,0.0,0.0,0.0,0.0,0.0,0.0,0.0,0.0,0.0,0.0,0.0,0.0,0.0,0.0,0.0,0.0,0.0,0.0,0.0,0.0,0.0,0.0,0.0,0.0,0.0,0.0,0.0,0.0,0.0,0.0,0.0,0.0,0.0,0.0,0.0,0.0,0.0,0.0,0.0,0.0,0.0,0.0,0.0,0.0,0.0,0.0,0.0,0.0,0.0,0.0,0.0,0.0,0.0,0.0,0.0,0.0,0.0,0.0,0.0,0.0,0.0,0.0,0.0,0.0,0.0,0.0,0.0,0.0,0.0,0.0,0.0,0.0,0.0,0.0,0.0,0.0,0.0,0.0,0.0,0.0,-2.1566,-2.3442,-2.4404,-2.5226,-2.5684,-2.5684,-2.5371,-2.4365,-2.2676,0.0,0.0,0.0,0.0,0.0,0.0,0.0,0.0,0.0,0.0,0.0,0.0,0.0,0.0,0.0,0.0,0.0,0.0,0.0,0.0,0.0,0.0,0.0,0.0,0.0,0.0,0.0,0.0,0.0,0.0,0.0,0.0,0.0,0.0,0.0,0.0,0.0,0.0,-1.7762,-1.9421,0.0,0.0,0.0,0.0,0.0,0.0,0.0,0.0,-2.0107,0.0,0.0,0.0,0.0,0.0,0.0,0.0,0.0,0.0,0.0,0.0,0.0,0.0,0.0,0.0,0.0,0.0,0.0,0.0,0.0,0.0,0.0,0.0,0.0,0.0,0.0,0.0,0.0,0.0,0.0,0.0,0.0,0.0,0.0,0.0,0.0,0.0,0.0,0.0,0.0,0.0,0.0,0.0,0.0,0.0,0.0,0.0,0.0,0.0,0.0,0.0,0.0,0.0,0.0,0.0,0.0,-2.0681,-2.1958,-2.3159,-2.4348,-2.5283,-2.5684,-2.5684,-2.5615,-2.4758,-2.3071,0.0,0.0,0.0,0.0,0.0,0.0,0.0,0.0,0.0,0.0,0.0,0.0,0.0,0.0,0.0,0.0,0.0,0.0,0.0,0.0,0.0,0.0,0.0,0.0,0.0,0.0,0.0,0.0,0.0,0.0,0.0,0.0,0.0,0.0,0.0,0.0,0.0,0.0,0.0,-2.0221,-2.0771,0.0,0.0,0.0,0.0,0.0,0.0,0.0,0.0,-2.1123,0.0,0.0,0.0,0.0,0.0,0.0,0.0,0.0,0.0,0.0,0.0,0.0,0.0,0.0,0.0,0.0,0.0,0.0,0.0,0.0,0.0,0.0,0.0,0.0,0.0,0.0,0.0,0.0,0.0,0.0,0.0,0.0,0.0,0.0,0.0,0.0,0.0,0.0,0.0,0.0,0.0,0.0,0.0,0.0,0.0,0.0,0.0,0.0,0.0,0.0,0.0,0.0,0.0,0.0,0.0,-2.0489,-2.25,-2.3799,-2.4424,-2.5283,-2.5684,-2.5664,-2.504,-2.4401,0.0,0.0,0.0,0.0,0.0,0.0,0.0,0.0,0.0,0.0,0.0,0.0,0.0,0.0,0.0,0.0,0.0,0.0,0.0,0.0,0.0,0.0,0.0,0.0,0.0,0.0,0.0,0.0,0.0,0.0,0.0,0.0,0.0,0.0,0.0,0.0,0.0,0.0,0.0,0.0,-2.0858,-2.1273,-2.1788,0.0,0.0,0.0,0.0,0.0,0.0,-2.1046,-2.1511,0.0,0.0,0.0,0.0,0.0,0.0,0.0,0.0,0.0,0.0,0.0,0.0,0.0,0.0,0.0,0.0,0.0,0.0,0.0,0.0,0.0,0.0,0.0,0.0,0.0,0.0,0.0,0.0,0.0,0.0,0.0,0.0,0.0,0.0,0.0,0.0,0.0,0.0,0.0,0.0,0.0,0.0,0.0,0.0,0.0,0.0,0.0,0.0,0.0,0.0,0.0,0.0,0.0,0.0,0.0,-1.9961,-2.2637,-2.416,-2.4434,-2.5235,-2.5684,-2.5664,-2.4629,-2.4113,0.0,0.0,0.0,0.0,0.0,0.0,0.0,0.0,0.0,0.0,0.0,0.0,0.0,0.0,0.0,0.0,0.0,0.0,0.0,0.0,0.0,0.0,0.0,0.0,0.0,0.0,0.0,0.0,0.0,0.0,0.0,0.0,0.0,0.0,0.0,0.0,0.0,0.0,0.0,0.0,0.0,-2.1918,-2.2128,-2.2078,0.0,0.0,0.0,0.0,-2.1311,-2.208,0.0,0.0,0.0,0.0,0.0,0.0,0.0,0.0,0.0,0.0,0.0,0.0,0.0,0.0,0.0,0.0,0.0,0.0,0.0,0.0,0.0,0.0,0.0,0.0,0.0,0.0,0.0,0.0,0.0,0.0,0.0,0.0,0.0,0.0,0.0,0.0,0.0,0.0,0.0,0.0,0.0,0.0,0.0,0.0,0.0,0.0,0.0,0.0,0.0,0.0,0.0,0.0,0.0,0.0,0.0,0.0,-1.9912,-2.1768,-2.3281,-2.4394,-2.5226,-2.5684,-2.5674,-2.5205,-2.4534,0.0,0.0,0.0,0.0,0.0,0.0,0.0,0.0,0.0,0.0,0.0,0.0,0.0,0.0,0.0,0.0,0.0,0.0,0.0,0.0,0.0,0.0,0.0,0.0,0.0,0.0,0.0,0.0,0.0,0.0,0.0,0.0,0.0,0.0,0.0,0.0,0.0,0.0,0.0,0.0,0.0,-2.2806,-2.219,-2.2998,-2.3338,0.0,0.0,-2.3319,-2.2513,-2.4179,0.0,0.0,0.0,0.0,0.0,0.0,0.0,0.0,0.0,0.0,0.0,0.0,0.0,0.0,0.0,0.0,0.0,0.0,0.0,0.0,0.0,0.0,0.0,0.0,0.0,0.0,0.0,0.0,0.0,0.0,0.0,0.0,0.0,0.0,0.0,0.0,0.0,0.0,0.0,0.0,0.0,0.0,0.0,0.0,0.0,0.0,0.0,0.0,0.0,0.0,0.0,0.0,0.0,0.0,0.0,-1.8701,-1.9932,-2.1824,-2.3369,-2.4385,-2.5029,-2.5478,-2.5684,-2.4543,-2.4027,0.0,0.0,0.0,0.0,0.0,0.0,0.0,0.0,0.0,0.0,0.0,0.0,0.0,0.0,0.0,0.0,0.0,0.0,0.0,0.0,0.0,0.0,0.0,0.0,0.0,0.0,0.0,0.0,0.0,0.0,0.0,0.0,0.0,0.0,0.0,0.0,0.0,0.0,0.0,0.0,0.0,0.0,-2.3687,-2.4386,0.0,0.0,0.0,-2.4576,-2.4345,0.0,0.0,0.0,0.0,0.0,0.0,0.0,0.0,0.0,0.0,0.0,0.0,0.0,0.0,0.0,0.0,0.0,0.0,0.0,0.0,0.0,0.0,0.0,0.0,0.0,0.0,0.0,0.0,0.0,0.0,0.0,0.0,0.0,0.0,0.0,0.0,0.0,0.0,0.0,0.0,0.0,0.0,0.0,0.0,0.0,0.0,0.0,0.0,0.0,0.0,0.0,0.0,0.0,0.0,0.0,0.0,0.0,-1.9922,-2.1902,-2.3403,-2.4385,-2.4844,-2.5282,-2.5537,-2.4362,0.0,0.0,0.0,0.0,0.0,0.0,0.0,0.0,0.0,0.0,0.0,0.0,0.0,0.0,0.0,0.0,0.0,0.0,0.0,0.0,0.0,0.0,0.0,0.0,0.0,0.0,0.0,-1.7708,0.0,0.0,0.0,0.0,0.0,0.0,0.0,0.0,0.0,0.0,0.0,0.0,0.0,0.0,-2.4927,-2.5274,-2.5796,-2.592,0.0,0.0,-2.5886,-2.5983,-2.6239,-2.6135,0.0,0.0,0.0,0.0,0.0,0.0,0.0,0.0,0.0,0.0,0.0,0.0,0.0,0.0,0.0,0.0,0.0,0.0,0.0,0.0,0.0,0.0,0.0,0.0,0.0,0.0,0.0,0.0,0.0,0.0,0.0,0.0,0.0,0.0,0.0,0.0,0.0,0.0,0.0,0.0,0.0,0.0,0.0,0.0,0.0,0.0,0.0,0.0,0.0,0.0,0.0,0.0,0.0,0.0,0.0,-1.9902,-2.165,-2.3154,-2.4365,-2.4844,-2.5135,-2.5145,-2.5457,-2.4909,0.0,0.0,0.0,0.0,0.0,0.0,0.0,0.0,0.0,0.0,0.0,0.0,0.0,0.0,0.0,0.0,0.0,0.0,0.0,0.0,0.0,0.0,0.0,0.0,0.0,0.0,0.0,0.0,0.0,0.0,0.0,0.0,0.0,0.0,0.0,0.0,0.0,0.0,0.0,0.0,0.0,-2.6262,-2.6456,-2.7154,-2.7653,0.0,0.0,-2.7501,-2.7044,-2.8058,-2.7826,-2.4687,0.0,0.0,0.0,0.0,0.0,0.0,0.0,0.0,0.0,0.0,0.0,0.0,0.0,0.0,0.0,0.0,0.0,0.0,0.0,0.0,0.0,0.0,0.0,0.0,0.0,0.0,0.0,0.0,0.0,0.0,0.0,0.0,0.0,0.0,0.0,0.0,0.0,0.0,0.0,0.0,0.0,0.0,0.0,0.0,0.0,0.0,0.0,0.0,0.0,0.0,0.0,0.0,0.0,-1.8477,-1.9902,-2.1367,-2.2744,-2.3984,-2.4453,-2.5112,-2.6016,-2.5864,-2.5592,0.0,0.0,0.0,0.0,0.0,0.0,0.0,0.0,0.0,0.0,0.0,0.0,0.0,0.0,0.0,0.0,0.0,0.0,0.0,0.0,0.0,0.0,0.0,0.0,0.0,0.0,0.0,0.0,-2.1744,-2.1757,-2.197,0.0,0.0,0.0,0.0,0.0,0.0,0.0,0.0,0.0,0.0,-2.7914,-2.8326,-2.8829,0.0,0.0,-2.8297,-2.8273,-2.8432,-2.8479,-2.8061,-2.6761,-2.6208,0.0,0.0,0.0,0.0,0.0,0.0,0.0,0.0,0.0,0.0,0.0,0.0,0.0,0.0,0.0,0.0,0.0,0.0,0.0,0.0,0.0,0.0,0.0,0.0,0.0,0.0,0.0,0.0,0.0,0.0,0.0,0.0,0.0,0.0,0.0,0.0,0.0,0.0,0.0,0.0,0.0,0.0,0.0,0.0,0.0,0.0,0.0,0.0,0.0,0.0,0.0,0.0,-1.8516,-1.9902,-2.1221,-2.2542,-2.3769,-2.4335,-2.5123,-2.6092,-2.6296,-2.6291,0.0,0.0,0.0,0.0,0.0,0.0,0.0,0.0,0.0,0.0,0.0,0.0,0.0,0.0,0.0,0.0,0.0,0.0,0.0,0.0,0.0,0.0,0.0,0.0,0.0,0.0,0.0,0.0,-2.2648,-2.2246,-2.2096,0.0,0.0,0.0,0.0,0.0,0.0,0.0,0.0,0.0,0.0,-2.9363,-3.0181,-3.0405,-3.0235,-2.9593,-2.9441,-2.941,-2.9431,-2.8969,-2.8499,-2.816,0.0,0.0,0.0,0.0,0.0,0.0,0.0,0.0,0.0,0.0,0.0,0.0,0.0,0.0,0.0,0.0,0.0,0.0,0.0,0.0,0.0,0.0,0.0,0.0,0.0,0.0,0.0,0.0,0.0,0.0,-1.1724,0.0,0.0,0.0,0.0,0.0,0.0,0.0,0.0,0.0,0.0,0.0,0.0,0.0,0.0,0.0,0.0,0.0,0.0,0.0,0.0,0.0,0.0,-1.8242,-1.9912,-2.123,-2.2542,-2.3775,-2.4652,-2.5104,-2.5246,-2.6819,-2.7067,-2.57,0.0,0.0,0.0,0.0,0.0,0.0,0.0,0.0,0.0,0.0,0.0,0.0,0.0,0.0,0.0,0.0,0.0,0.0,0.0,0.0,0.0,0.0,0.0,0.0,0.0,0.0,-2.3045,-2.2631,-2.2146,0.0,0.0,0.0,0.0,0.0,0.0,0.0,0.0,0.0,0.0,-2.9026,-3.0342,-3.1893,-3.1696,-3.1279,-3.1279,-3.1295,-3.0931,-2.9928,-2.9754,-2.939,0.0,0.0,0.0,0.0,0.0,0.0,0.0,0.0,0.0,0.0,0.0,0.0,0.0,0.0,0.0,0.0,0.0,0.0,0.0,0.0,0.0,0.0,0.0,0.0,0.0,0.0,0.0,-1.2543,-1.261,0.0,0.0,0.0,0.0,0.0,0.0,0.0,0.0,0.0,0.0,0.0,-1.6619,-1.7658,0.0,0.0,0.0,0.0,0.0,0.0,0.0,0.0,0.0,0.0,0.0,0.0,-1.8789,-2.0674,-2.1504,-2.2648,-2.4229,-2.4787,-2.5719,-2.6978,-2.753,-2.725,-2.6159,0.0,0.0,0.0,0.0,0.0,0.0,0.0,0.0,0.0,0.0,0.0,0.0,0.0,0.0,0.0,0.0,0.0,0.0,0.0,0.0,0.0,0.0,0.0,0.0,0.0,-2.2895,0.0,0.0,0.0,0.0,0.0,0.0,0.0,0.0,0.0,0.0,0.0,-2.7544,-2.9026,-3.0168,-3.1185,-3.2089,-3.1449,-3.0871,0.0,0.0,0.0,0.0,0.0,0.0,0.0,0.0,0.0,0.0,0.0,0.0,0.0,0.0,-2.7963,-2.5971,-2.5527,-2.5428,-2.5279,0.0,0.0,0.0,0.0,0.0,0.0,0.0,0.0,0.0,0.0,0.0,0.0,0.0,0.0,-1.3373,0.0,-1.3132,0.0,0.0,0.0,0.0,0.0,0.0,0.0,0.0,-1.7294,-1.8556,-1.8941,-1.9766,-2.0461,0.0,-2.0605,-1.9531,0.0,0.0,0.0,0.0,0.0,0.0,0.0,0.0,-1.9338,-2.1122,-2.2125,-2.317,-2.4467,-2.538,-2.6427,-2.7667,-2.7916,-2.7662,-2.688,-2.5816,-2.5002,0.0,0.0,0.0,0.0,0.0,0.0,0.0,0.0,0.0,0.0,0.0,0.0,0.0,0.0,0.0,0.0,0.0,0.0,0.0,0.0,0.0,0.0,0.0,-2.302,0.0,0.0,0.0,0.0,0.0,0.0,0.0,0.0,0.0,-2.5423,-2.7155,-2.895,-3.0432,-3.1072,-3.1599,-3.2139,0.0,0.0,0.0,0.0,0.0,0.0,0.0,-2.9716,-2.9553,-2.9051,-2.8661,-2.8497,-2.895,-2.9303,-2.9288,0.0,0.0,-2.7652,-2.7296,-2.7306,-2.7194,-2.7626,-2.8057,-2.8057,-2.826,-2.8407,0.0,0.0,0.0,0.0,0.0,0.0,0.0,0.0,-1.509,-1.5001,0.0,-1.4385,0.0,0.0,0.0,0.0,0.0,-1.617,0.0,0.0,-1.8225,-1.9535,-2.0558,-2.0675,-2.1136,-2.1943,-2.2285,-2.2021,-2.1103,-1.915,0.0,0.0,0.0,0.0,0.0,0.0,-1.9961,-2.1269,-2.292,-2.4033,-2.4606,-2.6257,-2.7226,-2.7267,-2.8059,-2.8258,-2.7741,-2.7837,-2.7004,-2.4983,-2.3638,0.0,0.0,0.0,0.0,0.0,0.0,0.0,0.0,0.0,0.0,0.0,0.0,0.0,0.0,0.0,0.0,0.0,0.0,0.0,0.0,-2.2498,0.0,0.0,0.0,0.0,0.0,0.0,0.0,0.0,0.0,0.0,-2.8172,-2.865,-2.9753,-3.1913,0.0,0.0,0.0,0.0,-3.1989,-3.1449,-3.2303,-3.2646,-3.1537,-3.1389,-3.116,-3.067,0.0,0.0,-2.9289,-2.9732,-2.9974,-2.9626,-3.0186,-3.0647,-3.038,-2.9816,-2.9484,-2.9484,-2.9606,-2.9818,-2.9857,-3.0251,-3.0623,-1.614,0.0,0.0,0.0,0.0,-1.5095,-1.541,-1.6005,-1.5705,-1.5585,-1.5545,-1.5015,0.0,0.0,0.0,0.0,0.0,0.0,-1.8541,-1.8598,-2.0526,-2.1431,-2.1399,-2.2063,-2.2505,-2.273,-2.2598,-2.2383,-2.2109,-2.1221,-1.999,-1.8451,0.0,0.0,0.0,0.0,-2.0489,-2.2092,-2.3234,-2.4315,-2.54,-2.6588,-2.7522,-2.8099,-2.8391,-2.8388,-2.8126,-2.8039,-2.7568,-2.6609,-2.4959,0.0,0.0,0.0,0.0,0.0,0.0,0.0,0.0,0.0,0.0,0.0,0.0,0.0,0.0,0.0,0.0,0.0,0.0,0.0,-2.2631,-2.292,-2.3221,0.0,0.0,0.0,0.0,0.0,0.0,0.0,0.0,0.0,-3.0346,-3.0583,-3.106,0.0,0.0,-3.2039,-3.219,-3.1876,-3.1574,-3.1411,-3.1662,0.0,0.0,-3.1327,-3.097,-3.0858,-3.0378,-3.0024,-3.0037,-3.0228,-3.033,-3.0352,-3.0544,-3.0736,-3.0823,-3.0706,-3.0514,-3.0414,-3.0514,-3.0664,-3.0677,-3.0844,-3.0947,-1.6891,-1.6079,-1.5845,-1.5812,-1.5899,-1.5732,-1.6025,-1.6656,-1.6433,-1.642,-1.6486,-1.6007,-1.5759,-1.5623,-1.5791,0.0,0.0,0.0,-2.0068,-2.0374,-2.191,-2.2498,-2.228,-2.2828,-2.3101,-2.3081,-2.2847,-2.2721,-2.2721,-2.251,-2.1553,-1.998,0.0,0.0,-2.0078,-2.0816,-2.179,-2.3022,-2.445,-2.5546,-2.6359,-2.7255,-2.7966,-2.8471,-2.851,-2.8485,-2.8392,-2.8407,-2.8097,-2.7392,-2.5809,-2.4578,0.0,0.0,0.0,0.0,0.0,0.0,0.0,0.0,0.0,0.0,0.0,-2.2732,0.0,0.0,0.0,0.0,-2.2523,-2.3271,-2.401,-2.4318,0.0,0.0,0.0,0.0,0.0,0.0,0.0,-2.9402,-3.0084,-3.0806,-3.1751,-3.2079,-3.2261,-3.2516,-3.2449,-3.2353,-3.234,0.0,-3.2,-3.2,-3.2177,-3.2371,-3.2495,-3.1898,-3.1221,-3.0763,-3.0458,-3.0318,-3.0495,-3.052,-3.0571,-3.0761,-3.0811,-3.0849,-3.0986,-3.1024,-3.0986,-3.0849,-3.0911,-3.1052,-3.1274,-3.1143,-3.1039,-1.7481,-1.7186,-1.6656,-1.652,-1.674,-1.676,-1.6927,-1.7233,-1.7233,-1.7335,-1.7588,-1.7255,-1.7132,-1.7133,-1.7957,0.0,-1.8783,-2.0516,-2.1593,-2.2145,-2.2695,-2.2998,-2.3159,-2.3149,-2.313,-2.3101,-2.3101,-2.3101,-2.3091,-2.3091,-2.2701,-2.1992,-2.1551,-2.1307,-2.1349,-2.2574,-2.3452,-2.3857,-2.6065,-2.7226,-2.7307,-2.8099,-2.851,-2.851,-2.8474,-2.8426,-2.8418,-2.8724,-2.8442,-2.7385,-2.622,-2.5322,-2.4625,0.0,0.0,0.0,0.0,0.0,0.0,0.0,0.0,0.0,0.0,0.0,0.0,0.0,0.0,0.0,-2.354,0.0,-2.5573,-2.6172,0.0,0.0,0.0,-2.714,-2.8308,-2.8862,-2.9541,-3.0687,0.0,0.0,-3.2625,-3.3166,-3.3428,-3.324,-3.2925,-3.2666,-3.2708,-3.2832,-3.2944,-3.2944,-3.3367,-3.37,-3.3572,-3.2767,-3.1702,-3.0701,-3.0444,-3.0508,-3.0776,-3.094,-3.1003,-3.1158,-3.1168,-3.1294,-3.1243,-3.1371,-3.1268,-3.147,-3.123,-3.1273,-3.186,-3.1546,-3.1273,-1.7542,-1.7514,-1.7328,-1.7233,-1.7119,-1.7333,-1.7415,-1.7475,-1.7482,-1.7574,-1.7615,-1.7517,-1.755,-1.7739,-1.8966,-1.993,-2.0797,-2.2008,-2.3028,-2.3801,-2.3938,-2.3902,-2.3652,-2.3633,-2.3457,-2.311,-2.3101,-2.3101,-2.3101,-2.3101,-2.2994,-2.2799,-2.2701,-2.2321,-2.1809,-2.3032,-2.3867,-2.4333,-2.6243,-2.7522,-2.8179,-2.8379,-2.851,-2.851,-2.8114,-2.7833,-2.7738,-2.7434,-2.6879,-2.608,-2.5778,-2.4971,-2.3572,-2.2481,0.0,0.0,0.0,0.0,0.0,0.0,0.0,0.0,0.0,-2.3609,-2.1832,0.0,-2.4519,0.0,-2.5234,-2.6021,-2.6273,-2.6411,0.0,0.0,-2.8348,-2.9188,-3.1345,-3.1145,-3.1301,-3.2664,-3.3231,-3.3377,-3.303,-3.393,-3.4538,-3.4345,-3.3795,-3.3436,-3.3436,-3.3466,-3.352,-3.352,-3.3652,-3.3768,-3.3943,-3.3036,-3.2031,-3.1031,-3.0761,-3.0827,-3.1447,-3.2108,-3.2468,-3.2396,-3.2823,-3.314,-3.3125,-3.323,-3.3455,-3.389,-3.2842,-3.1976,-3.3106,-3.2455,-3.1726,-1.7589,-1.7589,-1.7589,-1.7488,-1.7407,-1.7508,-1.7589,-1.7589,-1.7589,-1.7687,-1.7786,-1.806,-1.8299,-1.8586,-1.9814,-2.0884,-2.1965,-2.2985,-2.3918,-2.4697,-2.4502,-2.4189,-2.3789,-2.3594,-2.3379,-2.3101,-2.3101,-2.3101,-2.3101,-2.3101,-2.3101,-2.3101,-2.3101,-2.2867,-2.2513,-2.3949,-2.5028,-2.5715,-2.7051,-2.8007,-2.8471,-2.851,-2.839,-2.8122,-2.7873,-2.7579,-2.7384,-2.6919,-2.6533,-2.6205,-2.5828,-2.531,-2.4644,-2.364,-2.2786,0.0,0.0,0.0,0.0,0.0,0.0,0.0,0.0,0.0,0.0,0.0,-2.5649,-2.59,-2.6703,-2.7394,-2.7932,-2.8196,-2.8961,-3.0433,-3.0586,-3.1384,-3.3435,-3.2852,-3.2883,-3.4271,-3.4256,-3.4031,-3.3856,-3.4868,-3.5413,-3.5033,-3.5061,-3.4938,-3.447,-3.4204,-3.4008,-3.4008,-3.433,-3.4667,-3.4942,-3.4203,-3.3365,-3.2563,-3.1813,-3.1477,-3.1856,-3.2035,-3.2117,-3.2003,-3.2324,-3.2602,-3.2602,-3.289,-3.3356,-3.3849,-3.3512,-3.3302,-3.4183,-3.3355,-3.2386,-1.7589,-1.7589,-1.7589,-1.7589,-1.7589,-1.7589,-1.7589,-1.7589,-1.7589,-1.7747,-1.8069,-1.8608,-1.9071,-1.9576,-2.0637,-2.1684,-2.2735,-2.384,-2.4607,-2.5137,-2.4707,-2.4277,-2.3857,-2.3437,-2.3149,-2.3101,-2.3101,-2.3101,-2.3101,-2.3101,-2.3101,-2.3101,-2.3232,-2.3353,-2.3517,-2.5115,-2.6412,-2.7348,-2.8139,-2.851,-2.851,-2.851,-2.8258,-2.7792,-2.7695,-2.7448,-2.6956,-2.6674,-2.6545,-2.6586,-2.5949,-2.5799,-2.6223,-2.4883,-2.4067,0.0,-2.297,0.0,0.0,0.0,0.0,0.0,0.0,0.0,0.0,-2.6348,-2.7002,-2.7444,-2.8093,-2.8861,-2.9845,-3.0441,-3.1355,-3.2686,-3.2843,-3.3422,-3.4838,-3.4313,-3.4312,-3.5601,-3.5128,-3.4744,-3.4868,-3.5776,-3.6201,-3.5693,-3.6087,-3.6228,-3.557,-3.4955,-3.4627,-3.4598,-3.5224,-3.5674,-3.5854,-3.5442,-3.4797,-3.4153,-3.3071,-3.2309,-3.2382,-3.2058,-3.1655,-3.1649,-3.1942,-3.1886,-3.1578,-3.2191,-3.2736,-3.3431,-3.3928,-3.444,-3.4953,-3.4164,-3.3101,-1.7589,-1.7589,-1.7589,-1.7589,-1.7589,-1.7589,-1.7589,-1.7589,-1.7589,-1.7845,-1.8318,-1.8429,-1.925,-2.0637,-2.1743,-2.2793,-2.384,-2.4913,-2.5431,-2.5547,-2.5146,-2.4707,-2.4287,-2.3867,-2.3486,-2.311,-2.3101,-2.3101,-2.3101,-2.3101,-2.3101,-2.3135,-2.3864,-2.4573,-2.5326,0.0,0.0,0.0,-2.8431,-2.851,-2.851,-2.851,-2.8337,-2.7948,-2.75,0.0,-2.5731,-2.558,-2.5257,-2.4643,-2.5234,0.0,0.0,0.0,0.0,0.0,0.0,0.0,0.0,0.0,0.0,0.0,-2.67,-2.6364,-2.5724,-2.7356,-2.8511,-2.8612,-2.9676,-3.0436,-3.067,-3.1373,-3.2326,-3.3513,-3.3661,-3.4415,-3.6198,-3.5731,-3.56,-3.6503,-3.6492,-3.6215,-3.5843,-3.6635,-3.711,-3.6552,-3.6287,-3.609,-3.6059,-3.5741,-3.5585,-3.5651,-3.5767,-3.5931,-3.6075,-3.5587,-3.5012,-3.4289,-3.3564,-3.3212,-3.3561,-3.4066,-3.4306,-3.409,-3.4739,-3.4889,-3.4384,-3.4554,-3.4464,-3.4951,-3.5064,-3.5398,-3.584,-3.4852,-3.3782,-1.7589,0.0,-1.7589,-1.7589,0.0,-1.7589,-1.7589,-1.7589,-1.7589,-1.7898,-1.837,-1.8593,-1.9509,-2.0936,-2.2038,-2.3085,-2.4146,-2.5216,-2.5684,-2.5654,-2.5049,-2.4639,-2.4348,-2.3769,-2.3315,-2.3101,-2.3101,-2.3101,-2.3101,-2.3101,-2.3101,-2.3101,-2.4026,-2.4701,-2.52,-2.6505,-2.7644,-2.851,-2.851,-2.851,-2.851,-2.851,-2.8325,-2.8013,0.0,0.0,0.0,0.0,0.0,0.0,0.0,0.0,0.0,0.0,0.0,-2.5649,-2.5598,-2.5816,-2.6368,-2.6703,-2.7369,-2.8633,-2.935,-2.9177,-2.7914,-2.9087,-3.0044,-3.0453,-3.1109,-3.1609,-3.1889,-3.2263,-3.3036,-3.4286,-3.4761,-3.5523,-3.676,-3.6584,-3.6596,-3.7323,-3.7271,-3.6894,-3.6607,-3.7601,-3.7846,-3.703,-3.73,-3.7361,-3.681,-3.5969,-3.5555,-3.5977,-3.6051,-3.6235,-3.6606,-3.6214,-3.57,-3.5314,-3.4439,-3.3939,-3.4133,-3.4239,-3.4213,-3.412,-3.4441,-3.449,-3.3933,-3.4016,-3.4249,-3.4089,-3.4248,-3.4539,-3.4798,-3.4254,-3.3507,-1.7589,-1.7589,-1.7589,-1.7589,-1.7589,-1.7589,-1.7589,-1.7589,0.0,0.0,0.0,-1.8705,-1.9672,-2.1234,-2.2089,-2.3194,-2.4402,-2.5274,-2.5684,-2.5645,-2.4824,-2.4424,-2.4375,-2.35,-2.3101,-2.3101,-2.3101,-2.3101,-2.3101,-2.3101,-2.3101,-2.3178,-2.4198,-2.4882,-2.5295,-2.667,-2.7765,-2.8471,-2.851,-2.851,-2.851,-2.851,-2.8325,-2.8025,-2.8039,-2.7728,-2.7021,-2.6708,-2.6589,-2.6637,-2.6251,-2.6251,-2.6763,-2.7193,-2.7431,-2.7457,-2.7858,-2.8134,-2.8247,-2.8624,-2.9325,-3.0236,-3.1558,-3.1811,-3.0537,-3.0856,-3.1378,-3.2051,-3.2218,-3.2473,-3.2913,-3.3101,-3.3679,-3.4953,-3.5563,-3.6256,-3.7126,-3.7096,-3.7229,-3.7841,-3.7519,-3.7182,-3.7092,-3.8009,-3.8325,-3.7208,-3.7724,-3.848,-3.7213,-3.6002,-3.5568,-3.6119,-3.6274,-3.6514,-3.706,-3.6843,-3.6522,-3.6328,-3.5333,-3.4558,-3.4428,-3.4022,-3.3644,-3.3848,-3.3624,-3.3408,-3.2748,-3.3103,-3.3106,-3.2407,-3.2712,-3.314,-3.3124,-3.3094,-3.2762,-1.7589,-1.7589,-1.7589,-1.7589,-1.7589,-1.7589,-1.7589,-1.7589,-1.7589,-1.7898,-1.8422,-1.8475,-1.9908,-2.2282,-2.2442,-2.3601,-2.543,-2.5635,-2.5684,0.0,-2.4814,-2.4424,-2.4365,-2.35,-2.3101,-2.3101,-2.3101,-2.3101,-2.3101,-2.3101,-2.3101,-2.3299,-2.4776,-2.637,-2.7846,-2.8179,-2.8391,-2.851,-2.851,-2.851,-2.851,-2.851,-2.8337,-2.8037,-2.8166,-2.7865,-2.7071,-2.7526,-2.7634,-2.7241,-2.7532,-2.7795,-2.7871,-2.7934,-2.7984,-2.7996,-2.8072,-2.831,-2.8737,-2.8838,-2.944,-3.0751,-3.2088,-3.2589,-3.1911,-3.1874,-3.1965,-3.2123,-3.2684,-3.3066,-3.3199,-3.376,-3.4427,-3.5163,-3.5435,-3.5948,-3.7085,-3.7236,-3.7234,-3.7396,-3.7359,-3.7113,-3.6881,-3.7375,-3.7437,-3.6496,-3.6842,-3.6872,-3.6104,-3.5971,-3.6283,-3.6443,-3.6477,-3.6735,-3.7041,-3.6881,-3.6477,-3.6492,-3.5809,-3.5246,-3.5231,-3.5115,-3.4968,-3.51,-3.5001,-3.4561,-3.3543,-3.3372,-3.2972,-3.202,-3.1885,-3.1899,-3.1929,-3.1886,-3.1931,-1.7589,-1.7589,-1.7589,-1.7589,-1.7589,-1.7589,-1.7589,-1.7589,-1.7589,-1.7793,-1.8213,-1.8923,-2.0408,-2.2282,-2.3044,-2.4205,-2.5674,-2.5478,-2.5371,-2.5303,-2.4482,-2.4082,-2.4014,-2.3428,-2.3101,-2.3101,-2.3101,-2.3101,-2.3101,-2.3101,-2.3101,-2.3222,-2.4893,-2.6494,-2.7725,-2.8259,-2.851,-2.851,-2.851,-2.851,-2.851,-2.8234,-2.8258,-2.8582,-2.8325,-2.8136,-2.8026,-2.8226,-2.8175,-2.7745,-2.7971,-2.8109,-2.8122,-2.8386,-2.8512,-2.8574,-2.885,-2.9126,-2.939,-3.0454,-3.1391,-3.1979,-3.3431,-3.4009,-3.3388,-3.2946,-3.2875,-3.3325,-3.3673,-3.3859,-3.3859,-3.4182,-3.453,-3.482,-3.5174,-3.5639,-3.6156,-3.6577,-3.6751,-3.6765,-3.6852,-3.6879,-3.6764,-3.704,-3.6963,-3.6187,-3.6088,-3.5904,-3.5848,-3.5887,-3.5953,-3.5953,-3.5953,-3.6058,-3.6327,-3.6163,-3.5968,-3.5938,-3.5699,-3.5519,-3.5489,-3.5489,-3.5489,-3.5489,-3.5489,-3.4951,-3.3754,-3.3499,-3.2916,-3.1869,-3.1496,-3.1496,-3.1496,-3.1496,-3.1615,-1.7589,-1.7589,-1.7589,-1.7589,-1.7589,-1.7589,-1.7589,-1.7589,-1.7589,-1.7747,-1.8167,-1.9428,-2.0802,-2.2232,-2.3543,-2.4651,-2.544,-2.5225,-2.5019,-2.4844,-2.4141,-2.3789,-2.374,-2.3296,-2.3101,-2.311,-2.3232,-2.3198,-2.312,-2.3198,-2.3442,-2.382,-2.5326,-2.6588,-2.751,-2.8179,-2.851,-2.851,-2.851,-2.851,-2.8486,-2.7954,-2.8125,-2.8861,-2.8397,-2.833,-2.8874,-2.8874,-2.8762,-2.8524,-2.8486,-2.8486,-2.8511,-2.8888,-2.9114,-2.9139,-2.9541,-2.9895,-3.0139,-3.1874,-3.2975,-3.2987,-3.4491,-3.5145,-3.4467,-3.3845,-3.3707,-3.4264,-3.4346,-3.438,-3.4346,-3.4366,-3.438,-3.4443,-3.4835,-3.5232,-3.5421,-3.5807,-3.6098,-3.6119,-3.6254,-3.6351,-3.6353,-3.6467,-3.6404,-3.602,-3.5515,-3.5466,-3.5989,-3.5771,-3.5534,-3.5489,-3.5489,-3.5534,-3.5489,-3.5519,-3.5534,-3.5489,-3.5504,-3.5489,-3.5489,-3.5489,-3.5489,-3.5489,-3.5489,-3.4936,-3.3858,-3.3499,-3.2946,-3.1839,-3.1496,-3.1496,-3.1496,-3.1496,-3.1496,-1.7589,-1.7589,-1.7589,-1.7589,-1.7589,-1.7589,-1.7589,-1.7589,-1.7589,-1.7747,-1.8174,-1.9428,-2.0947,-2.2484,-2.3642,-2.4558,-2.5166,-2.5135,-2.4844,-2.4453,-2.4004,-2.3789,-2.374,-2.335,-2.3101,-2.3159,-2.3545,-2.3545,-2.3198,-2.3609,-2.4345,-2.5538,-2.6588,-2.7482,-2.8259,-2.8431,-2.851,-2.851,-2.851,-2.851,-2.8474,-2.7954,-2.7969,-2.8526,-2.837,-2.8514,-2.9073,-2.9459,-2.964,-2.9654,-2.9591,-2.9616,-2.9628,-2.9679,-2.9691,-2.9704,-2.9754,-3.0075,-3.0797,-3.2171,-3.3006,-3.3269,-3.4509,-3.5116,-3.4486,-3.4298,-3.4298,-3.438,-3.438,-3.438,-3.438,-3.438,-3.438,-3.438,-3.4501,-3.4733,-3.5247,-3.5436,-3.5494,-3.5479,-3.5514,-3.5325,-3.4996,-3.5277,-3.5574,-3.5649,-3.527,-3.5078,-3.5377,-3.5511,-3.5489,-3.5489,-3.5489,-3.5489,-3.5489,-3.5489,-3.5489,-3.5489,-3.5489,-3.5489,-3.5489,-3.5459,-3.5474,-3.5295,-3.5325,-3.4801,-3.3933,-3.3455,-3.2991,-3.1899,-3.1496,-3.1496,-3.1496,-3.1496,-3.1496,-1.7589,-1.7589,-1.7589,-1.7589,-1.7589,-1.7589,-1.7589,-1.7589,-1.7589,-1.7852,-1.8475,-2.0187,-2.1456,-2.2383,-2.4205,-2.5083,-2.5059,-2.4851,-2.4453,-2.4033,-2.3559,-2.3398,-2.3398,-2.3516,-2.3525,-2.3555,-2.3955,-2.4072,-2.4036,-2.4641,-2.5459,-2.6289,-2.7194,-2.7689,-2.7788,-2.8259,-2.851,-2.851,-2.851,-2.851,-2.845,-2.7993,-2.8008,-2.8576,-2.8319,-2.8488,-2.9201,-2.9482,-2.965,-2.9779,-2.9779,-2.9779,-2.9779,-2.9779,-2.9779,-2.9779,-2.9779,-3.0139,-3.0871,-3.1887,-3.2695,-3.3157,-3.4192,-3.4675,-3.4443,-3.438,-3.438,-3.438,-3.438,-3.438,-3.438,-3.438,-3.438,-3.438,-3.438,-3.453,-3.4748,-3.4806,-3.4791,-3.4806,-3.4791,-3.4767,-3.4651,-3.4801,-3.4996,-3.5063,-3.4934,-3.4983,-3.518,-3.5374,-3.5472,-3.5489,-3.5489,-3.5489,-3.5489,-3.5489,-3.5489,-3.5489,-3.5489,-3.5489,-3.54,-3.5085,-3.4891,-3.4891,-3.4637,-3.4113,-3.3095,-3.2901,-3.2602,-3.175,-3.1496,-3.1496,-3.1496,-3.1496,-3.1496,-1.7589,-1.7589,-1.7589,-1.7589,-1.7589,-1.7589,-1.7589,-1.7589,-1.7589,-1.7891,-1.8624,-2.0743,-2.1862,-2.2492,-2.4667,-2.5439,-2.4902,-2.456,-2.4121,-2.3623,-2.3227,-2.3101,-2.313,-2.3574,-2.3789,-2.3877,-2.4346,-2.4719,-2.5069,-2.583,-2.6538,-2.7034,-2.792,-2.8063,-2.769,-2.8219,-2.851,-2.851,-2.851,-2.851,-2.8438,-2.7993,-2.7975,-2.8421,-2.8023,-2.813,-2.8844,-2.9094,-2.9336,-2.9553,-2.9704,-2.9779,-2.9779,-2.9779,-2.9779,-2.9779,-2.9779,-3.0203,-3.1156,-3.1783,-3.2506,-3.3451,-3.4113,-3.438,-3.438,-3.438,-3.438,-3.438,-3.438,-3.438,-3.438,-3.438,-3.438,-3.438,-3.438,-3.438,-3.4395,-3.438,-3.4428,-3.438,-3.4472,-3.4448,-3.4597,-3.4612,-3.4674,-3.4727,-3.4831,-3.4968,-3.5166,-3.5359,-3.5489,-3.5489,-3.5489,-3.5489,-3.5489,-3.5265,-3.5265,-3.516,-3.5055,-3.4831,-3.4951,-3.4457,-3.4218,-3.4158,-3.3724,-3.3335,-3.2841,-3.2527,-3.2288,-3.175,-3.1496,-3.1496,-3.1496,-3.1496,-3.1496,-1.7589,-1.7589,-1.7589,-1.7589,-1.7589,-1.7589,-1.7589,-1.7589,-1.7589,-1.7898,-1.8677,-2.0743,-2.2013,-2.2584,-2.4726,-2.5216,-2.4551,-2.4443,-2.3949,-2.3247,-2.312,-2.3101,-2.313,-2.3574,-2.3799,-2.3906,-2.4619,-2.5478,-2.6413,-2.6976,-2.7467,-2.7966,-2.8769,-2.897,-2.8451,-2.8395,-2.8498,-2.845,-2.8414,-2.845,-2.8402,-2.7945,-2.7693,-2.7695,-2.7425,-2.742,-2.7692,-2.8325,-2.8787,-2.8938,-2.9478,-2.9767,-2.9779,-2.9779,-2.9779,-2.9779,-2.9779,-3.0482,-3.1746,-3.2051,-3.2733,-3.4011,-3.4346,-3.438,-3.438,-3.438,-3.438,-3.438,-3.438,-3.438,-3.438,-3.438,-3.438,-3.438,-3.438,-3.438,-3.438,-3.438,-3.438,-3.438,-3.438,-3.4414,-3.4414,-3.4414,-3.4457,-3.4576,-3.4773,-3.485,-3.494,-3.524,-3.5307,-3.534,-3.5385,-3.5489,-3.5429,-3.522,-3.4801,-3.4653,-3.4427,-3.3784,-3.3619,-3.3544,-3.3544,-3.3499,-3.329,-3.3006,-3.2632,-3.2348,-3.2093,-3.1765,-3.154,-3.1496,-3.1496,-3.1496,-3.1496,-1.7589,-1.7589,-1.7589,-1.7589,-1.7589,-1.7589,-1.7589,-1.7589,-1.7589,-1.7891,-1.8722,-2.0743,-2.2013,-2.2634,-2.4716,-2.54,-2.4834,-2.4551,-2.4102,-2.3555,-2.3227,-2.3101,-2.3169,-2.3848,-2.4189,-2.4277,-2.4785,-2.5791,-2.7027,-2.7791,-2.8408,-2.8886,-2.9475,-2.9376,-2.8607,-2.8174,-2.8005,-2.7969,-2.7642,-2.7462,-2.7486,-2.7282,-2.7055,-2.6719,-2.7026,-2.7285,-2.7483,-2.7928,-2.8363,-2.8875,-2.9101,-2.9415,-2.9741,-2.9779,-2.9779,-2.9779,-2.9779,-3.0482,-3.1819,-3.2123,-3.2769,-3.4196,-3.438,-3.438,-3.438,-3.438,-3.438,-3.438,-3.438,-3.438,-3.438,-3.438,-3.438,-3.438,-3.438,-3.438,-3.438,-3.438,-3.438,-3.438,-3.438,-3.438,-3.4341,-3.4066,-3.3852,-3.3889,-3.3732,-3.3703,-3.379,-3.3981,-3.4213,-3.4291,-3.4577,-3.4878,-3.4846,-3.5115,-3.504,-3.4653,-3.4279,-3.3888,-3.3649,-3.3036,-3.2901,-3.2811,-3.2691,-3.2392,-3.1989,-3.1959,-3.175,-3.169,-3.1496,-3.1496,-3.1496,-3.1496,-3.1496,-1.7589,-1.7589,-1.7589,-1.7589,-1.7589,-1.7589,-1.7589,-1.7589,-1.7641,-1.7898,-1.8774,-2.0743,-2.2013,-2.2759,-2.4624,-2.5381,-2.5086,-2.4619,-2.4189,-2.3779,-2.3296,-2.3101,-2.3208,-2.3877,-2.4219,-2.4268,-2.4648,-2.5686,-2.7192,-2.795,-2.8596,-2.9306,-2.9677,-2.9388,-2.857,-2.7954,-2.7729,-2.7633,-2.7162,-2.6898,-2.6873,-2.6717,-2.649,-2.6178,-2.6396,-2.6737,-2.6968,-2.7322,-2.7789,-2.8336,-2.8687,-2.9189,-2.9716,-2.9779,-2.9779,-2.9818,-3.0037,-3.057,-3.1599,-3.2169,-3.2911,-3.3894,-3.4264,-3.438,-3.438,-3.438,-3.438,-3.438,-3.438,-3.438,-3.438,-3.438,-3.438,-3.438,-3.438,-3.438,-3.438,-3.438,-3.438,-3.438,-3.438,-3.438,-3.4341,-3.3833,-3.359,-3.3503,-3.308,-3.2859,-3.2987,-3.3175,-3.3375,-3.3499,-3.3888,-3.4113,-3.4158,-3.4352,-3.4457,-3.4113,-3.3469,-3.3335,-3.3185,-3.2572,-3.2258,-3.2123,-3.1929,-3.163,-3.1496,-3.1496,-3.1496,-3.1496,-3.1496,-3.1496,-3.1496,-3.1496,-3.1496,-1.7589,-1.7589,-1.7589,-1.7589,-1.7589,-1.7589,-1.7589,-1.7589,-1.7589,-1.795,-1.8878,-2.0794,-2.2064,-2.2865,-2.4428,-2.5125,-2.5,-2.458,-2.415,-2.3769,-2.334,-2.3101,-2.313,-2.3623,-2.3947,-2.4002,-2.4284,-2.5482,-2.7206,-2.7514,-2.8139,-2.9076,-2.9316,-2.9112,-2.851,-2.7957,-2.7669,-2.7486,-2.7042,-2.6777,-2.6801,-2.6358,-2.6081,-2.5997,-2.5684,-2.5693,-2.5998,-2.6629,-2.714,-2.7532,-2.8348,-2.9164,-2.9679,-2.9779,-2.9779,-2.9895,-3.0406,-3.082,-3.1143,-3.2313,-3.3017,-3.352,-3.3997,-3.438,-3.438,-3.438,-3.438,-3.438,-3.4472,-3.4472,-3.4443,-3.4486,-3.4472,-3.438,-3.438,-3.438,-3.438,-3.438,-3.4366,-3.4356,-3.437,-3.4399,-3.4254,-3.3732,-3.3344,-3.3187,-3.2815,-3.2535,-3.2617,-3.2788,-3.3211,-3.3319,-3.3395,-3.3469,-3.3484,-3.3499,-3.3499,-3.3365,-3.2617,-3.2138,-3.2153,-3.178,-3.1809,-3.175,-3.175,-3.1496,-3.1496,-3.1496,-3.1496,-3.1496,-3.1496,-3.1496,-3.1496,-3.1496,-3.1496,-1.7589,-1.7589,-1.7589,-1.7589,-1.7589,-1.7589,-1.7589,-1.7589,-1.7589,-1.8297,-1.9627,-2.1049,-2.2357,-2.3592,-2.466,-2.5106,-2.5047,-2.4336,-2.3906,-2.373,-2.3296,-2.3101,-2.3179,-2.3584,-2.4138,-2.4678,-2.5143,-2.599,-2.7115,-2.7852,-2.8434,-2.8765,-2.9124,-2.9003,-2.8486,-2.7618,-2.7138,-2.7042,-2.6249,-2.5781,-2.5817,-2.5661,-2.5564,-2.554,-2.5502,-2.5799,-2.6391,-2.635,-2.6762,-2.7783,-2.8172,-2.88,-2.9578,-2.9779,-2.9779,-2.9818,-2.9998,-3.0709,-3.1636,-3.2182,-3.3017,-3.3791,-3.4264,-3.438,-3.438,-3.438,-3.4428,-3.4486,-3.4777,-3.4936,-3.4588,-3.4835,-3.482,-3.4457,-3.438,-3.438,-3.438,-3.438,-3.4196,-3.3906,-3.4138,-3.4022,-3.3354,-3.289,-3.2774,-3.2295,-3.1776,-3.1476,-3.154,-3.1824,-3.1827,-3.1961,-3.2333,-3.2781,-3.2781,-3.2781,-3.2781,-3.2781,-3.2228,-3.1705,-3.157,-3.1496,-3.1496,-3.1496,-3.1496,-3.1496,-3.1496,-3.1496,-3.1496,-3.1496,-3.1496,-3.1496,-3.1496,-3.1496,-3.1496,-1.7589,-1.7589,-1.7589,-1.7589,-1.7589,-1.7589,-1.7589,-1.7589,-1.7589,-1.8499,-1.9981,-2.1194,-2.2481,-2.3804,-2.4574,-2.4736,-2.4521,-2.3857,-2.3545,-2.3525,-2.3247,-2.3101,-2.312,-2.3364,-2.4013,-2.479,-2.5158,-2.6012,-2.7213,-2.7759,-2.8209,-2.8518,-2.8847,-2.8847,-2.8462,-2.7642,-2.7126,-2.6801,-2.6069,-2.5504,-2.5396,-2.5504,-2.56,-2.5636,-2.5913,-2.6372,-2.6931,-2.6685,-2.7,-2.7936,-2.8285,-2.8875,-2.9691,-2.9779,-2.9779,-2.9895,-3.0368,-3.1033,-3.1673,-3.2506,-3.3136,-3.3908,-3.423,-3.438,-3.438,-3.438,-3.4472,-3.4806,-3.4864,-3.4936,-3.4849,-3.4849,-3.482,-3.4472,-3.438,-3.438,-3.438,-3.438,-3.4124,-3.3819,-3.4037,-3.379,-3.3195,-3.2846,-3.26,-3.1961,-3.1337,-3.0817,-3.0864,-3.0969,-3.1073,-3.1235,-3.1619,-3.1916,-3.202,-3.2049,-3.2079,-3.2079,-3.2004,-3.172,-3.1555,-3.1511,-3.1496,-3.1496,-3.1496,-3.1496,-3.1496,-3.1496,-3.1496,-3.1496,-3.1376,-3.1496,-3.1496,-3.1496,-3.1496,-1.7589,-1.7589,-1.7589,-1.7589,-1.7589,-1.7589,-1.7589,-1.7635,-1.774,-1.8686,-2.0141,-2.1374,-2.2507,-2.3533,-2.4198,-2.4209,-2.3779,-2.3418,-2.3169,-2.3159,-2.3101,-2.3101,-2.311,-2.3159,-2.3684,-2.4442,-2.471,-2.5644,-2.7144,-2.7452,-2.7672,-2.8455,-2.8546,-2.8522,-2.8402,-2.7981,-2.7402,-2.6982,-2.6442,-2.5925,-2.554,-2.5901,-2.6154,-2.6166,-2.6562,-2.7038,-2.7458,-2.7619,-2.7817,-2.8174,-2.8699,-2.9227,-2.9679,-2.9779,-2.9779,-2.983,-3.1158,-3.1281,-3.1526,-3.2684,-3.3722,-3.3416,-3.3997,-3.438,-3.438,-3.4395,-3.4588,-3.5043,-3.4835,-3.4762,-3.5043,-3.4922,-3.4588,-3.4443,-3.438,-3.438,-3.438,-3.438,-3.4109,-3.3779,-3.3964,-3.408,-3.3329,-3.3184,-3.2937,-3.2266,-3.1613,-3.1122,-3.0892,-3.0836,-3.0895,-3.1073,-3.125,-3.1397,-3.1604,-3.1678,-3.1678,-3.1722,-3.1735,-3.166,-3.1525,-3.1496,-3.1496,-3.1496,-3.1391,-3.1421,-3.1361,-3.1256,-3.1122,-3.0943,-3.1032,-3.1346,-3.1421,-3.1346,-3.1466,-1.7589,-1.7589,-1.7589,-1.7589,-1.7589,-1.7589,-1.7589,-1.7687,-1.8454,-1.9427,-2.0754,-2.1957,-2.3033,-2.4085,-2.3968,-2.3887,-2.3691,-2.3296,-2.3101,-2.3101,-2.3101,-2.3101,-2.3101,-2.3091,-2.3604,-2.4445,-2.5031,-2.608,-2.7185,-2.7725,-2.8179,-2.8471,-2.8471,-2.851,-2.8438,-2.8005,-2.7642,-2.7426,-2.6946,-2.6609,-2.6489,-2.6561,-2.6681,-2.6693,-2.6825,-2.7329,-2.8073,-2.8822,-2.8975,-2.875,-2.9264,-2.9616,-2.9767,-2.9779,-2.9779,-2.9895,-3.019,-3.0633,-3.1082,-3.2024,-3.2804,-3.3262,-3.3879,-3.438,-3.438,-3.438,-3.4501,-3.4719,-3.4849,-3.5,-3.482,-3.4907,-3.4849,-3.4501,-3.438,-3.438,-3.438,-3.4399,-3.4167,-3.3707,-3.4037,-3.3601,-3.2759,-3.2498,-3.2396,-3.1511,-3.109,-3.0874,-3.0759,-3.0732,-3.0836,-3.0895,-3.1028,-3.1102,-3.122,-3.1293,-3.1351,-3.141,-3.1468,-3.154,-3.1466,-3.1451,-3.1481,-3.1496,-3.1152,-3.1077,-3.0896,-3.0717,-3.0552,-3.0402,-3.0552,-3.0761,-3.0957,-3.1002,-3.1301,-1.7589,-1.7589,-1.7589,-1.7589,-1.7589,-1.7589,-1.7589,-1.7765,-1.8572,-1.9727,-2.1007,-2.2039,-2.3081,-2.4049,-2.3896,-2.3682,-2.3496,-2.3208,-2.3101,-2.3101,-2.3101,-2.3101,-2.3101,-2.3091,-2.356,-2.4456,-2.4999,-2.5704,-2.6588,-2.751,-2.7926,-2.8007,-2.8339,-2.851,-2.8498,-2.8246,-2.7882,-2.7705,-2.7366,-2.7138,-2.6922,-2.7126,-2.7066,-2.703,-2.7078,-2.7593,-2.8241,-2.9107,-2.9475,-2.9364,-2.9603,-2.9779,-2.9779,-2.9779,-2.9779,-2.983,-3.0075,-3.052,-3.0908,-3.1623,-3.2398,-3.3073,-3.3707,-3.4045,-3.4298,-3.4414,-3.4443,-3.4864,-3.4965,-3.4893,-3.4878,-3.4936,-3.4777,-3.4486,-3.438,-3.438,-3.438,-3.438,-3.4109,-3.3808,-3.3721,-3.3558,-3.2106,-3.2324,-3.1932,-3.1337,-3.1148,-3.0901,-3.0685,-3.0716,-3.0732,-3.0806,-3.0866,-3.0925,-3.1043,-3.1146,-3.1232,-3.1261,-3.0962,-3.1107,-3.1197,-3.1197,-3.1077,-3.0987,-3.0823,-3.0642,-3.0328,-3.0103,-3.0028,-2.9968,-3.0043,-3.0208,-3.0462,-3.0642,-3.0971,-1.7589,-1.7589,-1.7589,-1.7562,-1.7528,-1.7535,-1.7475,-1.763,-1.8265,-1.9395,-2.0745,-2.1678,-2.2667,-2.3686,-2.3662,-2.3506,-2.312,-2.311,-2.3101,-2.3101,-2.3101,-2.3101,-2.3101,-2.3101,-2.3474,-2.4198,-2.4423,-2.4956,-2.583,-2.6712,-2.7214,-2.751,-2.8139,-2.8471,-2.8498,-2.8462,-2.8206,-2.7933,-2.7849,-2.7594,-2.7378,-2.7596,-2.7522,-2.7186,-2.7466,-2.7847,-2.8336,-2.8977,-2.9523,-2.9767,-2.9779,-2.9779,-2.9779,-2.9779,-2.9779,-2.9856,-3.0279,-3.0607,-3.0857,-3.1415,-3.2254,-3.2847,-3.3108,-3.3555,-3.4196,-3.4414,-3.4588,-3.5029,-3.4704,-3.4733,-3.4971,-3.4719,-3.4501,-3.438,-3.438,-3.438,-3.438,-3.438,-3.4182,-3.3678,-3.3605,-3.3198,-3.2745,-3.2396,-3.2121,-3.1134,-3.0988,-3.0843,-3.0685,-3.0657,-3.0642,-3.0672,-3.0702,-3.0732,-3.0925,-3.1087,-3.1145,-3.1155,-3.0586,-3.0492,-3.0673,-3.0687,-3.0507,-3.0372,-3.0283,-2.9998,-2.9594,-2.9487,-2.9457,-2.9337,-2.922,-2.9639,-3.0073,-3.0193,-3.0432,-1.7589,-1.7589,-1.7589,-1.7448,-1.732,-1.7286,-1.7159,-1.7009,-1.8024,-1.9074,-2.0036,-2.1202,-2.2217,-2.3046,-2.3188,-2.3169,-2.3101,-2.3101,-2.3101,-2.3101,-2.3101,-2.3101,-2.3101,-2.3101,-2.3222,-2.3604,-2.4198,-2.4616,-2.5126,-2.634,-2.7174,-2.7296,-2.8018,-2.851,-2.851,-2.8498,-2.8474,-2.8342,-2.8318,-2.8246,-2.8098,-2.8162,-2.8017,-2.7536,-2.7775,-2.822,-2.8795,-2.9201,-2.9521,-2.974,-2.9779,-2.9779,-2.9779,-2.9779,-2.9779,-2.9818,-2.9934,-3.0062,-3.0177,-3.0809,-3.1526,-3.2326,-3.2946,-3.3506,-3.4264,-3.438,-3.4472,-3.4603,-3.4486,-3.4501,-3.4632,-3.453,-3.4395,-3.438,-3.438,-3.438,-3.438,-3.438,-3.4312,-3.4109,-3.3721,-3.3256,-3.2539,-3.193,-3.1526,-3.0959,-3.0816,-3.0743,-3.0685,-3.0612,-3.0612,-3.0612,-3.0672,-3.0732,-3.0925,-3.1058,-3.1084,-3.0915,-3.0345,-2.9804,-3.0028,-2.9924,-2.9669,-2.9681,-2.9771,-2.9397,-2.8888,-2.8813,-2.8768,-2.8577,-2.8487,-2.8906,-2.9295,-2.9535,-2.9759,-1.7382,-1.7414,-1.7235,-1.7081,-1.6961,-1.6985,-1.6854,-1.6993,-1.8199,-1.9096,-1.9854,-2.1149,-2.2184,-2.2769,-2.2925,-2.3013,-2.3091,-2.3101,-2.3101,-2.3101,-2.3101,-2.3101,-2.3101,-2.3101,-2.3091,-2.3212,-2.4069,-2.4445,-2.4999,-2.6174,-2.7174,-2.7267,-2.8059,-2.8471,-2.851,-2.851,-2.851,-2.8498,-2.851,-2.851,-2.851,-2.8498,-2.8038,-2.7584,-2.774,-2.8125,-2.8166,-2.8989,-2.942,-2.9599,-2.974,-2.9779,-2.9779,-2.9779,-2.9779,-2.9779,-2.9779,-2.9779,-2.996,-3.0482,-3.1254,-3.2037,-3.2791,-3.3555,-3.4147,-3.438,-3.438,-3.438,-3.438,-3.438,-3.438,-3.438,-3.438,-3.438,-3.4399,-3.438,-3.4366,-3.438,-3.4269,-3.3964,-3.3354,-3.2745,-3.2121,-3.1569,-3.1163,-3.0743,-3.0728,-3.067,-3.067,-3.0612,-3.0612,-3.0642,-3.0657,-3.0777,-3.094,-3.1043,-3.1023,-3.0705,-3.0133,-2.9535,-2.928,-2.9026,-2.8738,-2.8873,-2.9037,-2.8588,-2.8169,-2.8124,-2.8154,-2.8049,-2.8079,-2.8263,-2.8532,-2.8936,-2.9101,-1.7132,-1.7112,-1.6807,-1.668,-1.6647,-1.664,-1.66,-1.6747,-1.8215,-1.8973,-1.9731,-2.1212,-2.2115,-2.2662,-2.2847,-2.2969,-2.3057,-2.3101,-2.3101,-2.3101,-2.3101,-2.3101,-2.3101,-2.3101,-2.3101,-2.3232,-2.382,-2.4198,-2.4872,-2.6049,-2.6928,-2.7267,-2.8047,-2.8471,-2.851,-2.851,-2.851,-2.851,-2.851,-2.851,-2.851,-2.8498,-2.8065,-2.7645,-2.7627,-2.7914,-2.8017,-2.8727,-2.938,-2.9419,-2.965,-2.9779,-2.9779,-2.9779,-2.9779,-2.9779,-2.9779,-2.9779,-2.9856,-3.0381,-3.1044,-3.1978,-3.2613,-3.3465,-3.4128,-3.438,-3.438,-3.438,-3.438,-3.438,-3.438,-3.4225,-3.4225,-3.4225,-3.424,-3.4225,-3.4153,-3.4182,-3.3964,-3.359,-3.2875,-3.215,-3.1656,-3.1148,-3.0859,-3.0612,-3.0612,-3.0612,-3.0612,-3.0612,-3.0612,-3.0612,-3.0657,-3.0821,-3.0984,-3.0791,-3.0785,-3.0347,-2.9804,-2.9205,-2.8667,-2.8378,-2.8184,-2.8199,-2.8169,-2.7869,-2.775,-2.7794,-2.7764,-2.76,-2.769,-2.7944,-2.8158,-2.8397,-2.8457,-1.6774,-1.6774,-1.6727,-1.6567,-1.6366,-1.6339,-1.6213,-1.6129,-1.7269,-1.8148,-1.9106,-2.0538,-2.1748,-2.2388,-2.2872,-2.3057,-2.3101,-2.3101,-2.3101,-2.3101,-2.3101,-2.3101,-2.3101,-2.3101,-2.3081,-2.3101,-2.3474,-2.3907,-2.4659,-2.5537,-2.6682,-2.7307,-2.8047,-2.8471,-2.851,-2.851,-2.8474,-2.8426,-2.8474,-2.8498,-2.8438,-2.8462,-2.8378,-2.8005,-2.7951,-2.8016,-2.8453,-2.8868,-2.9248,-2.938,-2.965,-2.9728,-2.9704,-2.9704,-2.9679,-2.9691,-2.9628,-2.9578,-2.9743,-2.9922,-3.0733,-3.1686,-3.2254,-3.303,-3.3942,-3.4346,-3.4298,-3.438,-3.438,-3.438,-3.4399,-3.4095,-3.375,-3.3692,-3.3692,-3.3532,-3.318,-3.3238,-3.3485,-3.3184,-3.2367,-3.1611,-3.125,-3.0961,-3.0757,-3.0612,-3.0612,-3.0612,-3.0612,-3.0612,-3.0612,-3.0612,-3.0612,-3.0821,-3.1014,-3.0672,-3.0413,-2.9901,-2.9343,-2.8768,-2.8259,-2.7869,-2.772,-2.7854,-2.7854,-2.772,-2.763,-2.7585,-2.7585,-2.7585,-2.7615,-2.7645,-2.7839,-2.8008,-2.7944,-1.6486,-1.6473,-1.6319,-1.6172,-1.6059,-1.6039,-1.5965,-1.6076,-1.7412,-1.8419,-1.933,-2.0746,-2.1926,-2.252,-2.2794,-2.3013,-2.3101,-2.3101,-2.3101,-2.3101,-2.3101,-2.3101,-2.3081,-2.3081,-2.2945,-2.3069,-2.3474,-2.4211,-2.5168,-2.6133,-2.6928,-2.7765,-2.8339,-2.851,-2.851,-2.851,-2.8342,-2.8246,-2.8342,-2.8378,-2.8158,-2.8342,-2.8402,-2.8126,-2.8192,-2.8321,-2.8378,-2.8915,-2.9197,-2.933,-2.9273,-2.925,-2.9226,-2.9114,-2.9051,-2.9214,-2.9101,-2.9089,-2.9391,-2.9682,-3.0459,-3.1315,-3.1819,-3.2591,-3.3416,-3.3776,-3.4031,-3.4298,-3.438,-3.438,-3.4399,-3.4066,-3.3881,-3.3576,-3.346,-3.314,-3.2687,-3.2527,-3.2527,-3.2588,-3.1975,-3.138,-3.0988,-3.0786,-3.0656,-3.0612,-3.0612,-3.0612,-3.0612,-3.0612,-3.0612,-3.0612,-3.0642,-3.0821,-3.097,-3.0717,-3.0222,-2.9635,-2.9119,-2.8502,-2.8004,-2.769,-2.76,-2.766,-2.76,-2.7585,-2.7585,-2.7585,-2.7585,-2.7585,-2.76,-2.7615,-2.76,-2.76,-2.7585,-1.6186,-1.6159,-1.5932,-1.5825,-1.5825,-1.5825,-1.5784,-1.6197,-1.7909,-1.8872,-1.9368,-2.1168,-2.2353,-2.2715,-2.2847,-2.2969,-2.3101,-2.3101,-2.3101,-2.3101,-2.3091,-2.3071,-2.2974,-2.2969,-2.2879,-2.2958,-2.3478,-2.4724,-2.5583,-2.6573,-2.7592,-2.8179,-2.8471,-2.851,-2.851,-2.851,-2.8134,-2.8002,-2.821,-2.8206,-2.8062,-2.8246,-2.8258,-2.7789,-2.8258,-2.8276,-2.7876,-2.8301,-2.8677,-2.877,-2.8686,-2.8562,-2.8637,-2.8247,-2.816,-2.8448,-2.8223,-2.8411,-2.8887,-2.9412,-3.0177,-3.1312,-3.1783,-3.2519,-3.3297,-3.3776,-3.3811,-3.4264,-3.438,-3.4298,-3.4153,-3.4037,-3.363,-3.3166,-3.2966,-3.2803,-3.2164,-3.1816,-3.1642,-3.1569,-3.1335,-3.1148,-3.0816,-3.0714,-3.0627,-3.0612,-3.0612,-3.0612,-3.0612,-3.0612,-3.0612,-3.0642,-3.0702,-3.0821,-3.0911,-3.0836,-3.0297,-2.9605,-2.9134,-2.8577,-2.8079,-2.76,-2.7585,-2.7585,-2.7585,-2.7585,-2.7585,-2.7585,-2.7585,-2.7585,-2.7585,-2.7585,-2.7585,-2.7585,-2.7585,-1.5831,-1.5838,-1.5798,-1.5825,-1.5825,-1.5825,-1.5825,-1.6109,-1.7963,-1.8918,-1.936,-2.1284,-2.253,-2.2794,-2.2969,-2.3047,-2.3101,-2.3101,-2.3101,-2.3101,-2.3091,-2.2916,-2.2656,-2.2545,-2.2774,-2.292,-2.3227,-2.4037,-2.5264,-2.654,-2.7597,-2.8239,-2.8474,-2.851,-2.851,-2.851,-2.8234,-2.7909,-2.8222,-2.8414,-2.8366,-2.8414,-2.8162,-2.7897,-2.7777,-2.7671,-2.7288,-2.7613,-2.7827,-2.7841,-2.8064,-2.8124,-2.8109,-2.7682,-2.7444,-2.7595,-2.7871,-2.8335,-2.8737,-2.9012,-2.9851,-3.1095,-3.1815,-3.2826,-3.347,-3.3979,-3.4095,-3.4332,-3.438,-3.4167,-3.3717,-3.318,-3.2527,-3.2164,-3.2034,-3.1642,-3.1119,-3.1366,-3.1163,-3.1018,-3.0959,-3.0858,-3.0641,-3.0627,-3.0612,-3.0612,-3.0612,-3.0612,-3.0612,-3.0612,-3.0612,-3.0612,-3.0409,-3.0499,-3.0441,-3.0439,-3.0035,-2.9414,-2.9047,-2.8577,-2.8049,-2.7585,-2.7585,-2.7585,-2.76,-2.76,-2.7585,-2.7585,-2.7585,-2.7585,-2.7585,-2.7585,-2.7585,-2.7585,-2.7585,-1.5825,-1.5825,-1.5825,-1.5825,-1.5825,-1.5825,-1.6157,-1.6857,-1.8149,-1.9239,-2.0141,-2.1606,-2.2618,-2.2925,-2.3091,-2.3091,-2.3101,-2.3101,-2.3101,-2.3101,-2.3062,-2.2867,-2.2607,-2.2503,-2.2615,-2.2836,-2.3496,-2.4261,-2.524,-2.6154,-2.716,-2.7944,-2.8342,-2.851,-2.8462,-2.8498,-2.8198,-2.7822,-2.7666,-2.7738,-2.7942,-2.8014,-2.7918,-2.769,-2.7705,-2.7342,-2.7057,-2.7048,-2.7211,-2.7261,-2.7385,-2.7344,-2.7363,-2.712,-2.6864,-2.6876,-2.7052,-2.7557,-2.8273,-2.8399,-2.9411,-3.0334,-3.0993,-3.1522,-3.2873,-3.3657,-3.4061,-3.4399,-3.4414,-3.408,-3.3605,-3.3271,-3.2483,-3.1903,-3.1408,-3.1105,-3.083,-3.0845,-3.0874,-3.0714,-3.0612,-3.0612,-3.0612,-3.0612,-3.0612,-3.0612,-3.0612,-3.0612,-3.0612,-3.0612,-3.0612,-3.0612,-3.0292,-3.0017,-2.9886,-2.9795,-2.9348,-2.8877,-2.8868,-2.8371,-2.7914,-2.7585,-2.769,-2.766,-2.7615,-2.7615,-2.76,-2.7585,-2.7585,-2.7585,-2.7585,-2.7585,-2.7585,-2.7585,-2.7585,-1.5825,-1.5825,-1.5825,-1.5825,-1.5825,-1.5825,-1.6393,-1.7372,-1.8334,-1.9467,-2.0692,-2.1882,-2.274,-2.3003,-2.3101,-2.3101,-2.3101,-2.3101,-2.3101,-2.3101,-2.3033,-2.2769,-2.2461,-2.235,-2.2277,-2.2276,-2.2952,-2.3853,-2.4733,-2.5574,-2.6477,-2.7435,-2.775,-2.8114,-2.827,-2.827,-2.8089,-2.8017,-2.7486,-2.7546,-2.7834,-2.7786,-2.763,-2.7474,-2.7306,-2.7067,-2.6585,-2.6515,-2.6651,-2.6737,-2.6721,-2.6762,-2.6851,-2.6719,-2.6587,-2.6575,-2.6663,-2.704,-2.7682,-2.8109,-2.8748,-2.9476,-3.0147,-3.0937,-3.222,-3.2978,-3.3506,-3.4032,-3.4109,-3.3717,-3.3195,-3.2908,-3.2222,-3.1569,-3.1192,-3.093,-3.0757,-3.0757,-3.0743,-3.067,-3.0612,-3.0612,-3.0612,-3.0612,-3.0612,-3.0612,-3.0612,-3.0612,-3.0612,-3.0612,-3.0612,-3.0583,-3.0118,-2.9915,-3.0031,-2.9649,-2.9011,-2.8471,-2.8461,-2.8371,-2.7979,-2.7914,-2.8008,-2.7929,-2.7764,-2.769,-2.7705,-2.7645,-2.7585,-2.7585,-2.7585,-2.7585,-2.7585,-2.7585,-2.7585,-1.5825,-1.5825,-1.5825,-1.5825,-1.5825,-1.5825,-1.6386,-1.7512,-1.8427,-1.9604,-2.0872,-2.2069,-2.2838,-2.3057,-2.3101,-2.3101,-2.3101,-2.3101,-2.3101,-2.3101,-2.3042,-2.2662,-2.2314,-2.2068,-2.1999,-2.194,-2.2373,-2.3074,-2.3985,-2.4786,-2.5768,-2.6784,-2.71,-2.7378,-2.7669,-2.7861,-2.7993,-2.7957,-2.7606,-2.769,-2.7921,-2.7801,-2.7354,-2.691,-2.6453,-2.5973,-2.548,-2.5683,-2.5886,-2.6111,-2.6226,-2.6375,-2.6502,-2.654,-2.6499,-2.6487,-2.6487,-2.6851,-2.7356,-2.788,-2.8749,-2.9637,-3.0308,-3.0836,-3.2055,-3.2342,-3.2815,-3.3405,-3.3529,-3.2977,-3.2237,-3.1613,-3.1555,-3.1193,-3.0917,-3.0816,-3.067,-3.0656,-3.0641,-3.0627,-3.0612,-3.0612,-3.0612,-3.0612,-3.0612,-3.0612,-3.0612,-3.0612,-3.0612,-3.0612,-3.0612,-3.0481,-2.9987,-2.9944,-3.047,-2.9952,-2.8874,-2.842,-2.8338,-2.8371,-2.8293,-2.8293,-2.8293,-2.8203,-2.8064,-2.7944,-2.7779,-2.7675,-2.7585,-2.7585,-2.7585,-2.7585,-2.7585,-2.7585,-2.7585,-1.5825,-1.5825,-1.5825,-1.5825,-1.5825,-1.644,-1.7271,-1.8288,-1.9293,-2.0475,-2.1748,-2.2476,-2.2882,-2.3057,-2.3101,-2.3101,-2.3101,-2.3101,-2.3101,-2.3101,-2.3013,-2.2773,-2.2353,-2.2068,-2.2009,-2.2048,-2.198,-2.2285,-2.3383,-2.4005,-2.4515,-2.529,-2.6192,-2.6884,-2.721,-2.7488,-2.7618,-2.7462,-2.7354,-2.7354,-2.7294,-2.7031,-2.6622,-2.643,-2.6298,-2.5829,-2.542,-2.5407,-2.5535,-2.5711,-2.5945,-2.6131,-2.6339,-2.643,-2.6499,-2.6487,-2.6487,-2.6763,-2.7153,-2.7563,-2.8206,-2.935,-3.0091,-3.0788,-3.1714,-3.1818,-3.2191,-3.2622,-3.2875,-3.2367,-3.1772,-3.1511,-3.1366,-3.0859,-3.0612,-3.0612,-3.0612,-3.0612,-3.0612,-3.0612,-3.0612,-3.0612,-3.0612,-3.0612,-3.0612,-3.0612,-3.0612,-3.0612,-3.0612,-3.0612,-3.0612,-3.0452,-2.9972,-2.961,-3.0075,-2.9411,-2.8606,-2.8444,-2.8289,-2.8312,-2.8382,-2.8487,-2.8472,-2.8397,-2.8278,-2.8109,-2.7899,-2.769,-2.7585,-2.7585,-2.7585,-2.7585,-2.7585,-2.7585,-2.7585,-1.5825,-1.5825,-1.5825,-1.5825,-1.592,-1.6864,-1.7917,-1.8964,-1.9931,-2.1204,-2.253,-2.275,-2.2925,-2.3047,-2.3101,-2.3101,-2.3101,-2.3101,-2.3101,-2.3101,-2.3052,-2.2881,-2.2539,-2.2261,-2.2084,-2.2078,-2.189,-2.2011,-2.2622,-2.3169,-2.3567,-2.4209,-2.5217,-2.5963,-2.6753,-2.7164,-2.7246,-2.6982,-2.6885,-2.6885,-2.6849,-2.6454,-2.6154,-2.6118,-2.6022,-2.5804,-2.5538,-2.5535,-2.5641,-2.5828,-2.598,-2.6084,-2.6258,-2.6396,-2.6487,-2.6487,-2.6537,-2.67,-2.6999,-2.7532,-2.7988,-2.893,-2.9403,-3.0191,-3.0925,-3.1231,-3.1524,-3.2089,-3.2193,-3.1961,-3.1337,-3.1134,-3.1061,-3.0641,-3.0612,-3.0612,-3.0612,-3.0612,-3.0612,-3.0612,-3.0612,-3.0612,-3.0612,-3.0612,-3.0612,-3.0612,-3.0612,-3.0612,-3.0612,-3.0612,-3.0612,-3.0394,-3.0016,-2.9697,-2.9435,-2.915,-2.8887,-2.8758,-2.8595,-2.8356,-2.8397,-2.8502,-2.8562,-2.8457,-2.8338,-2.8229,-2.7974,-2.766,-2.7585,-2.7585,-2.7585,-2.7585,-2.7585,-2.7585,-2.7585,-1.5825,-1.5825,-1.5825,-1.5825,-1.5927,-1.6857,-1.801,-1.9185,-2.0322,-2.1507,-2.2662,-2.2794,-2.2925,-2.3057,-2.3101,-2.3101,-2.3101,-2.3101,-2.3062,-2.3013,-2.3062,-2.2871,-2.2637,-2.2386,-2.2154,-2.1426,-2.1322,-2.1566,-2.1856,-2.2182,-2.2521,-2.3132,-2.4093,-2.5081,-2.6056,-2.6633,-2.6885,-2.6885,-2.6825,-2.6789,-2.6657,-2.6262,-2.6009,-2.5913,-2.5756,-2.5585,-2.5537,-2.5641,-2.5793,-2.598,-2.6097,-2.6236,-2.643,-2.6465,-2.6487,-2.6487,-2.6487,-2.6559,-2.6643,-2.7636,-2.8224,-2.8524,-2.901,-2.9581,-3.0323,-3.0669,-3.0865,-3.1478,-3.1509,-3.1264,-3.0903,-3.067,-3.067,-3.0656,-3.0627,-3.0612,-3.0612,-3.0612,-3.0612,-3.0612,-3.0612,-3.0612,-3.0612,-3.0612,-3.0612,-3.0612,-3.0612,-3.0612,-3.0612,-3.0612,-3.0612,-3.0526,-3.0191,-2.9988,-2.9754,-2.9413,-2.9182,-2.907,-2.8833,-2.848,-2.8368,-2.8472,-2.8502,-2.8457,-2.8412,-2.8308,-2.7974,-2.76,-2.7585,-2.7585,-2.7585,-2.7585,-2.7585,-2.7585,-2.7585,-1.5825,-1.5825,-1.5825,-1.5927,-1.6163,-1.7138,-1.8133,-1.9368,-2.1096,-2.2344,-2.275,-2.2925,-2.3003,-2.3091,-2.3071,-2.3062,-2.3071,-2.3081,-2.3033,-2.2754,-2.2896,-2.2808,-2.2617,-2.2422,-2.2314,-2.1992,-2.1621,-2.1291,-2.1401,-2.1686,-2.1873,-2.2424,-2.361,-2.4574,-2.5445,-2.6081,-2.6382,-2.637,-2.6358,-2.6346,-2.631,-2.5889,-2.56,-2.56,-2.5479,-2.5465,-2.5488,-2.5688,-2.5898,-2.605,-2.6154,-2.6305,-2.6465,-2.6487,-2.6487,-2.6487,-2.6487,-2.6748,-2.7175,-2.7947,-2.8371,-2.8573,-2.8999,-2.9627,-3.0444,-3.0537,-3.072,-3.0855,-3.0974,-3.0816,-3.0656,-3.0627,-3.0627,-3.0627,-3.0612,-3.0612,-3.0612,-3.0612,-3.0612,-3.0612,-3.0612,-3.0612,-3.0612,-3.0612,-3.0612,-3.0612,-3.0612,-3.0612,-3.0612,-3.0612,-3.0612,-3.0628,-3.0483,-3.0338,-3.009,-2.975,-2.9214,-2.8892,-2.8643,-2.8371,-2.8353,-2.8353,-2.8218,-2.8053,-2.8263,-2.8397,-2.7959,-2.7585,-2.7585,-2.7585,-2.7585,-2.7585,-2.7585,-2.7585,-2.7585,-1.5825,-1.5825,-1.5825,-1.6157,-1.677,-1.7412,-1.8465,-2.0051,-2.2015,-2.2882,-2.2925,-2.3057,-2.3091,-2.3062,-2.2945,-2.2867,-2.29,-2.2691,-2.2604,-2.2334,-2.2506,-2.2451,-2.2334,-2.2305,-2.2197,-2.2119,-2.1867,-2.1487,-2.1729,-2.1927,-2.2351,-2.2953,-2.3599,-2.4515,-2.5242,-2.5685,-2.5829,-2.5829,-2.5817,-2.5817,-2.5733,-2.5528,-2.5348,-2.5383,-2.543,-2.5523,-2.5594,-2.5734,-2.5955,-2.6107,-2.6223,-2.6374,-2.6465,-2.6487,-2.6487,-2.6487,-2.6555,-2.6748,-2.7108,-2.7683,-2.8099,-2.8481,-2.9359,-3.0099,-3.0507,-3.058,-3.0596,-3.0656,-3.0612,-3.0612,-3.0612,-3.0612,-3.0612,-3.0612,-3.0612,-3.0612,-3.0612,-3.0612,-3.0612,-3.0612,-3.0612,-3.0612,-3.0612,-3.0612,-3.0612,-3.0612,-3.0612,-3.0612,-3.0612,-3.0612,-3.0612,-3.0628,-3.0643,-3.0469,-3.0295,-3.0074,-2.9496,-2.8776,-2.8464,-2.8222,-2.8019,-2.7959,-2.7824,-2.7724,-2.7904,-2.7989,-2.7779,-2.7585,-2.7585,-2.7585,-2.7585,-2.7585,-2.7585,-2.7585,-2.7585,-1.5771,-1.5825,-1.5764,-1.6499,-1.7522,-1.7826,-1.9165,-2.132,-2.2545,-2.3071,-2.3052,-2.3023,-2.2955,-2.2916,-2.2656,-2.25,-2.2461,-2.2139,-2.1982,-2.1934,-2.2051,-2.1943,-2.1934,-2.1924,-2.206,-2.1992,-2.1889,-2.1948,-2.2345,-2.2425,-2.2956,-2.359,-2.3902,-2.4492,-2.4933,-2.5313,-2.5409,-2.5468,-2.5468,-2.548,-2.542,-2.5372,-2.5347,-2.5418,-2.5571,-2.5711,-2.5863,-2.6107,-2.6292,-2.643,-2.6465,-2.6499,-2.6487,-2.6487,-2.6487,-2.6487,-2.6487,-2.6714,-2.704,-2.7683,-2.8279,-2.8985,-2.9856,-3.0417,-3.0582,-3.0612,-3.0612,-3.0612,-3.0612,-3.0612,-3.0612,-3.0612,-3.0612,-3.0612,-3.0612,-3.0612,-3.0612,-3.0612,-3.0612,-3.0612,-3.0612,-3.0612,-3.0612,-3.0612,-3.0612,-3.0612,-3.0612,-3.0612,-3.0612,-3.0612,-3.0612,-3.0612,-3.0613,-3.0584,-3.0397,-3.0059,-2.9551,-2.8768,-2.8345,-2.8077,-2.7844,-2.766,-2.766,-2.766,-2.7615,-2.7585,-2.7585,-2.7585,-2.7585,-2.7585,-2.7585,-2.7585,-2.7585,-2.7585,-2.7585,-1.5638,-1.5758,-1.5611,-1.6206,-1.7402,-1.8825,-2.0272,-2.1649,-2.2633,-2.2945,-2.2652,-2.2652,-2.2568,-2.2236,-2.2109,-2.207,-2.2021,-2.1914,-2.168,-2.1621,-2.1631,-2.1602,-2.1611,-2.167,-2.1982,-2.2109,-2.2136,-2.2239,-2.2801,-2.2896,-2.295,-2.3265,-2.4011,-2.4373,-2.4671,-2.5016,-2.5206,-2.5312,-2.5312,-2.5312,-2.5312,-2.5312,-2.5347,-2.55,-2.5606,-2.5746,-2.5945,-2.6166,-2.6305,-2.6305,-2.643,-2.6499,-2.6487,-2.6487,-2.6487,-2.6555,-2.6905,-2.7417,-2.7934,-2.8583,-2.9156,-2.9594,-3.0312,-3.0477,-3.0612,-3.0612,-3.0612,-3.0612,-3.0612,-3.0612,-3.0612,-3.0612,-3.0612,-3.0612,-3.0612,-3.0612,-3.0612,-3.0612,-3.0612,-3.0612,-3.0612,-3.0612,-3.0612,-3.0612,-3.0612,-3.0612,-3.0612,-3.0612,-3.0612,-3.0612,-3.0612,-3.0612,-3.0453,-3.0395,-3.0075,-2.9746,-2.9279,-2.8803,-2.8308,-2.7916,-2.7754,-2.7615,-2.76,-2.7585,-2.7585,-2.7585,-2.7585,-2.7585,-2.7585,-2.7585,-2.7585,-2.7585,-2.7585,-2.7585,-2.7585,-1.5324,-1.5451,-1.5304,-1.6157,-1.7848,-1.9873,-2.1216,-2.1849,-2.238,-2.248,-2.2275,-2.2266,-2.2119,-2.1924,-2.1748,-2.1631,-2.1611,-2.1367,-2.1152,-2.1123,-2.1279,-2.1133,-2.1152,-2.1289,-2.166,-2.1894,-2.2089,-2.2241,-2.314,-2.3807,-2.3986,-2.4059,-2.4456,-2.4492,-2.4791,-2.5087,-2.5276,-2.5312,-2.5312,-2.5312,-2.5312,-2.5312,-2.5394,-2.5465,-2.5523,-2.5688,-2.5805,-2.6015,-2.6131,-2.6131,-2.6258,-2.6339,-2.6327,-2.6327,-2.6452,-2.6555,-2.7095,-2.7517,-2.7999,-2.8967,-2.9654,-3.016,-3.0477,-3.0612,-3.0612,-3.0612,-3.0612,-3.0612,-3.0612,-3.0612,-3.0612,-3.0612,-3.0612,-3.0612,-3.0612,-3.0612,-3.0612,-3.0612,-3.0612,-3.0612,-3.0612,-3.0612,-3.0612,-3.0612,-3.0612,-3.0612,-3.0612,-3.0612,-3.0612,-3.0612,-3.0612,-3.0612,-3.0337,-3.0119,-2.9766,-2.9363,-2.8853,-2.8385,-2.8003,-2.7682,-2.7579,-2.7585,-2.7585,-2.7585,-2.7585,-2.7585,-2.7585,-2.7585,-2.7585,-2.7585,-2.7585,-2.7585,-2.7585,-2.7585,-2.7585,-1.4995,-1.5073,-1.516,-1.6411,-1.8453,-2.0606,-2.1666,-2.1818,-2.1777,-2.1807,-2.1816,-2.1836,-2.1787,-2.1553,-2.1318,-2.1191,-2.1113,-2.0898,-2.083,-2.0625,-2.0772,-2.0752,-2.0732,-2.0693,-2.1221,-2.1484,-2.1756,-2.217,-2.3768,-2.4411,-2.4647,-2.5276,-2.5206,-2.5123,-2.5123,-2.5194,-2.5312,-2.5312,-2.5312,-2.5312,-2.5312,-2.5312,-2.5312,-2.5394,-2.55,-2.5641,-2.5711,-2.5898,-2.6097,-2.6015,-2.6015,-2.6097,-2.6131,-2.6188,-2.6361,-2.6748,-2.7297,-2.767,-2.8247,-2.9139,-2.9654,-3.0023,-3.0237,-3.0507,-3.0612,-3.0612,-3.0612,-3.0612,-3.0612,-3.0612,-3.0612,-3.0612,-3.0612,-3.0612,-3.0612,-3.0612,-3.0612,-3.0612,-3.0612,-3.0612,-3.0612,-3.0612,-3.0612,-3.0612,-3.0612,-3.0612,-3.0612,-3.0612,-3.0612,-3.0612,-3.0569,-3.0554,-3.0191,-2.9813,-2.9389,-2.8958,-2.8348,-2.7897,-2.7643,-2.7556,-2.7529,-2.7549,-2.7585,-2.7585,-2.7585,-2.7585,-2.7585,-2.7585,-2.7585,-2.7585,-2.7585,-2.7585,-2.7585,-2.7585,-2.7585,-1.4763,-1.5109,-1.6385,-1.7233,-1.7812,-1.9786,-2.079,-2.0918,-2.0928,-2.1094,-2.1298,-2.1367,-2.1211,-2.0967,-2.0879,-2.0791,-2.0713,-2.0684,-2.0635,-2.0615,-2.0615,-2.0615,-2.0615,-2.0635,-2.0928,-2.1182,-2.153,-2.2186,-2.3492,-2.4232,-2.4779,-2.5241,-2.5312,-2.5312,-2.5312,-2.5312,-2.5312,-2.5312,-2.5312,-2.5312,-2.5312,-2.5347,-2.5347,-2.5465,-2.5571,-2.5653,-2.5758,-2.5863,-2.5945,-2.5923,-2.5945,-2.6027,-2.6119,-2.6339,-2.6443,-2.6692,-2.7571,-2.8038,-2.8602,-2.9421,-3.0099,-3.0296,-3.0507,-3.0538,-3.0612,-3.0612,-3.0612,-3.0612,-3.0612,-3.0612,-3.0612,-3.0612,-3.0612,-3.0612,-3.0612,-3.0612,-3.0612,-3.0612,-3.0612,-3.0612,-3.0612,-3.0612,-3.0612,-3.0612,-3.0612,-3.0612,-3.0612,-3.0612,-3.0612,-3.0598,-3.0496,-3.0364,-2.9929,-2.9551,-2.9083,-2.8565,-2.7995,-2.7717,-2.752,-2.7482,-2.7478,-2.7524,-2.7585,-2.7585,-2.7585,-2.7585,-2.7585,-2.7585,-2.7585,-2.7585,-2.7585,-2.7585,-2.7585,-2.7585,-2.7585,-1.4422,-1.4847,-1.6645,-1.7606,-1.8175,-1.9726,-2.0489,-2.0566,-2.0615,-2.0703,-2.0908,-2.0918,-2.0791,-2.0615,-2.0615,-2.0615,-2.0615,-2.0615,-2.0615,-2.0615,-2.0615,-2.0615,-2.0615,-2.0625,-2.0889,-2.1163,-2.2055,-2.2861,-2.3475,-2.4349,-2.5016,-2.5276,-2.5312,-2.5312,-2.5312,-2.5312,-2.5312,-2.5312,-2.5312,-2.5312,-2.5312,-2.5312,-2.5347,-2.5465,-2.55,-2.5618,-2.5723,-2.5828,-2.591,-2.5923,-2.5923,-2.6015,-2.6166,-2.627,-2.6555,-2.7095,-2.7855,-2.8639,-2.9142,-2.9825,-3.0568,-3.0612,-3.0612,-3.0612,-3.0612,-3.0612,-3.0612,-3.0612,-3.0612,-3.0612,-3.0612,-3.0612,-3.0612,-3.0612,-3.0612,-3.0612,-3.0612,-3.0612,-3.0612,-3.0612,-3.0612,-3.0612,-3.0612,-3.0612,-3.0612,-3.0612,-3.0612,-3.0612,-3.0612,-3.0525,-3.0438,-3.0118,-2.9639,-2.9085,-2.858,-2.813,-2.7635,-2.7458,-2.7386,-2.7488,-2.7524,-2.7575,-2.7585,-2.7585,-2.7585,-2.7585,-2.7585,-2.7585,-2.7585,-2.7585,-2.7585,-2.7585,-2.7585,-2.7585,-2.7585,-1.4222,-1.458,-1.6453,-1.7827,-1.8798,-2.004,-2.0605,-2.0615,-2.0615,-2.0615,-2.0644,-2.0644,-2.0615,-2.0615,-2.0615,-2.0615,-2.0615,-2.0615,-2.0615,-2.0615,-2.0615,-2.0615,-2.0615,-2.0635,-2.0928,-2.1645,-2.2552,-2.2972,-2.3368,-2.4276,-2.4909,-2.5206,-2.5312,-2.5312,-2.5312,-2.5312,-2.5312,-2.5312,-2.5312,-2.5312,-2.5312,-2.5312,-2.5312,-2.5312,-2.5312,-2.5418,-2.5571,-2.5723,-2.584,-2.5957,-2.5957,-2.6062,-2.6166,-2.6305,-2.6624,-2.7149,-2.7953,-2.8666,-2.9296,-3.0023,-3.0447,-3.0612,-3.0612,-3.0612,-3.0612,-3.0612,-3.0612,-3.0612,-3.0612,-3.0612,-3.0612,-3.0612,-3.0612,-3.0612,-3.0612,-3.0612,-3.0612,-3.0612,-3.0612,-3.0612,-3.0612,-3.0612,-3.0612,-3.0612,-3.0612,-3.0612,-3.0612,-3.0612,-3.0569,-3.0423,-3.0307,-2.9813,-2.9189,-2.8646,-2.8179,-2.7733,-2.7329,-2.7399,-2.7412,-2.7499,-2.7585,-2.7585,-2.7585,-2.7585,-2.7585,-2.7585,-2.7585,-2.7585,-2.7585,-2.7585,-2.7585,-2.7585,-2.7585,-2.7585,-2.7585,-1.4615,-1.5496,-1.6772,-1.7948,-1.9036,-2.0128,-2.0615,-2.0615,-2.0615,-2.0615,-2.0615,-2.0615,-2.0615,-2.0615,-2.0615,-2.0615,-2.0615,-2.0615,-2.0615,-2.0615,-2.0615,-2.0615,-2.0615,-2.0615,-2.1071,-2.1758,-2.26,-2.3257,-2.3537,-2.4084,-2.4719,-2.5229,-2.5312,-2.5312,-2.5312,-2.5312,-2.5312,-2.5312,-2.5312,-2.5312,-2.5312,-2.5312,-2.5312,-2.5312,-2.5312,-2.5418,-2.5571,-2.5641,-2.5758,-2.5923,-2.6062,-2.6166,-2.6236,-2.6374,-2.6679,-2.7229,-2.8019,-2.8666,-2.9345,-3.0115,-3.0507,-3.0612,-3.0612,-3.0612,-3.0612,-3.0612,-3.0612,-3.0612,-3.0612,-3.0612,-3.0612,-3.0612,-3.0612,-3.0612,-3.0612,-3.0612,-3.0612,-3.0612,-3.0612,-3.0612,-3.0612,-3.0612,-3.0612,-3.0612,-3.0612,-3.0612,-3.0612,-3.0612,-3.0612,-3.0409,-3.022,-2.9595,-2.8942,-2.8416,-2.8027,-2.7495,-2.7151,-2.7288,-2.7412,-2.7499,-2.7575,-2.7585,-2.7585,-2.7585,-2.7585,-2.7585,-2.7585,-2.7585,-2.7585,-2.7585,-2.7585,-2.7585,-2.7585,-2.7585,-2.7585]}]]